[[{"header":{"parameterUnit":"m.s-1","parameterCategory":1,"la1":31.0,"la2":29.5877,"lo1":-88.7671,"lo2":-86.6584,"dy":0.0162,"dx":0.0185,"nx":115,"ny":88,"refTime":"2024-02-14T06:00:00:Z","depth":0,"parameterNumber":2,"parameterNumberName":"U-component_of_WINDS"},"data":[0.0,0.0,0.0,0.0,0.0,0.0,0.0,0.0,0.0,0.0,0.0,0.0,0.0,0.0,0.0,0.0,0.0,0.0,0.0,0.0,0.0,0.0,0.0,0.0,0.0,0.0,0.0,0.0,0.0,0.0,0.0,0.0,0.0,0.0,0.0,0.0,0.0,0.0,0.0,0.0,0.0,0.0,0.0,0.0,0.0,0.0,0.0,0.0,0.0,0.0,0.0,0.0,0.0,0.0,0.0,0.0,0.0,0.0,0.0,0.0,0.0,0.0,0.0,0.0,0.0,0.0,0.0,0.0,0.0,0.0,0.0,0.0,0.0,0.0,0.0,0.0,0.0,0.0,0.0,0.0,0.0,0.0,0.0,0.0,0.0,0.0,0.0,0.0,0.0,0.0,0.0,0.0,0.0,0.0,0.0,0.0,0.0,0.0,0.0,0.0,0.0,0.0,0.0,0.0,0.0,0.0,0.0,0.0,0.0,0.0,0.0,0.0,0.0,0.0,0.0,0.0,0.0,0.0,0.0,0.0,0.0,0.0,0.0,0.0,0.0,0.0,0.0,0.0,0.0,0.0,0.0,0.0,0.0,0.0,0.0,0.0,0.0,0.0,0.0,0.0,0.0,0.0,0.0,0.0,0.0,0.0,0.0,0.0,0.0,0.0,0.0,0.0,0.0,0.0,0.0,0.0,0.0,0.0,0.0,0.0,0.0,0.0,0.0,0.0,0.0,0.0,0.0,0.0,0.0,0.0,0.0,0.0,0.0,0.0,0.0,0.0,0.0,0.0,0.0,0.0,0.0,0.0,0.0,0.0,0.0,0.0,0.0,0.0,0.0,0.0,0.0,0.0,0.0,0.0,0.0,0.0,0.0,0.0,0.0,0.0,0.0,0.0,0.0,0.0,0.0,0.0,0.0,0.0,0.0,0.0,0.0,0.0,0.0,0.0,0.0,0.0,0.0,0.0,0.0,0.0,0.0,0.0,0.0,0.0,0.0,0.0,0.0,0.0,0.0,0.0,0.0,0.0,0.0,0.0,0.0,0.0,0.0,0.0,0.0,0.0,0.0,0.0,0.0,0.0,0.0,0.0,0.0,0.0,0.0,0.0,0.0,0.0,0.0,0.0,0.0,0.0,0.0,0.0,0.0,0.0,0.0,0.0,0.0,0.0,0.0,0.0,0.0,0.0,0.0,0.0,0.0,0.0,0.0,0.0,0.0,0.0,0.0,0.0,0.0,0.0,0.0,0.0,0.0,0.0,0.0,0.0,0.0,0.0,0.0,0.0,0.0,0.0,0.0,0.0,0.0,0.0,0.0,0.0,0.0,0.0,0.0,0.0,0.0,0.0,0.0,0.0,0.0,0.0,0.0,0.0,0.0,0.0,0.0,0.0,0.0,0.0,0.0,0.0,0.0,0.0,0.0,0.0,0.0,0.0,0.0,0.0,0.0,0.0,0.0,0.0,0.0,0.0,0.0,0.0,0.0,0.0,0.0,0.0,0.0,0.0,0.0,0.0,0.0,0.0,0.0,0.0,0.0,0.0,0.0,0.0,0.0,0.0,0.0,0.0,0.0,0.0,0.0,0.0,0.0,0.0,0.0,0.0,0.0,0.0,0.0,0.0,0.0,0.0,0.0,0.0,0.0,0.0,0.0,0.0,0.0,0.0,0.0,0.0,0.0,0.0,0.0,0.0,0.0,0.0,0.0,0.0,0.0,0.0,0.0,0.0,0.0,0.0,0.0,0.0,0.0,0.0,0.0,0.0,0.0,0.0,0.0,0.0,0.0,0.0,0.0,0.0,0.0,0.0,0.0,0.0,0.0,0.0,0.0,0.0,0.0,0.0,0.0,0.0,0.0,0.0,0.0,0.0,0.0,0.0,0.0,0.0,0.0,0.0,0.0,0.0,0.0,0.0,0.0,0.0,0.0,0.0,0.0,0.0,0.0,0.0,0.0,0.0,0.0,0.0,0.0,0.0,0.0,0.0,0.0,0.0,0.0,0.0,0.0,0.0,0.0,0.0,0.0,0.0,0.0,0.0,0.0,0.0,0.0,0.0,0.0,0.0,0.0,0.0,0.0,0.0,0.0,0.0,0.0,0.0,0.0,0.0,0.0,0.0,0.0,0.0,0.0,0.0,0.0,0.0,0.0,0.0,0.0,0.0,0.0,0.0,0.0,0.0,0.0,0.0,0.0,0.0,0.0,0.0,0.0,0.0,0.0,0.0,0.0,0.0,0.0,0.0,0.0,0.0,0.0,0.0,0.0,0.0,0.0,0.0,0.0,0.0,0.0,0.0,0.0,0.0,0.0,0.0,0.0,0.0,0.0,0.0,0.0,0.0,0.0,0.0,0.0,0.0,0.0,0.0,0.0,0.0,0.0,0.0,0.0,0.0,0.0,0.0,0.0,0.0,0.0,0.0,0.0,0.0,0.0,0.0,0.0,0.0,0.0,0.0,0.0,0.0,0.0,0.0,0.0,0.0,0.0,0.0,0.0,0.0,0.0,0.0,0.0,0.0,0.0,0.0,0.0,0.0,0.0,0.0,0.0,0.0,0.0,0.0,0.0,0.0,0.0,0.0,0.0,0.0,0.0,0.0,0.0,0.0,0.0,0.0,0.0,0.0,0.0,0.0,0.0,0.0,0.0,0.0,0.0,0.0,0.0,0.0,0.0,0.0,0.0,0.0,0.0,0.0,0.0,0.0,0.0,0.0,0.0,0.0,0.0,0.0,0.0,0.0,0.0,0.0,0.0,0.0,0.0,0.0,0.0,0.0,0.0,0.0,0.0,0.0,0.0,0.0,0.0,0.0,0.0,0.0,0.0,0.0,0.0,0.0,0.0,0.0,0.0,0.0,0.0,0.0,0.0,0.0,0.0,0.0,0.0,0.0,0.0,0.0,0.0,0.0,0.0,0.0,0.0,0.0,0.0,0.0,0.0,0.0,0.0,0.0,0.0,0.0,0.0,0.0,0.0,0.0,0.0,0.0,0.0,0.0,0.0,0.0,0.0,0.0,0.0,0.0,0.0,0.0,0.0,0.0,0.0,0.0,0.0,0.0,0.0,0.0,0.0,0.0,0.0,0.0,0.0,0.0,0.0,0.0,0.0,0.0,0.0,0.0,0.0,0.0,0.0,0.0,0.0,0.0,0.0,0.0,0.0,0.0,0.0,0.0,0.0,0.0,0.0,0.0,0.0,0.0,0.0,0.0,0.0,0.0,0.0,0.0,0.0,0.0,0.0,0.0,0.0,0.0,0.0,0.0,0.0,0.0,0.0,0.0,0.0,0.0,0.0,0.0,0.0,0.0,0.0,0.0,0.0,0.0,0.0,0.0,0.0,0.0,0.0,0.0,0.0,0.0,0.0,0.0,0.0,0.0,0.0,0.0,0.0,0.0,0.0,0.0,0.0,0.0,0.0,0.0,0.0,0.0,0.0,0.0,0.0,0.0,0.0,0.0,0.0,0.0,0.0,0.0,0.0,0.0,0.0,0.0,0.0,0.0,0.0,0.0,0.0,0.0,0.0,0.0,0.0,0.0,0.0,0.0,0.0,0.0,0.0,0.0,0.0,0.0,0.0,0.0,0.0,0.0,0.0,0.0,0.0,0.0,0.0,0.0,0.0,0.0,0.0,0.0,0.0,0.0,0.0,0.0,0.0,0.0,0.0,0.0,0.0,0.0,0.0,0.0,0.0,0.0,0.0,0.0,0.0,0.0,0.0,0.0,0.0,0.0,0.0,0.0,0.0,0.0,0.0,0.0,0.0,0.0,0.0,0.0,0.0,0.0,0.0,0.0,0.0,0.0,0.0,0.0,0.0,0.0,0.0,0.0,0.0,0.0,0.0,0.0,0.0,0.0,0.0,0.0,0.0,0.0,0.0,0.0,0.0,0.0,0.0,0.0,0.0,0.0,0.0,0.0,0.0,0.0,0.0,0.0,0.0,0.0,0.0,0.0,0.0,0.0,0.0,0.0,0.0,0.0,0.0,0.0,0.0,0.0,0.0,0.0,0.0,0.0,0.0,0.0,0.0,0.0,0.0,0.0,0.0,0.0,0.0,0.0,0.0,0.0,0.0,0.0,0.0,0.0,0.0,0.0,0.0,0.0,0.0,0.0,0.0,0.0,0.0,0.0,0.0,0.0,0.0,0.0,0.0,0.0,0.0,0.0,0.0,0.0,0.0,0.0,0.0,0.0,0.0,0.0,0.0,0.0,0.0,0.0,0.0,0.0,0.0,0.0,0.0,0.0,0.0,0.0,0.0,0.0,0.0,0.0,0.0,0.0,1.0586,0.0,0.0,0.0,0.0,0.0,0.0,0.0,0.0,0.0,0.0,0.0,0.0,0.0,0.0,0.0,0.0,0.0,0.0,0.0,0.0,0.0,0.0,0.0,0.0,0.0,0.0,0.0,0.0,0.0,0.0,0.0,0.0,0.0,0.0,0.0,0.0,0.0,0.0,0.0,0.0,0.0,0.0,0.0,0.0,0.0,0.0,0.0,0.0,0.0,0.0,0.0,0.0,0.0,0.0,0.0,0.0,0.0,0.0,0.0,0.0,0.0,0.0,0.0,0.0,0.0,0.0,0.0,0.0,0.0,0.0,0.0,0.0,0.0,0.0,0.0,0.0,0.0,0.0,0.0,0.0,0.0,0.0,0.0,0.0,0.0,0.0,0.0,0.0,0.0,0.0,0.0,0.0,0.0,0.0,0.0,0.0,0.0,0.0,0.0,0.0,0.0,0.0,0.0,0.0,0.0,0.0,0.0,0.0,0.0,0.0,1.1756,1.1197,1.1191,1.1041,1.0705,0.0,0.0,0.0,0.0,0.0,0.0,0.0,0.0,0.0,0.0,0.0,0.0,0.0,0.0,0.0,0.0,0.0,0.0,0.0,0.0,0.0,0.0,0.0,0.0,0.0,0.0,0.0,0.0,0.0,0.0,0.0,0.0,0.0,0.0,0.0,0.0,0.0,0.0,0.0,0.0,0.0,0.0,0.0,0.0,0.0,0.0,0.0,0.0,0.0,0.0,0.0,0.0,0.0,0.0,0.0,0.0,0.0,0.0,0.0,0.0,0.0,0.0,0.0,0.0,0.0,0.0,0.0,0.0,0.0,0.0,0.0,0.0,0.0,0.0,0.0,0.0,0.0,0.0,0.0,0.0,0.0,0.0,0.0,0.0,0.0,0.0,0.0,0.0,0.0,0.0,0.0,0.0,0.0,0.0,0.0,0.0,0.0,0.0,0.0,0.0,0.0,0.0,0.0,0.0,0.0,0.0,0.0,0.0,0.0,0.0,0.0,0.0,1.1603,1.132,1.076,0.0,0.0,0.0,0.0,0.0,0.0,0.0,0.0,0.0,0.0,0.0,0.0,0.0,0.0,0.0,0.0,0.0,0.0,0.0,0.0,0.0,0.0,0.0,0.0,0.0,0.0,0.0,0.0,0.0,0.0,0.0,0.0,0.0,0.0,0.0,0.0,0.0,0.0,0.0,0.0,0.0,0.0,0.0,0.0,0.0,0.0,0.0,0.0,0.0,0.0,0.0,0.0,0.0,0.0,0.0,0.0,0.0,0.0,0.0,0.0,0.0,0.0,0.0,0.0,0.0,0.0,0.0,0.0,0.0,0.0,0.0,0.0,0.0,0.0,0.0,0.0,0.0,0.0,0.0,0.0,0.0,0.0,0.0,0.0,0.0,0.0,0.0,0.0,0.0,0.0,0.0,0.0,0.0,0.0,0.0,0.0,0.0,0.0,0.0,0.0,0.0,0.0,0.0,0.0,0.0,0.0,0.0,0.0,0.0,0.0,1.1084,1.159,1.1603,0.0,1.092,0.0,0.0,0.0,0.0,0.0,0.0,0.0,0.0,0.0,0.0,0.0,0.0,0.0,0.0,0.0,0.0,0.0,0.0,0.0,0.0,0.0,0.0,0.0,0.0,0.0,0.0,0.0,0.0,0.0,0.0,0.0,0.0,0.0,0.0,0.0,0.0,0.0,0.0,0.0,0.0,0.0,0.0,0.0,0.0,0.0,0.0,0.0,0.0,0.0,0.0,0.0,0.0,0.0,0.0,0.0,0.0,0.0,0.0,0.0,0.0,0.0,0.0,0.0,0.0,0.0,0.0,0.0,0.0,0.0,0.0,0.0,0.0,0.0,0.0,0.0,0.0,0.0,0.0,0.0,0.0,0.0,0.0,0.0,0.0,0.0,0.0,0.0,0.0,0.0,0.0,0.0,0.0,0.0,0.0,0.0,0.0,0.0,0.0,0.0,0.0,0.0,0.0,0.0,0.0,0.0,0.0,0.0,0.0,0.0,0.0,1.1661,1.1835,1.1667,1.139,0.0,0.0,0.0,0.0,0.0,0.0,0.0,0.0,0.0,0.0,0.0,0.0,0.0,0.0,0.0,0.0,0.0,0.0,0.0,0.0,0.0,0.0,0.0,0.0,0.0,0.0,0.0,0.0,0.0,0.0,0.0,0.0,0.0,0.0,0.0,0.0,0.0,0.0,0.0,0.0,0.0,0.0,0.0,0.0,0.0,0.0,0.0,0.0,0.0,0.0,0.0,0.0,0.0,0.0,0.0,0.0,0.0,0.0,0.0,0.0,0.0,0.0,0.0,0.0,0.0,0.0,0.0,0.0,0.0,0.0,0.0,0.0,0.0,0.0,0.0,0.0,0.0,0.0,0.0,0.0,0.0,0.0,0.0,0.0,0.0,0.0,0.0,0.0,0.0,0.0,0.0,0.0,0.0,0.0,0.0,0.0,0.0,0.0,0.0,0.0,0.0,0.0,0.0,0.0,0.0,0.0,0.0,0.0,0.0,0.0,1.1832,1.2198,1.219,1.1651,1.1193,1.0904,0.0,0.0,0.0,0.0,0.0,0.0,0.0,0.0,0.0,0.0,0.0,0.0,0.0,0.0,0.0,0.0,0.0,0.0,0.0,0.0,0.0,0.0,0.0,0.0,0.0,0.0,0.0,0.0,0.0,0.0,0.0,0.0,0.0,0.0,0.0,0.0,0.0,0.0,0.0,0.0,0.0,0.0,0.0,0.0,0.0,0.0,0.0,0.0,0.0,0.0,0.0,0.0,0.0,0.0,0.0,0.0,0.0,0.0,0.0,0.0,0.0,0.0,0.0,0.0,0.0,0.0,0.0,0.0,0.0,0.0,0.0,0.0,0.0,0.0,0.0,0.0,0.0,0.0,0.0,0.0,0.0,0.0,0.0,0.0,0.0,0.0,0.0,0.0,0.0,0.0,0.0,0.0,0.0,0.0,0.0,0.0,0.0,0.0,0.0,0.0,0.0,0.0,0.0,0.0,0.0,0.0,0.0,0.0,1.2745,1.2423,1.2374,1.2712,1.1463,1.0789,0.0,0.0,0.0,0.0,0.0,0.0,0.0,0.0,0.0,0.0,0.0,0.0,0.0,0.0,0.0,0.0,0.0,0.0,0.0,0.0,0.0,0.0,0.0,0.0,0.0,0.0,0.0,0.0,0.0,0.0,0.0,0.0,0.0,0.0,0.0,0.0,0.0,0.0,0.0,0.0,0.0,0.0,0.0,0.0,0.0,0.0,0.0,0.0,0.0,0.0,0.0,0.0,0.0,0.0,0.0,0.0,0.0,0.0,0.0,0.0,0.0,0.0,0.0,0.0,0.0,0.0,0.0,0.0,0.0,0.0,0.0,0.0,0.0,0.0,0.0,0.0,0.0,0.0,0.0,0.0,0.0,0.0,0.0,0.0,0.0,0.0,0.0,0.0,0.0,0.0,0.0,0.0,0.0,0.0,0.0,0.0,0.0,0.0,0.0,0.0,0.0,0.0,0.0,0.0,0.0,0.0,0.0,0.0,0.0,1.1607,1.1797,1.2331,1.3162,1.1597,1.0944,0.0,0.0,0.0,0.0,0.0,0.0,0.0,0.0,0.0,0.0,0.0,0.0,0.0,0.0,0.0,0.0,0.0,0.0,0.0,0.0,0.0,0.0,0.0,0.0,0.0,0.0,0.0,0.0,0.0,0.0,0.0,0.0,0.0,0.0,0.0,0.0,0.0,0.0,0.0,0.0,0.0,0.0,0.0,0.0,0.0,0.0,0.0,0.0,0.0,0.0,0.0,0.0,0.0,0.0,0.0,0.0,0.0,0.0,0.0,0.0,0.0,0.0,0.0,0.0,0.0,0.0,0.0,0.0,0.0,0.0,0.0,0.0,0.0,0.0,0.0,0.0,0.0,0.0,0.0,0.0,0.0,0.0,0.0,0.0,0.0,0.0,0.0,0.0,0.0,0.0,0.0,0.0,0.0,0.0,0.0,0.0,0.0,0.0,0.0,0.0,0.0,0.0,0.0,0.0,0.0,0.0,0.0,0.0,0.0,1.1514,0.0,1.2609,1.3069,1.1753,1.1092,0.0,0.0,0.0,0.0,0.0,0.0,0.0,0.0,0.0,0.0,0.0,0.0,0.0,0.0,0.0,0.0,0.0,0.0,0.0,0.0,0.0,0.0,0.0,0.0,0.0,0.0,0.0,0.0,0.0,0.0,0.0,0.0,0.0,0.0,0.0,0.0,0.0,0.0,0.0,0.0,0.0,0.0,0.0,0.0,0.0,0.0,0.0,0.0,0.0,0.0,0.0,0.0,0.0,0.0,0.0,0.0,0.0,0.0,0.0,0.0,0.0,0.0,0.0,0.0,0.0,0.0,0.0,0.0,0.0,0.0,0.0,0.0,0.0,0.0,0.0,0.0,0.0,0.0,0.0,0.0,0.0,0.0,0.0,0.0,0.0,0.0,0.0,0.0,0.0,0.0,0.0,0.0,0.0,0.0,0.0,0.0,0.0,0.0,0.0,0.0,0.0,0.0,0.0,0.0,0.0,0.0,0.0,0.0,1.1309,1.2829,1.3353,1.3201,1.2435,1.1853,1.1117,0.0,0.0,0.0,0.0,0.0,0.0,0.0,0.0,0.0,0.0,0.0,0.0,0.0,0.0,0.0,0.0,0.0,0.0,0.0,0.0,0.0,0.0,0.0,0.0,0.0,0.0,0.0,0.0,0.0,0.0,0.0,0.0,0.0,0.0,0.0,0.0,0.0,0.0,0.0,0.0,0.0,0.0,0.0,0.0,0.0,0.0,0.0,0.0,0.0,0.0,0.0,0.0,0.0,0.0,0.0,0.0,0.0,0.0,0.0,0.0,0.0,0.0,0.0,0.0,0.0,0.0,0.0,0.0,0.0,0.0,0.0,0.0,0.0,0.0,0.0,0.0,0.0,0.0,0.0,0.0,0.0,0.0,0.0,0.0,0.0,0.0,0.0,0.0,0.0,0.0,0.0,0.0,0.0,0.0,0.0,0.0,0.0,0.0,0.0,0.0,0.0,0.0,0.0,0.0,0.0,0.0,0.0,0.0,0.0,1.3013,1.2667,1.2637,1.2942,1.1514,1.0876,0.0,0.0,0.0,0.0,0.0,0.0,0.0,0.0,0.0,0.0,0.0,0.0,0.0,0.0,0.0,0.0,0.0,0.0,0.0,0.0,0.0,0.0,0.0,0.0,0.0,0.0,0.0,0.0,0.0,0.0,0.0,0.0,0.0,0.0,0.0,0.0,0.0,0.0,0.0,0.0,0.0,0.0,0.0,0.0,0.0,0.0,0.0,0.0,0.0,0.0,0.0,0.0,0.0,0.0,0.0,0.0,0.0,0.0,0.0,0.0,0.0,0.0,0.0,0.0,0.0,0.0,0.0,0.0,0.0,0.0,0.0,0.0,0.0,0.0,0.0,0.0,0.0,0.0,0.0,0.0,0.0,0.0,0.0,0.0,0.0,0.0,0.0,0.0,0.0,0.0,0.0,0.0,0.0,0.0,0.0,0.0,0.0,0.0,0.0,0.0,0.0,0.0,0.0,0.0,0.0,0.0,0.0,0.0,0.0,1.3922,1.3213,1.295,1.3205,1.1852,1.122,1.1427,0.0,0.0,0.0,0.0,0.0,0.0,0.0,0.0,0.0,0.0,0.0,0.0,0.0,0.0,0.0,0.0,0.0,0.0,0.0,0.0,0.0,0.0,0.0,0.0,0.0,0.0,0.0,0.0,0.0,0.0,0.0,0.0,0.0,0.0,0.0,0.0,0.0,0.0,0.0,0.0,0.0,0.0,0.0,0.0,0.0,0.0,0.0,0.0,0.0,0.0,0.0,0.0,0.0,0.0,0.0,0.0,0.0,0.0,0.0,0.0,0.0,0.0,0.0,0.0,0.0,0.0,0.0,0.0,0.0,0.0,0.0,0.0,0.0,0.0,0.0,0.0,0.0,0.0,0.0,0.0,0.0,0.0,0.0,0.0,0.0,0.0,0.0,0.0,0.0,0.0,0.0,0.0,0.0,0.0,0.0,0.0,0.0,0.0,0.0,0.0,0.0,0.0,0.0,0.0,0.0,0.0,0.0,0.0,1.5359,1.4774,1.4057,1.3279,1.2766,1.2045,0.0,0.0,0.0,0.0,0.0,0.0,0.0,0.0,0.0,0.0,0.0,0.0,0.0,0.0,0.0,0.0,0.0,0.0,0.0,0.0,0.0,0.0,0.0,0.0,0.0,0.0,0.0,0.0,0.0,0.0,0.0,0.0,0.0,0.0,0.0,0.0,0.0,0.0,0.0,0.0,0.0,0.0,0.0,0.0,0.0,0.0,0.0,0.0,0.0,0.0,0.0,0.0,0.0,0.0,0.0,0.0,0.0,0.0,0.0,0.0,0.0,0.0,0.0,0.0,0.0,0.0,0.0,0.0,0.0,0.0,0.0,0.0,0.0,0.0,0.0,0.0,0.0,0.0,0.0,0.0,0.0,0.0,0.0,0.0,0.0,0.0,0.0,0.0,0.0,0.0,0.0,0.0,0.0,0.0,0.0,0.0,0.0,0.0,0.0,0.0,0.0,0.0,0.0,0.0,0.0,0.0,0.0,0.0,0.0,1.5156,1.5136,1.5014,1.4712,1.3416,1.249,0.0,0.0,0.0,0.0,0.0,0.0,0.0,0.0,0.0,0.0,0.0,0.0,0.0,0.0,0.0,0.0,0.0,0.0,0.0,0.0,0.0,0.0,0.0,0.0,0.0,0.0,0.0,0.0,0.0,0.0,0.0,0.0,0.0,0.0,0.0,0.0,0.0,0.0,0.0,0.0,0.0,0.0,0.0,0.0,0.0,0.0,0.0,0.0,0.0,0.0,0.0,0.0,0.0,0.0,0.0,0.0,0.0,0.0,0.0,0.0,0.0,0.0,0.0,0.0,0.0,0.0,0.0,0.0,0.0,0.0,0.0,0.0,0.0,0.0,0.0,0.0,0.0,0.0,0.0,0.0,0.0,0.0,0.0,0.0,0.0,0.0,0.0,0.0,0.0,0.0,0.0,0.0,0.0,0.0,0.0,0.0,0.0,0.0,0.0,0.0,0.0,0.0,0.0,0.0,0.0,0.0,0.0,0.0,1.4835,1.5225,1.5694,1.5826,1.561,1.4269,1.3268,0.0,0.0,0.0,0.0,0.0,0.0,0.0,0.0,0.0,0.0,0.0,0.0,0.0,0.0,0.0,0.0,0.0,0.0,0.0,0.0,0.0,0.0,0.0,0.0,0.0,0.0,0.0,0.0,0.0,0.0,0.0,0.0,0.0,0.0,0.0,0.0,0.0,0.0,0.0,0.0,0.0,0.0,0.0,0.0,0.0,0.0,0.0,0.0,0.0,0.0,0.0,0.0,0.0,0.0,0.0,0.0,0.0,0.0,0.0,0.0,0.0,0.0,0.0,0.0,0.0,0.0,0.0,0.0,0.0,0.0,0.0,0.0,0.0,0.0,0.0,0.0,0.0,0.0,0.0,0.0,0.0,0.0,0.0,0.0,0.0,0.0,0.0,0.0,0.0,0.0,0.0,0.0,0.0,0.0,0.0,0.0,0.0,0.0,0.0,0.0,0.0,0.0,0.0,0.0,0.0,0.0,0.0,0.0,1.4998,1.5545,1.6304,1.6498,1.6028,1.5103,1.4077,0.0,0.0,0.0,0.0,0.0,0.0,0.0,0.0,0.0,0.0,0.0,0.0,0.0,0.0,0.0,0.0,0.0,0.0,0.0,0.0,0.0,0.0,0.0,0.0,0.0,0.0,0.0,0.0,0.0,0.0,0.0,0.0,0.0,0.0,0.0,0.0,0.0,0.0,0.0,0.0,0.0,0.0,0.0,0.0,0.0,0.0,0.0,0.0,0.0,0.0,0.0,0.0,0.0,0.0,0.0,0.0,0.0,0.0,0.0,0.0,0.0,0.0,0.0,0.0,0.0,0.0,0.0,0.0,0.0,0.0,0.0,0.0,0.0,0.0,0.0,0.0,0.0,0.0,0.0,0.0,0.0,0.0,0.0,0.0,0.0,0.0,0.0,0.0,0.0,0.0,0.0,0.0,0.0,0.0,0.0,0.0,0.0,0.0,0.0,0.0,0.0,0.0,0.0,0.0,0.0,0.0,0.0,0.0,1.5411,1.6391,1.6699,1.6666,1.6242,1.5173,1.4173,0.0,0.0,0.0,0.0,0.0,0.0,0.0,0.0,0.0,0.0,0.0,0.0,0.0,0.0,0.0,0.0,0.0,0.0,0.0,0.0,0.0,0.0,0.0,0.0,0.0,0.0,0.0,0.0,0.0,0.0,0.0,0.0,0.0,0.0,0.0,0.0,0.0,0.0,0.0,0.0,0.0,0.0,0.0,0.0,0.0,0.0,0.0,0.0,1.3235,0.0,0.0,0.0,0.0,0.0,0.0,0.0,0.0,0.0,0.0,0.0,0.0,0.0,0.0,0.0,0.0,0.0,0.0,0.0,0.0,0.0,0.0,0.0,0.0,0.0,0.0,0.0,0.0,0.0,0.0,0.0,0.0,0.0,0.0,0.0,0.0,0.0,0.0,0.0,0.0,0.0,0.0,0.0,0.0,0.0,0.0,0.0,0.0,0.0,0.0,0.0,0.0,0.0,0.0,0.0,0.0,0.0,0.0,0.0,1.6185,1.6511,1.6927,1.6943,1.6526,1.5441,1.4427,0.0,0.0,0.0,0.0,0.0,0.0,0.0,0.0,0.0,0.0,0.0,0.0,0.0,0.0,0.0,0.0,0.0,0.0,0.0,0.0,0.0,0.0,0.0,0.0,0.0,0.0,0.0,0.0,0.0,0.0,0.0,0.0,0.0,0.0,0.0,0.0,0.0,0.0,0.0,0.0,0.0,0.0,0.0,0.0,0.0,0.0,0.0,0.0,0.0,0.0,0.0,0.0,0.0,0.0,0.0,0.0,0.0,0.0,0.0,0.0,0.0,0.0,0.0,0.0,0.0,0.0,0.0,0.0,0.0,0.0,0.0,0.0,0.0,0.0,0.0,0.0,0.0,0.0,0.0,0.0,0.0,0.0,0.0,0.0,0.0,0.0,0.0,0.0,0.0,0.0,0.0,0.0,0.0,0.0,0.0,0.0,0.0,0.0,0.0,0.0,0.0,0.0,0.0,0.0,0.0,0.0,0.0,1.6047,1.6829,1.6628,1.7146,1.725,1.6828,1.581,1.4809,1.3866,0.0,0.0,0.0,0.0,0.0,0.0,0.0,0.0,0.0,0.0,0.0,0.0,0.0,0.0,0.0,0.0,0.0,0.0,0.0,0.0,0.0,0.0,0.0,0.0,0.0,0.0,0.0,0.0,0.0,0.0,0.0,0.0,0.0,0.0,0.0,0.0,0.0,0.0,1.1969,1.3146,0.0,0.0,0.0,0.0,0.0,0.0,0.0,0.0,1.4109,0.0,0.0,0.0,0.0,0.0,0.0,0.0,0.0,0.0,0.0,0.0,0.0,0.0,0.0,0.0,0.0,0.0,0.0,0.0,0.0,0.0,0.0,0.0,0.0,0.0,0.0,0.0,0.0,0.0,0.0,0.0,0.0,0.0,0.0,0.0,0.0,0.0,0.0,0.0,0.0,0.0,0.0,0.0,0.0,0.0,0.0,0.0,0.0,0.0,0.0,0.0,0.0,0.0,0.0,0.0,0.0,1.6334,1.6008,1.6448,1.7847,1.7738,1.7438,1.6982,1.6288,1.535,1.4099,0.0,0.0,0.0,0.0,0.0,0.0,0.0,0.0,0.0,0.0,0.0,0.0,0.0,0.0,0.0,0.0,0.0,0.0,0.0,0.0,0.0,0.0,0.0,0.0,0.0,0.0,0.0,0.0,0.0,0.0,0.0,0.0,0.0,0.0,0.0,0.0,0.0,0.0,0.0,1.5106,1.5911,0.0,0.0,0.0,0.0,0.0,0.0,0.0,0.0,1.4103,0.0,0.0,0.0,0.0,0.0,0.0,0.0,0.0,0.0,0.0,0.0,0.0,0.0,0.0,0.0,0.0,0.0,0.0,0.0,0.0,0.0,0.0,0.0,0.0,0.0,0.0,0.0,0.0,0.0,0.0,0.0,0.0,0.0,0.0,0.0,0.0,0.0,0.0,0.0,0.0,0.0,0.0,0.0,0.0,0.0,0.0,0.0,0.0,0.0,0.0,0.0,0.0,0.0,0.0,0.0,1.5829,1.6479,1.7243,1.8156,1.8003,1.7733,1.7369,1.6333,1.5374,0.0,0.0,0.0,0.0,0.0,0.0,0.0,0.0,0.0,0.0,0.0,0.0,0.0,0.0,0.0,0.0,0.0,0.0,0.0,0.0,0.0,0.0,0.0,0.0,0.0,0.0,0.0,0.0,0.0,0.0,0.0,0.0,0.0,0.0,0.0,0.0,0.0,0.0,0.0,0.0,1.5469,1.5994,1.6387,0.0,0.0,0.0,0.0,0.0,0.0,1.4794,1.459,0.0,0.0,0.0,0.0,0.0,0.0,0.0,0.0,0.0,0.0,0.0,0.0,0.0,0.0,0.0,0.0,0.0,0.0,0.0,0.0,0.0,0.0,0.0,0.0,0.0,0.0,0.0,0.0,0.0,0.0,0.0,0.0,0.0,0.0,0.0,0.0,0.0,0.0,0.0,0.0,0.0,0.0,0.0,0.0,0.0,0.0,0.0,0.0,0.0,0.0,0.0,0.0,0.0,0.0,0.0,1.5042,1.6729,1.7835,1.822,1.8133,1.792,1.7592,1.628,1.53,0.0,0.0,0.0,0.0,0.0,0.0,0.0,0.0,0.0,0.0,0.0,0.0,0.0,0.0,0.0,0.0,0.0,0.0,0.0,0.0,0.0,0.0,0.0,0.0,0.0,0.0,0.0,0.0,0.0,0.0,0.0,0.0,0.0,0.0,0.0,0.0,0.0,0.0,0.0,0.0,0.0,1.6315,1.6851,1.728,0.0,0.0,0.0,0.0,1.6611,1.5867,0.0,0.0,0.0,0.0,0.0,0.0,0.0,0.0,0.0,0.0,0.0,0.0,0.0,0.0,0.0,0.0,0.0,0.0,0.0,0.0,0.0,0.0,0.0,0.0,0.0,0.0,0.0,0.0,0.0,0.0,0.0,0.0,0.0,0.0,0.0,0.0,0.0,0.0,0.0,0.0,0.0,0.0,0.0,0.0,0.0,0.0,0.0,0.0,0.0,0.0,0.0,0.0,0.0,0.0,0.0,0.0,1.5227,1.601,1.704,1.8274,1.8091,1.773,1.7351,1.6269,1.535,0.0,0.0,0.0,0.0,0.0,0.0,0.0,0.0,0.0,0.0,0.0,0.0,0.0,0.0,0.0,0.0,0.0,0.0,0.0,0.0,0.0,0.0,0.0,0.0,0.0,0.0,0.0,0.0,0.0,0.0,0.0,0.0,0.0,0.0,0.0,0.0,0.0,0.0,0.0,0.0,0.0,1.862,1.8695,1.8356,1.8066,0.0,0.0,1.7223,1.7286,1.6735,0.0,0.0,0.0,0.0,0.0,0.0,0.0,0.0,0.0,0.0,0.0,0.0,0.0,0.0,0.0,0.0,0.0,0.0,0.0,0.0,0.0,0.0,0.0,0.0,0.0,0.0,0.0,0.0,0.0,0.0,0.0,0.0,0.0,0.0,0.0,0.0,0.0,0.0,0.0,0.0,0.0,0.0,0.0,0.0,0.0,0.0,0.0,0.0,0.0,0.0,0.0,0.0,0.0,0.0,0.0,1.3764,1.5265,1.5893,1.696,1.8439,1.7959,1.7629,1.7535,1.6137,1.512,0.0,0.0,0.0,0.0,0.0,0.0,0.0,0.0,0.0,0.0,0.0,0.0,0.0,0.0,0.0,0.0,0.0,0.0,0.0,0.0,0.0,0.0,0.0,0.0,0.0,0.0,0.0,0.0,0.0,0.0,0.0,0.0,0.0,0.0,0.0,0.0,0.0,0.0,0.0,0.0,0.0,0.0,1.8907,1.907,0.0,0.0,0.0,1.8518,1.917,0.0,0.0,0.0,0.0,0.0,0.0,0.0,0.0,0.0,0.0,0.0,0.0,0.0,0.0,0.0,0.0,0.0,0.0,0.0,0.0,0.0,0.0,0.0,0.0,0.0,0.0,0.0,0.0,0.0,0.0,0.0,0.0,0.0,0.0,0.0,0.0,0.0,0.0,0.0,0.0,0.0,0.0,0.0,0.0,0.0,0.0,0.0,0.0,0.0,0.0,0.0,0.0,0.0,0.0,0.0,0.0,0.0,1.5231,1.6069,1.7142,1.8475,1.8108,1.7798,1.7672,1.6148,0.0,0.0,0.0,0.0,0.0,0.0,0.0,0.0,0.0,0.0,0.0,0.0,0.0,0.0,0.0,0.0,0.0,0.0,0.0,0.0,0.0,0.0,0.0,0.0,0.0,0.0,0.0,1.0365,0.0,0.0,0.0,0.0,0.0,0.0,0.0,0.0,0.0,0.0,0.0,0.0,0.0,0.0,1.8392,1.9484,1.9974,2.0213,0.0,0.0,1.9874,2.0578,1.9522,1.8543,0.0,0.0,0.0,0.0,0.0,0.0,0.0,0.0,0.0,0.0,0.0,0.0,0.0,0.0,0.0,0.0,0.0,0.0,0.0,0.0,0.0,0.0,0.0,0.0,0.0,0.0,0.0,0.0,0.0,0.0,0.0,0.0,0.0,0.0,0.0,0.0,0.0,0.0,0.0,0.0,0.0,0.0,0.0,0.0,0.0,0.0,0.0,0.0,0.0,0.0,0.0,0.0,0.0,0.0,0.0,1.5116,1.6508,1.7614,1.8392,1.8663,1.8448,1.7718,1.6549,1.5513,0.0,0.0,0.0,0.0,0.0,0.0,0.0,0.0,0.0,0.0,0.0,0.0,0.0,0.0,0.0,0.0,0.0,0.0,0.0,0.0,0.0,0.0,0.0,0.0,0.0,0.0,0.0,0.0,0.0,0.0,0.0,0.0,0.0,0.0,0.0,0.0,0.0,0.0,0.0,0.0,0.0,2.0049,2.1181,2.1369,2.1368,0.0,0.0,2.1193,2.0767,2.0151,1.9509,1.902,0.0,0.0,0.0,0.0,0.0,0.0,0.0,0.0,0.0,0.0,0.0,0.0,0.0,0.0,0.0,0.0,0.0,0.0,0.0,0.0,0.0,0.0,0.0,0.0,0.0,0.0,0.0,0.0,0.0,0.0,0.0,0.0,0.0,0.0,0.0,0.0,0.0,0.0,0.0,0.0,0.0,0.0,0.0,0.0,0.0,0.0,0.0,0.0,0.0,0.0,0.0,0.0,0.0,1.3768,1.5316,1.6508,1.7698,1.8822,1.8824,1.8524,1.8029,1.6973,1.5862,0.0,0.0,0.0,0.0,0.0,0.0,0.0,0.0,0.0,0.0,0.0,0.0,0.0,0.0,0.0,0.0,0.0,0.0,0.0,0.0,0.0,0.0,0.0,0.0,0.0,0.0,0.0,0.0,1.2203,1.2497,1.2826,0.0,0.0,0.0,0.0,0.0,0.0,0.0,0.0,0.0,0.0,2.0068,2.1165,2.1242,0.0,0.0,2.1551,2.1406,2.1655,2.0766,1.9914,1.9534,1.866,0.0,0.0,0.0,0.0,0.0,0.0,0.0,0.0,0.0,0.0,0.0,0.0,0.0,0.0,0.0,0.0,0.0,0.0,0.0,0.0,0.0,0.0,0.0,0.0,0.0,0.0,0.0,0.0,0.0,0.0,0.0,0.0,0.0,0.0,0.0,0.0,0.0,0.0,0.0,0.0,0.0,0.0,0.0,0.0,0.0,0.0,0.0,0.0,0.0,0.0,0.0,0.0,1.3991,1.5686,1.6789,1.7958,1.9167,1.9109,1.8836,1.8397,1.7417,1.6321,0.0,0.0,0.0,0.0,0.0,0.0,0.0,0.0,0.0,0.0,0.0,0.0,0.0,0.0,0.0,0.0,0.0,0.0,0.0,0.0,0.0,0.0,0.0,0.0,0.0,0.0,0.0,0.0,1.2597,1.2772,1.3148,0.0,0.0,0.0,0.0,0.0,0.0,0.0,0.0,0.0,0.0,2.0656,2.1518,2.1657,2.1847,2.2446,2.2135,2.2035,2.2479,2.1621,2.0754,2.0294,0.0,0.0,0.0,0.0,0.0,0.0,0.0,0.0,0.0,0.0,0.0,0.0,0.0,0.0,0.0,0.0,0.0,0.0,0.0,0.0,0.0,0.0,0.0,0.0,0.0,0.0,0.0,0.0,0.0,0.0,1.0361,0.0,0.0,0.0,0.0,0.0,0.0,0.0,0.0,0.0,0.0,0.0,0.0,0.0,0.0,0.0,0.0,0.0,0.0,0.0,0.0,0.0,0.0,1.4704,1.6185,1.7482,1.8506,1.9183,1.9641,1.9533,1.8871,1.7852,1.6926,1.6161,0.0,0.0,0.0,0.0,0.0,0.0,0.0,0.0,0.0,0.0,0.0,0.0,0.0,0.0,0.0,0.0,0.0,0.0,0.0,0.0,0.0,0.0,0.0,0.0,0.0,0.0,1.316,1.3185,1.3185,0.0,0.0,0.0,0.0,0.0,0.0,0.0,0.0,0.0,0.0,2.1079,2.2194,2.2613,2.2927,2.3189,2.3424,2.3399,2.3297,2.3095,2.2746,2.225,0.0,0.0,0.0,0.0,0.0,0.0,0.0,0.0,0.0,0.0,0.0,0.0,0.0,0.0,0.0,0.0,0.0,0.0,0.0,0.0,0.0,0.0,0.0,0.0,0.0,0.0,0.0,1.1583,1.1487,0.0,0.0,0.0,0.0,0.0,0.0,0.0,0.0,0.0,0.0,0.0,1.4169,1.4453,0.0,0.0,0.0,0.0,0.0,0.0,0.0,0.0,0.0,0.0,0.0,0.0,1.508,1.6444,1.7832,1.877,1.9257,1.9547,1.9408,1.8791,1.8422,1.7587,1.6212,0.0,0.0,0.0,0.0,0.0,0.0,0.0,0.0,0.0,0.0,0.0,0.0,0.0,0.0,0.0,0.0,0.0,0.0,0.0,0.0,0.0,0.0,0.0,0.0,0.0,1.3219,0.0,0.0,0.0,0.0,0.0,0.0,0.0,0.0,0.0,0.0,0.0,1.961,2.1241,2.1827,2.232,2.2943,2.3549,2.3871,0.0,0.0,0.0,0.0,0.0,0.0,0.0,0.0,0.0,0.0,0.0,0.0,0.0,0.0,2.3444,1.9911,1.897,1.8844,1.9221,0.0,0.0,0.0,0.0,0.0,0.0,0.0,0.0,0.0,0.0,0.0,0.0,0.0,0.0,0.0,0.0,1.2252,0.0,0.0,0.0,0.0,0.0,0.0,0.0,0.0,1.4596,1.4991,1.5375,1.5505,1.5752,0.0,1.6083,1.5709,0.0,0.0,0.0,0.0,0.0,0.0,0.0,0.0,1.5598,1.685,1.8159,1.9065,1.9521,1.9851,1.972,1.9162,1.8794,1.7838,1.6247,1.4884,1.394,0.0,0.0,0.0,0.0,0.0,0.0,0.0,0.0,0.0,0.0,0.0,0.0,0.0,0.0,0.0,0.0,0.0,0.0,0.0,0.0,0.0,0.0,0.0,1.3521,0.0,0.0,0.0,0.0,0.0,0.0,0.0,0.0,0.0,1.9196,1.9896,2.0841,2.2107,2.2562,2.2883,2.3168,0.0,0.0,0.0,0.0,0.0,0.0,0.0,2.2894,2.3481,2.3047,2.2863,2.3682,2.4127,2.4377,2.439,0.0,0.0,2.2194,2.1291,2.114,2.1467,2.1393,2.138,2.1758,2.2259,2.2749,0.0,0.0,0.0,0.0,0.0,0.0,0.0,0.0,1.3967,1.402,0.0,1.3418,0.0,0.0,0.0,0.0,0.0,1.4648,0.0,0.0,1.5958,1.6542,1.7179,1.7095,1.7318,1.783,1.7771,1.7654,1.7426,1.5779,0.0,0.0,0.0,0.0,0.0,0.0,1.6247,1.733,1.851,1.9408,1.9996,2.0439,2.0449,1.9982,1.895,1.7724,1.6349,1.6192,1.5488,1.4018,1.3428,0.0,0.0,0.0,0.0,0.0,0.0,0.0,0.0,0.0,0.0,0.0,0.0,0.0,0.0,0.0,0.0,0.0,0.0,0.0,0.0,1.417,0.0,0.0,0.0,0.0,0.0,0.0,0.0,0.0,0.0,0.0,1.9822,2.1535,2.2754,2.2453,0.0,0.0,0.0,0.0,2.3851,2.402,2.4014,2.413,2.4475,2.4348,2.413,2.3845,0.0,0.0,2.4205,2.4205,2.4353,2.432,2.5303,2.6082,2.6358,2.5402,2.4755,2.4759,2.4292,2.4048,2.4098,2.4417,2.4818,1.684,0.0,0.0,0.0,0.0,1.5439,1.5531,1.5722,1.5356,1.5209,1.5223,1.4861,0.0,0.0,0.0,0.0,0.0,0.0,1.6391,1.6852,1.7272,1.7685,1.8128,1.8095,1.8332,1.8865,1.8847,1.8741,1.8533,1.7766,1.6588,1.508,0.0,0.0,0.0,0.0,1.6811,1.8189,1.8992,1.9685,2.0287,2.0412,2.0284,1.9865,1.8917,1.805,1.7281,1.6584,1.5836,1.5066,1.4264,0.0,0.0,0.0,0.0,0.0,0.0,0.0,0.0,0.0,0.0,0.0,0.0,0.0,0.0,0.0,0.0,0.0,0.0,0.0,1.5173,1.559,1.598,0.0,0.0,0.0,0.0,0.0,0.0,0.0,0.0,0.0,2.2723,2.2552,2.2834,0.0,0.0,2.3781,2.3691,2.4673,2.5288,2.492,2.5481,0.0,0.0,2.4945,2.5064,2.5501,2.622,2.6491,2.5751,2.59,2.6172,2.628,2.6705,2.7102,2.7125,2.6655,2.6186,2.6124,2.5686,2.5447,2.5822,2.6045,2.626,1.883,1.7546,1.6758,1.6592,1.6844,1.6777,1.6863,1.7044,1.6833,1.6813,1.6894,1.656,1.6518,1.6664,1.6508,0.0,0.0,0.0,1.7594,1.7883,1.8311,1.8754,1.9158,1.9291,1.9638,2.0141,1.9975,1.9841,1.9708,1.9141,1.8204,1.6916,0.0,0.0,1.5922,1.646,1.7308,1.8469,1.9257,1.9943,2.0517,2.046,2.0279,2.0034,1.9143,1.8361,1.7704,1.7111,1.6413,1.5612,1.5046,1.4566,0.0,0.0,0.0,0.0,0.0,0.0,0.0,0.0,0.0,0.0,0.0,1.2758,0.0,0.0,0.0,0.0,1.4994,1.549,1.6595,1.6798,0.0,0.0,0.0,0.0,0.0,0.0,0.0,2.1862,2.2472,2.3231,2.4259,2.3718,2.3685,2.4977,2.4902,2.4702,2.4619,0.0,2.581,2.5441,2.5955,2.6143,2.5506,2.5466,2.5782,2.6482,2.6798,2.6911,2.669,2.665,2.678,2.7081,2.7255,2.7403,2.7608,2.7379,2.7148,2.7023,2.6735,2.6624,2.6961,2.7023,2.7121,2.0781,1.9961,1.8791,1.8225,1.8115,1.8239,1.8298,1.8308,1.8281,1.8537,1.8875,1.836,1.8313,1.8627,1.8274,0.0,1.8157,1.8568,1.8773,1.884,1.9297,1.98,2.0363,2.0599,2.1047,2.1566,2.1129,2.0917,2.0868,2.0091,1.948,1.9007,1.7787,1.7074,1.6888,1.7285,1.7805,1.8455,1.9452,2.021,2.0803,2.0527,2.0349,2.0349,1.9476,1.8593,1.7704,1.7626,1.7018,1.5825,1.5725,1.5248,1.4294,0.0,0.0,0.0,0.0,0.0,0.0,0.0,0.0,0.0,0.0,0.0,0.0,0.0,0.0,0.0,1.6084,0.0,1.8205,1.788,0.0,0.0,0.0,1.861,1.9603,2.0842,2.1551,2.1407,0.0,0.0,2.486,2.4992,2.5106,2.534,2.5889,2.6096,2.5723,2.5696,2.5734,2.5695,2.5761,2.5795,2.5799,2.595,2.6244,2.6854,2.6656,2.6597,2.6968,2.6772,2.6643,2.7101,2.7203,2.7375,2.7857,2.7989,2.7937,2.7733,2.7598,2.7531,2.7562,2.7568,2.7624,2.1611,2.1396,2.1094,2.0205,1.8994,1.901,1.9028,1.9028,1.9028,1.9115,1.9185,1.9051,1.9043,1.9131,1.9033,1.916,1.9464,1.9912,2.0293,2.0596,2.1084,2.1439,2.1719,2.1789,2.197,2.2241,2.214,2.201,2.182,2.1004,2.0463,2.0153,1.9231,1.8551,1.8169,1.8274,1.8799,1.9736,2.0,2.044,2.1071,2.04,2.0021,2.0003,1.8849,1.791,1.7346,1.7012,1.6585,1.6034,1.5749,1.5507,1.5244,1.5077,0.0,0.0,0.0,0.0,0.0,0.0,0.0,0.0,0.0,1.5456,1.5503,0.0,1.6344,0.0,1.7923,1.8523,1.9207,1.9415,0.0,0.0,2.0883,2.1241,2.2174,2.2451,2.2882,2.3742,2.4096,2.4732,2.5935,2.6112,2.6263,2.6651,2.6204,2.5743,2.5522,2.5782,2.595,2.5845,2.6107,2.6398,2.6373,2.6438,2.6511,2.6699,2.6739,2.6858,2.7111,2.7203,2.7329,2.7664,2.8002,2.8272,2.8392,2.8765,2.8983,2.892,2.8462,2.8047,2.8047,2.8157,2.8263,2.2334,2.2168,2.2168,2.1514,2.0439,2.0459,2.0459,2.0459,2.0468,2.0459,2.0439,2.0459,2.0459,2.0468,2.0459,2.0576,2.081,2.1065,2.1289,2.1513,2.1777,2.2035,2.2325,2.2451,2.2664,2.2938,2.2769,2.2627,2.2483,2.1717,2.1282,2.1153,2.0488,2.001,1.9748,1.9201,1.9312,2.0043,2.0354,2.0734,2.1156,2.034,1.9897,1.9885,1.8586,1.768,1.721,1.6804,1.6421,1.6039,1.5893,1.5725,1.5521,1.5833,1.5711,0.0,0.0,0.0,0.0,0.0,0.0,0.0,0.0,0.0,0.0,0.0,1.7855,1.8995,1.9303,1.9733,2.0512,2.0704,2.1202,2.2186,2.2204,2.2514,2.3412,2.3539,2.3884,2.4687,2.5005,2.5402,2.6089,2.6396,2.6623,2.691,2.6455,2.6083,2.6075,2.623,2.6278,2.619,2.6403,2.6603,2.6603,2.6603,2.6603,2.6614,2.6877,2.7116,2.723,2.7527,2.7781,2.7941,2.8169,2.832,2.8343,2.856,2.88,2.8881,2.868,2.8515,2.8687,2.8831,2.8904,2.3013,2.2654,2.2676,2.2432,2.2041,2.2041,2.2013,2.1915,2.1915,2.1915,2.1915,2.1915,2.1915,2.1915,2.1915,2.1935,2.1963,2.1984,2.2023,2.2041,2.2072,2.2236,2.2588,2.2811,2.3104,2.3408,2.3105,2.2927,2.2907,2.2282,2.1993,2.1943,2.1513,2.1268,2.1249,2.0185,1.9765,2.0,2.0564,2.0945,2.1099,2.0285,1.9785,1.9685,1.8439,1.7536,1.7083,1.6653,1.6296,1.5901,1.5995,1.5857,1.5474,1.6478,1.6625,0.0,1.6649,0.0,0.0,0.0,0.0,0.0,0.0,0.0,0.0,1.8425,1.9382,2.0286,2.0468,2.0905,2.1804,2.1801,2.2053,2.2902,2.291,2.3161,2.3933,2.4315,2.466,2.4982,2.5646,2.6012,2.5974,2.6324,2.6603,2.6635,2.6627,2.6636,2.6815,2.6655,2.6498,2.6598,2.6645,2.6759,2.6737,2.6713,2.6713,2.6735,2.7058,2.7348,2.7348,2.7716,2.7974,2.8007,2.8084,2.8141,2.8108,2.8175,2.8308,2.8606,2.8747,2.8916,2.9184,2.9317,2.939,2.3935,2.3577,2.3567,2.3301,2.2888,2.2857,2.251,2.1915,2.1915,2.1915,2.1915,2.1915,2.1915,2.1915,2.1915,2.2101,2.2371,2.2381,2.2557,2.2879,2.2888,2.2906,2.2996,2.3049,2.31,2.3178,2.311,2.3071,2.3051,2.2598,2.2393,2.2383,2.1973,2.1758,2.1748,0.0,0.0,0.0,2.0595,2.0683,2.0673,1.9838,1.9229,1.8821,1.7602,0.0,1.6323,1.5861,1.5669,1.574,1.5769,0.0,0.0,0.0,0.0,0.0,0.0,0.0,0.0,0.0,0.0,0.0,2.0056,1.9933,1.9679,2.0585,2.1213,2.1263,2.1931,2.2395,2.2448,2.2728,2.3098,2.3643,2.3921,2.4245,2.4669,2.4964,2.5242,2.5585,2.577,2.6008,2.6369,2.6547,2.6582,2.6606,2.6719,2.6846,2.69,2.6579,2.6364,2.6558,2.692,2.7162,2.7184,2.714,2.7107,2.7228,2.7414,2.7601,2.7612,2.7788,2.8008,2.8042,2.8321,2.8556,2.8556,2.8914,2.9127,2.9262,2.9308,2.9308,2.9124,2.9262,2.939,2.3948,0.0,2.3733,2.3666,0.0,2.3545,2.3392,2.3105,2.2664,2.25,2.2479,2.251,2.25,2.25,2.2479,2.2596,2.2791,2.2801,2.3035,2.3457,2.3445,2.3552,2.3757,2.3747,2.3747,2.3747,2.3737,2.3737,2.3728,2.335,2.3144,2.3135,2.251,2.2197,2.2187,2.2013,2.1562,2.0898,2.0693,2.0596,2.0586,1.9922,1.9376,1.8927,0.0,0.0,0.0,0.0,0.0,0.0,0.0,0.0,0.0,0.0,0.0,1.7644,1.8605,1.9336,1.9717,2.0263,2.0779,2.1248,2.1776,2.1924,2.1571,2.194,2.2238,2.2365,2.299,2.3426,2.3511,2.3834,2.4191,2.4538,2.4658,2.4873,2.5265,2.5473,2.5672,2.5937,2.5987,2.6067,2.6217,2.6271,2.6361,2.6561,2.6687,2.6855,2.703,2.6909,2.6801,2.6933,2.713,2.7249,2.7182,2.716,2.7093,2.7027,2.7255,2.7474,2.7518,2.7793,2.8059,2.8171,2.8414,2.858,2.8717,2.8985,2.9186,2.9255,2.9301,2.9316,2.9216,2.937,2.9459,2.3867,2.3824,2.381,2.3851,2.3928,2.3951,2.409,2.4273,0.0,0.0,0.0,2.3315,2.3315,2.3325,2.3325,2.3315,2.3347,2.3325,2.3532,2.3896,2.3906,2.4082,2.4414,2.4424,2.4424,2.4424,2.4424,2.4424,2.4404,2.4062,2.3896,2.3838,2.3184,2.2791,2.2715,2.2246,2.1826,2.1445,2.1045,2.0801,2.0703,2.0254,1.9804,1.9297,1.8525,1.7907,1.7458,1.7063,1.6838,1.6807,1.7024,1.7185,1.7232,1.8196,1.8914,1.9258,2.0423,2.1177,2.1357,2.1734,2.2164,2.2654,2.3168,2.3303,2.2985,2.2925,2.3055,2.3319,2.3834,2.4245,2.4498,2.4734,2.5032,2.5354,2.5153,2.5227,2.5726,2.5723,2.5735,2.5986,2.5978,2.6002,2.5942,2.5922,2.6085,2.6509,2.6704,2.6889,2.7291,2.7379,2.7303,2.7268,2.7387,2.7375,2.7252,2.7227,2.7084,2.7023,2.7244,2.7411,2.7464,2.7742,2.806,2.8238,2.8324,2.842,2.8606,2.8653,2.8734,2.8885,2.8885,2.8955,2.9186,2.9278,2.9303,2.4514,2.4226,2.4217,2.4032,2.3733,2.3733,2.3854,2.4071,2.4172,2.4215,2.4215,2.4215,2.4215,2.4206,2.4238,2.4215,2.4215,2.4215,2.4254,0.0,2.4303,2.4355,2.4414,2.4424,2.4424,2.4424,2.4424,2.4424,2.4414,2.4342,2.4303,2.4316,2.4186,2.3955,2.3574,2.2822,2.2371,2.2324,2.1914,2.1523,2.1123,2.0732,2.0107,1.9335,1.881,1.8215,1.7596,1.7517,1.7396,1.7236,1.7574,1.7849,1.8057,1.8931,1.9781,2.0506,2.1156,2.1777,2.2345,2.2476,2.2897,2.3752,2.415,2.3992,2.3262,2.3764,2.4093,2.4018,2.4644,2.5046,2.4944,2.4962,2.5203,2.5612,2.5337,2.5301,2.5772,2.5524,2.5325,2.5401,2.5348,2.5541,2.5851,2.5936,2.6118,2.6533,2.6963,2.7345,2.7691,2.7754,2.7562,2.7412,2.7654,2.7857,2.777,2.7832,2.7744,2.7819,2.7772,2.7802,2.7768,2.7876,2.7974,2.8045,2.8045,2.8092,2.8139,2.8115,2.8186,2.8222,2.8256,2.8245,2.8315,2.8466,2.878,2.4411,2.4253,2.4244,2.4214,2.4142,2.4277,2.4387,2.4498,2.4617,2.4562,2.441,2.4424,2.4424,2.4424,2.4424,2.4424,2.4424,2.4424,2.4528,2.4779,2.4775,2.4902,2.5093,2.5113,2.5103,2.5113,2.5113,2.5103,2.5093,2.4893,2.4775,2.4756,2.4531,2.4293,2.4121,2.3718,2.3437,2.3184,2.2334,2.1808,2.1592,2.1508,2.1066,2.0218,2.0036,1.9648,1.8878,1.8856,1.8807,1.8701,1.9005,1.9185,1.9291,1.9878,2.0579,2.1406,2.2024,2.2691,2.346,2.3749,2.4107,2.4551,2.4712,2.4615,2.4233,2.4519,2.4668,2.4627,2.5185,2.5424,2.5105,2.5317,2.55,2.5462,2.5266,2.5259,2.5453,2.5348,2.5221,2.5221,2.5424,2.5668,2.5859,2.6126,2.6477,2.6922,2.7379,2.7728,2.7778,2.7721,2.7655,2.7677,2.787,2.7919,2.7809,2.7796,2.7749,2.7644,2.762,2.7631,2.7631,2.7631,2.7678,2.7773,2.7762,2.7833,2.794,2.7987,2.7987,2.7987,2.7987,2.7987,2.8011,2.8092,2.8396,2.4078,2.4019,2.4028,2.4152,2.4365,2.4587,2.4711,2.4809,2.4799,2.4707,2.4531,2.4577,2.4647,2.4693,2.4693,2.4693,2.4693,2.4693,2.4893,2.5185,2.5248,2.541,2.5679,2.5708,2.5708,2.5708,2.5708,2.5708,2.5669,2.5381,2.5239,2.5166,2.4785,2.457,2.456,2.4463,2.4258,2.3954,2.2948,2.231,2.2145,2.2333,2.2068,2.1352,2.1438,2.1191,2.0452,2.041,2.0378,2.0352,2.0581,2.0716,2.0734,2.11,2.1639,2.2306,2.2878,2.3474,2.4125,2.4628,2.4882,2.4893,2.4993,2.5057,2.5037,2.5037,2.5041,2.5067,2.5396,2.5491,2.5247,2.5467,2.5591,2.5264,2.5158,2.52,2.5253,2.5232,2.5263,2.5369,2.5697,2.5918,2.6077,2.6362,2.6741,2.7216,2.7632,2.7728,2.7584,2.7536,2.7631,2.7762,2.7857,2.7739,2.756,2.7536,2.7465,2.7309,2.7344,2.7357,2.7333,2.7309,2.7357,2.7513,2.7536,2.7607,2.7786,2.7809,2.7809,2.7786,2.7786,2.7833,2.7857,2.788,2.8068,2.3705,2.3506,2.3506,2.363,2.3879,2.3895,2.4168,2.4504,2.4529,2.4673,2.4819,2.5086,2.531,2.5567,2.5547,2.5518,2.5552,2.5581,2.5591,2.562,2.565,2.5669,2.5708,2.5708,2.5708,2.5708,2.5708,2.5708,2.5708,2.5659,2.564,2.5601,2.5248,2.5024,2.4994,2.4629,2.4506,2.4687,2.4182,2.3539,2.288,2.301,2.2894,2.2463,2.2453,2.2332,2.1952,2.2002,2.1875,2.168,2.2028,2.2274,2.2325,2.2885,2.3264,2.3336,2.3598,2.3781,2.3885,2.4281,2.4589,2.457,2.4952,2.5187,2.5166,2.5188,2.5162,2.5161,2.5204,2.5262,2.5221,2.5285,2.5296,2.5222,2.5094,2.5082,2.545,2.5336,2.536,2.5777,2.5885,2.6059,2.6439,2.6606,2.6822,2.723,2.7379,2.7452,2.7381,2.7367,2.7381,2.7404,2.7381,2.7404,2.7357,2.7333,2.7333,2.732,2.732,2.732,2.732,2.732,2.7333,2.7357,2.7357,2.7404,2.7404,2.7381,2.7404,2.7465,2.7465,2.7441,2.7584,2.7655,2.7796,2.3497,2.3406,2.3406,2.3447,2.3546,2.3555,2.3746,2.4069,2.4093,2.4282,2.4661,2.4784,2.5064,2.5465,2.5465,2.5538,2.5693,2.5708,2.5708,2.5708,2.5708,2.5708,2.5708,2.5708,2.5708,2.5708,2.5708,2.5708,2.5708,2.5708,2.5708,2.5674,2.5513,2.5459,2.5449,2.5269,2.5196,2.5212,2.5149,2.4897,2.4492,2.4034,2.359,2.3194,2.3278,2.3176,2.2846,2.2784,2.2742,2.2656,2.2831,2.2904,2.2904,2.3171,2.3511,2.3895,2.4374,2.4636,2.4626,2.4796,2.4924,2.4934,2.5083,2.5221,2.52,2.5084,2.5105,2.5338,2.5285,2.5158,2.5062,2.5284,2.5367,2.5268,2.5358,2.5565,2.5743,2.5673,2.5709,2.5897,2.6146,2.6364,2.6592,2.6864,2.7081,2.7289,2.732,2.732,2.732,2.732,2.732,2.732,2.732,2.732,2.732,2.732,2.732,2.732,2.732,2.732,2.732,2.732,2.732,2.732,2.732,2.732,2.7344,2.732,2.732,2.732,2.732,2.7333,2.7428,2.7428,2.7489,2.3046,2.2962,2.3013,2.3097,2.3138,2.3247,2.3447,2.3671,2.3771,2.3994,2.4316,2.4381,2.4661,2.5054,2.5235,2.5416,2.5562,2.5659,2.5708,2.5708,2.5708,2.5708,2.5708,2.5708,2.5708,2.5708,2.5708,2.5708,2.5708,2.5708,2.5708,2.5708,2.5708,2.5708,2.5708,2.5757,2.5817,2.5773,2.5856,2.5901,2.5767,2.5083,2.4457,2.4016,2.4031,2.3898,2.3577,2.3557,2.3557,2.3557,2.3557,2.3557,2.3536,2.3557,2.3774,2.4263,2.4724,2.5009,2.502,2.5009,2.502,2.502,2.5115,2.521,2.5199,2.5165,2.532,2.5604,2.5492,2.5335,2.5237,2.5477,2.5577,2.5452,2.5709,2.5929,2.6063,2.6094,2.6156,2.6304,2.6612,2.6812,2.6843,2.7081,2.7299,2.7309,2.732,2.732,2.732,2.732,2.732,2.732,2.732,2.732,2.732,2.732,2.732,2.732,2.732,2.732,2.732,2.732,2.732,2.732,2.732,2.732,2.732,2.732,2.732,2.732,2.732,2.732,2.7344,2.7309,2.7309,2.2249,2.1878,2.2047,2.2325,2.256,2.2862,2.3147,2.3388,2.3655,2.3795,2.3895,2.4093,2.4316,2.4587,2.5039,2.5308,2.5367,2.5562,2.5684,2.5708,2.5708,2.5708,2.5708,2.5708,2.5708,2.5708,2.5708,2.5708,2.5708,2.5708,2.5708,2.5708,2.5708,2.5708,2.5757,2.5955,2.6187,2.6372,2.6286,2.631,2.6473,2.6061,2.5563,2.5115,2.4693,2.4445,2.4394,2.4425,2.4436,2.4414,2.4383,2.4404,2.4414,2.4404,2.4425,2.4498,2.4519,2.455,2.4582,2.4624,2.4613,2.4654,2.505,2.5224,2.5278,2.5559,2.5797,2.5889,2.5892,2.5861,2.588,2.5913,2.5911,2.5877,2.5918,2.6156,2.6542,2.656,2.6801,2.7071,2.7185,2.7206,2.7237,2.7278,2.7309,2.732,2.732,2.732,2.732,2.732,2.732,2.732,2.732,2.732,2.732,2.732,2.732,2.732,2.732,2.732,2.732,2.732,2.732,2.732,2.732,2.732,2.732,2.732,2.732,2.732,2.732,2.732,2.732,2.732,2.732,2.1878,2.17,2.1801,2.1895,2.2004,2.2283,2.2585,2.2837,2.3147,2.3506,2.378,2.3904,2.4069,2.4316,2.4637,2.4981,2.5284,2.5391,2.5538,2.5684,2.5708,2.5708,2.5708,2.5708,2.5708,2.5708,2.5708,2.5708,2.5708,2.5708,2.5708,2.5708,2.5708,2.5791,2.5941,2.6042,2.6328,2.6688,2.6679,2.6764,2.6962,2.6581,2.626,2.6051,2.5346,2.4807,2.4507,2.4507,2.4507,2.4507,2.4507,2.4507,2.4507,2.4507,2.4507,2.4507,2.4507,2.4621,2.4911,2.4931,2.5065,2.5388,2.5544,2.567,2.5668,2.5825,2.6011,2.626,2.6366,2.6447,2.6664,2.6529,2.6343,2.6374,2.6612,2.6832,2.7009,2.7061,2.7109,2.7278,2.732,2.732,2.732,2.732,2.732,2.732,2.732,2.732,2.732,2.732,2.732,2.732,2.732,2.732,2.732,2.732,2.732,2.732,2.732,2.732,2.732,2.732,2.732,2.732,2.732,2.732,2.732,2.732,2.732,2.732,2.732,2.732,2.732,2.732,2.732,2.1453,2.1453,2.1547,2.1581,2.1598,2.1852,2.2123,2.2426,2.2849,2.3289,2.3686,2.402,2.4251,2.4434,2.4534,2.4867,2.5343,2.5336,2.5465,2.5659,2.5708,2.5708,2.5708,2.5708,2.5708,2.5708,2.5708,2.5708,2.5708,2.5708,2.5708,2.5708,2.5781,2.5917,2.61,2.6259,2.6554,2.6853,2.6962,2.7129,2.7244,2.6975,2.6726,2.6529,2.5968,2.5346,2.4755,2.4724,2.4663,2.4528,2.4507,2.4559,2.4704,2.4724,2.4786,2.4922,2.4963,2.5077,2.5378,2.5418,2.5575,2.5877,2.6053,2.6125,2.6136,2.625,2.6498,2.676,2.6843,2.6975,2.713,2.6985,2.6843,2.6851,2.7099,2.7309,2.732,2.7309,2.7299,2.7309,2.732,2.732,2.732,2.732,2.732,2.732,2.732,2.732,2.732,2.732,2.732,2.732,2.732,2.732,2.732,2.732,2.732,2.732,2.732,2.732,2.732,2.732,2.732,2.732,2.732,2.732,2.732,2.732,2.732,2.732,2.732,2.732,2.732,2.732,2.732,2.0948,2.1006,2.1189,2.1373,2.1449,2.1679,2.1902,2.2265,2.2843,2.3272,2.3702,2.4417,2.4775,2.4853,2.4827,2.508,2.544,2.5424,2.5493,2.5703,2.5708,2.5708,2.5708,2.5708,2.5708,2.5708,2.5708,2.5708,2.5708,2.5732,2.5732,2.5757,2.598,2.6149,2.6125,2.6602,2.6877,2.6972,2.7153,2.7286,2.7309,2.7268,2.7061,2.6685,2.6571,2.6156,2.5284,2.5222,2.5035,2.4652,2.459,2.4745,2.5149,2.5211,2.5387,2.5699,2.5846,2.5866,2.5897,2.5918,2.5918,2.6105,2.6374,2.6592,2.6643,2.6946,2.7185,2.7216,2.7237,2.7299,2.7299,2.7268,2.7213,2.7299,2.7299,2.7309,2.732,2.732,2.732,2.732,2.732,2.732,2.732,2.732,2.732,2.732,2.732,2.732,2.732,2.732,2.732,2.732,2.732,2.732,2.732,2.732,2.732,2.732,2.732,2.732,2.732,2.732,2.732,2.732,2.732,2.732,2.732,2.732,2.732,2.732,2.732,2.732,2.732,2.732,2.732,2.1526,2.1366,2.1658,2.1791,2.1791,2.2071,2.2327,2.2599,2.3013,2.345,2.394,2.4403,2.4718,2.4944,2.5095,2.5395,2.5701,2.5831,2.585,2.5732,2.5693,2.5718,2.5708,2.5708,2.5708,2.5708,2.5708,2.5708,2.5732,2.5868,2.598,2.6038,2.6255,2.6472,2.6616,2.6829,2.6972,2.7177,2.7262,2.732,2.732,2.732,2.7237,2.7112,2.7092,2.6778,2.6208,2.5844,2.5616,2.544,2.5461,2.5533,2.5647,2.5678,2.5751,2.5887,2.5908,2.6063,2.6333,2.6384,2.6509,2.6788,2.7019,2.7058,2.7068,2.7206,2.732,2.732,2.732,2.732,2.732,2.732,2.732,2.732,2.732,2.732,2.732,2.732,2.732,2.732,2.732,2.732,2.732,2.732,2.732,2.732,2.732,2.732,2.732,2.732,2.732,2.732,2.732,2.732,2.732,2.732,2.732,2.732,2.732,2.732,2.732,2.732,2.732,2.732,2.732,2.732,2.732,2.732,2.732,2.732,2.732,2.732,2.732,2.732,2.732,2.1553,2.1383,2.1688,2.1823,2.185,2.2135,2.2395,2.2714,2.3114,2.3558,2.403,2.4676,2.5023,2.5236,2.5498,2.5784,2.6018,2.6163,2.6152,2.6032,2.5976,2.5884,2.5737,2.5708,2.5708,2.5708,2.5708,2.5757,2.5844,2.6004,2.6149,2.6269,2.6496,2.6723,2.689,2.702,2.7153,2.7286,2.732,2.732,2.732,2.732,2.732,2.7309,2.732,2.713,2.6864,2.656,2.625,2.598,2.5908,2.597,2.6125,2.6167,2.6229,2.6384,2.6459,2.6594,2.6832,2.6851,2.6954,2.7258,2.732,2.7309,2.7309,2.732,2.732,2.732,2.732,2.732,2.732,2.732,2.732,2.732,2.732,2.732,2.732,2.732,2.732,2.732,2.732,2.732,2.732,2.732,2.732,2.732,2.732,2.732,2.732,2.732,2.732,2.732,2.732,2.732,2.732,2.732,2.732,2.732,2.732,2.732,2.732,2.732,2.732,2.732,2.732,2.732,2.732,2.732,2.732,2.732,2.732,2.732,2.732,2.732,2.732,2.1162,2.1182,2.1453,2.1662,2.1689,2.1995,2.2352,2.2611,2.3171,2.3647,2.4124,2.5103,2.5608,2.5719,2.5909,2.6164,2.6365,2.6418,2.6443,2.6516,2.6509,2.6309,2.5874,2.5757,2.5708,2.5708,2.5708,2.583,2.6028,2.6125,2.6255,2.652,2.677,2.6924,2.6996,2.7167,2.7296,2.7309,2.732,2.732,2.732,2.732,2.732,2.732,2.7309,2.7289,2.7237,2.7175,2.6832,2.6136,2.6105,2.6281,2.655,2.6623,2.6832,2.7154,2.7278,2.7237,2.7289,2.7237,2.7258,2.7299,2.732,2.732,2.732,2.732,2.732,2.732,2.732,2.732,2.732,2.732,2.732,2.732,2.732,2.732,2.732,2.732,2.732,2.732,2.732,2.732,2.732,2.732,2.732,2.732,2.732,2.732,2.732,2.732,2.732,2.732,2.732,2.732,2.732,2.732,2.732,2.732,2.732,2.732,2.732,2.732,2.732,2.732,2.732,2.732,2.732,2.732,2.732,2.732,2.732,2.732,2.732,2.732,2.732,2.1736,2.1596,2.2101,2.2297,2.2353,2.2624,2.3042,2.3474,2.3659,2.4025,2.4637,2.536,2.5706,2.5743,2.6218,2.6471,2.6596,2.6915,2.6911,2.6848,2.7195,2.6894,2.626,2.5864,2.5718,2.5693,2.5732,2.5854,2.61,2.6304,2.652,2.6794,2.7034,2.719,2.7225,2.7262,2.7309,2.732,2.732,2.732,2.732,2.732,2.732,2.732,2.732,2.732,2.732,2.732,2.7213,2.6998,2.6913,2.6978,2.7071,2.7102,2.7154,2.7268,2.732,2.732,2.732,2.732,2.732,2.732,2.732,2.732,2.732,2.732,2.732,2.732,2.732,2.732,2.732,2.732,2.732,2.732,2.732,2.732,2.732,2.732,2.732,2.732,2.732,2.732,2.732,2.732,2.732,2.732,2.732,2.732,2.732,2.732,2.732,2.732,2.732,2.732,2.732,2.732,2.732,2.732,2.732,2.732,2.732,2.732,2.732,2.732,2.732,2.732,2.732,2.732,2.732,2.732,2.732,2.732,2.732,2.732,2.732,2.1717,2.1753,2.218,2.2485,2.2626,2.2881,2.3267,2.3697,2.3857,2.4181,2.4701,2.5385,2.5706,2.5761,2.6327,2.6609,2.6664,2.7161,2.7272,2.7171,2.7498,2.7168,2.6494,2.6094,2.5893,2.5718,2.5805,2.6014,2.6279,2.653,2.6805,2.7058,2.7214,2.732,2.7296,2.732,2.732,2.732,2.732,2.732,2.732,2.732,2.732,2.732,2.732,2.732,2.732,2.732,2.7309,2.7299,2.7309,2.732,2.732,2.732,2.732,2.732,2.732,2.732,2.732,2.732,2.732,2.732,2.732,2.732,2.732,2.732,2.732,2.732,2.732,2.732,2.732,2.732,2.732,2.732,2.732,2.732,2.732,2.732,2.732,2.732,2.732,2.732,2.732,2.732,2.732,2.732,2.732,2.732,2.732,2.732,2.732,2.732,2.732,2.732,2.732,2.732,2.732,2.732,2.732,2.732,2.732,2.732,2.732,2.732,2.732,2.732,2.732,2.732,2.732,2.732,2.732,2.732,2.732,2.732,2.732,2.1382,2.1725,2.2002,2.2279,2.2634,2.2873,2.3239,2.3556,2.3809,2.4144,2.4646,2.5357,2.5706,2.5761,2.6364,2.6618,2.6636,2.7171,2.7431,2.7558,2.7689,2.7399,2.6754,2.6441,2.6162,2.5889,2.6005,2.6197,2.6448,2.6747,2.701,2.719,2.7286,2.7309,2.732,2.732,2.732,2.732,2.732,2.732,2.732,2.732,2.732,2.732,2.732,2.732,2.732,2.732,2.732,2.732,2.732,2.732,2.732,2.732,2.732,2.732,2.732,2.732,2.732,2.732,2.732,2.732,2.732,2.732,2.732,2.732,2.732,2.732,2.732,2.732,2.732,2.732,2.732,2.732,2.732,2.732,2.732,2.732,2.732,2.732,2.732,2.732,2.732,2.732,2.732,2.732,2.732,2.732,2.732,2.732,2.732,2.732,2.732,2.732,2.732,2.732,2.732,2.732,2.732,2.732,2.732,2.732,2.732,2.732,2.732,2.732,2.732,2.732,2.732,2.732,2.732,2.732,2.732,2.732,2.732,2.1382,2.1725,2.1974,2.2286,2.2626,2.2873,2.3324,2.3809,2.3857,2.4331,2.4981,2.5514,2.5798,2.6044,2.6391,2.6618,2.6664,2.7171,2.7647,2.8111,2.8143,2.7907,2.733,2.6812,2.6367,2.6211,2.6128,2.6231,2.6496,2.6794,2.7044,2.7262,2.732,2.732,2.732,2.732,2.732,2.732,2.732,2.732,2.732,2.732,2.732,2.732,2.732,2.732,2.732,2.732,2.732,2.732,2.732,2.732,2.732,2.732,2.732,2.732,2.732,2.732,2.732,2.732,2.732,2.732,2.732,2.732,2.732,2.732,2.732,2.732,2.732,2.732,2.732,2.732,2.732,2.732,2.732,2.732,2.732,2.732,2.732,2.732,2.732,2.732,2.732,2.732,2.732,2.732,2.732,2.732,2.732,2.732,2.732,2.732,2.732,2.732,2.732,2.732,2.732,2.732,2.732,2.732,2.732,2.732,2.732,2.732,2.732,2.732,2.732,2.732,2.732,2.732,2.732,2.732,2.732,2.732,2.732,2.1611,2.1924,2.2201,2.2513,2.2788,2.3135,2.35,2.3885,2.4061,2.4526,2.5146,2.5541,2.5852,2.6127,2.6446,2.6618,2.6718,2.7161,2.7728,2.8157,2.8281,2.8174,2.7946,2.733,2.6851,2.6476,2.6319,2.6396,2.6568,2.6866,2.7167,2.7286,2.732,2.732,2.732,2.732,2.732,2.732,2.732,2.732,2.732,2.732,2.732,2.732,2.732,2.732,2.732,2.732,2.732,2.732,2.732,2.732,2.732,2.732,2.732,2.732,2.732,2.732,2.732,2.732,2.732,2.732,2.732,2.732,2.732,2.732,2.732,2.732,2.732,2.732,2.732,2.732,2.732,2.732,2.732,2.732,2.732,2.732,2.732,2.732,2.732,2.732,2.732,2.732,2.732,2.732,2.732,2.732,2.732,2.732,2.732,2.732,2.732,2.732,2.732,2.732,2.732,2.732,2.732,2.732,2.732,2.732,2.732,2.732,2.732,2.732,2.732,2.732,2.732,2.732,2.732,2.732,2.732,2.732,2.732,2.1867,2.2108,2.2456,2.274,2.3042,2.336,2.3641,2.3921,2.4312,2.4776,2.5257,2.5624,2.5962,2.6218,2.6473,2.6609,2.6872,2.7242,2.7835,2.8237,2.8301,2.8271,2.8115,2.7761,2.7317,2.6647,2.6546,2.655,2.6637,2.6942,2.719,2.7296,2.732,2.732,2.732,2.732,2.732,2.732,2.732,2.732,2.732,2.732,2.732,2.732,2.732,2.732,2.732,2.732,2.732,2.732,2.732,2.732,2.732,2.732,2.732,2.732,2.732,2.732,2.732,2.732,2.732,2.732,2.732,2.732,2.732,2.732,2.732,2.732,2.732,2.732,2.732,2.732,2.732,2.732,2.732,2.732,2.732,2.732,2.732,2.732,2.732,2.732,2.732,2.732,2.732,2.732,2.732,2.732,2.732,2.732,2.732,2.732,2.732,2.732,2.732,2.732,2.732,2.732,2.732,2.732,2.732,2.732,2.732,2.732,2.732,2.732,2.732,2.732,2.732,2.732,2.732,2.732,2.732,2.732,2.732,2.1867,2.2108,2.2456,2.2768,2.3022,2.336,2.3669,2.3968,2.449,2.5064,2.5605,2.5898,2.619,2.6446,2.6555,2.6827,2.7198,2.7593,2.797,2.8264,2.8301,2.8301,2.8213,2.7956,2.7614,2.7388,2.7051,2.6728,2.6641,2.6818,2.7095,2.7272,2.732,2.732,2.732,2.732,2.732,2.732,2.732,2.732,2.732,2.732,2.732,2.732,2.732,2.732,2.732,2.732,2.732,2.732,2.732,2.732,2.732,2.732,2.732,2.732,2.732,2.732,2.732,2.732,2.732,2.732,2.732,2.7309,2.7309,2.7344,2.7357,2.7381,2.7357,2.7333,2.732,2.7381,2.7333,2.7333,2.7333,2.7309,2.732,2.732,2.732,2.732,2.732,2.732,2.732,2.732,2.732,2.732,2.732,2.732,2.732,2.732,2.732,2.732,2.732,2.732,2.732,2.732,2.732,2.732,2.732,2.732,2.732,2.732,2.732,2.732,2.732,2.732,2.732,2.732,2.732,2.732,2.732,2.732,2.732,2.732,2.732,2.1974,2.2137,2.259,2.2986,2.3275,2.3585,2.3865,2.4228,2.4768,2.5257,2.5679,2.599,2.6263,2.6527,2.6618,2.6909,2.7377,2.7745,2.804,2.8237,2.8301,2.8301,2.8301,2.8047,2.7878,2.7669,2.7367,2.7067,2.6844,2.6848,2.7064,2.7248,2.732,2.732,2.732,2.732,2.732,2.732,2.732,2.732,2.732,2.732,2.732,2.732,2.732,2.732,2.732,2.732,2.732,2.732,2.732,2.732,2.732,2.732,2.732,2.732,2.732,2.732,2.732,2.732,2.732,2.732,2.732,2.7357,2.7418,2.7465,2.7489,2.7607,2.7678,2.7678,2.7678,2.7655,2.7607,2.7476,2.7441,2.7418,2.7357,2.7344,2.7333,2.7357,2.7333,2.7333,2.732,2.732,2.732,2.732,2.732,2.7344,2.7357,2.7381,2.7404,2.7381,2.7381,2.7357,2.7333,2.732,2.732,2.732,2.732,2.732,2.732,2.732,2.732,2.732,2.732,2.732,2.732,2.732,2.732,2.732,2.732,2.732,2.732,2.732,2.732,2.2144,2.2258,2.2796,2.3191,2.35,2.3773,2.4116,2.4535,2.5072,2.5486,2.5798,2.6072,2.6354,2.6582,2.6773,2.7035,2.7449,2.7772,2.8094,2.8237,2.8301,2.8301,2.8301,2.8262,2.8115,2.7907,2.766,2.7464,2.7017,2.696,2.7071,2.7174,2.7248,2.732,2.732,2.732,2.732,2.732,2.732,2.732,2.732,2.732,2.732,2.732,2.732,2.732,2.732,2.732,2.732,2.732,2.732,2.732,2.732,2.732,2.732,2.732,2.732,2.732,2.732,2.732,2.7344,2.7404,2.7381,2.7476,2.7607,2.7702,2.7749,2.794,2.7964,2.794,2.7917,2.7964,2.788,2.7773,2.7668,2.762,2.7536,2.7513,2.7536,2.7513,2.7418,2.7381,2.7381,2.7404,2.7428,2.7523,2.7513,2.7607,2.7607,2.7584,2.756,2.7523,2.7476,2.7418,2.7381,2.7333,2.7333,2.732,2.732,2.732,2.732,2.732,2.732,2.732,2.732,2.732,2.732,2.732,2.732,2.732,2.732,2.732,2.732,2.732,2.732,2.2258,2.257,2.2873,2.3191,2.3537,2.3781,2.4239,2.4787,2.5376,2.5789,2.6044,2.6382,2.6564,2.67,2.7089,2.7296,2.7566,2.7943,2.8237,2.8291,2.8301,2.8301,2.8301,2.8301,2.8262,2.8096,2.7868,2.7332,2.6978,2.7001,2.6998,2.7044,2.7201,2.732,2.732,2.732,2.732,2.732,2.732,2.732,2.732,2.732,2.732,2.732,2.732,2.732,2.732,2.732,2.732,2.732,2.732,2.732,2.732,2.732,2.732,2.732,2.732,2.732,2.7333,2.7333,2.7428,2.7536,2.756,2.7702,2.7891,2.7985,2.8021,2.7964,2.8011,2.8058,2.8115,2.8034,2.7987,2.7974,2.7961,2.7927,2.7857,2.7715,2.7739,2.7762,2.7715,2.756,2.7465,2.7523,2.7594,2.7655,2.7739,2.7809,2.7833,2.7786,2.7762,2.7726,2.7655,2.7607,2.7584,2.7513,2.7428,2.7381,2.7357,2.7333,2.732,2.732,2.732,2.732,2.732,2.732,2.732,2.732,2.732,2.732,2.732,2.732,2.732,2.732,2.732,2.2286,2.2626,2.2909,2.3267,2.3725,2.3837,2.4323,2.5008,2.5486,2.5844,2.6127,2.6446,2.6691,2.6872,2.7242,2.7503,2.7718,2.8104,2.8301,2.8301,2.8301,2.8301,2.8301,2.8301,2.8301,2.8242,2.8073,2.7614,2.7178,2.6998,2.7026,2.6962,2.7153,2.732,2.732,2.732,2.732,2.732,2.732,2.732,2.732,2.732,2.732,2.732,2.732,2.732,2.732,2.732,2.732,2.732,2.732,2.732,2.732,2.732,2.732,2.7309,2.7418,2.7465,2.7489,2.7489,2.7607,2.7762,2.7844,2.7961,2.8186,2.835,2.8443,2.8466,2.8432,2.8443,2.843,2.8443,2.836,2.829,2.8243,2.8139,2.8092,2.8011,2.794,2.7964,2.7987,2.788,2.7762,2.782,2.7867,2.7891,2.7927,2.7974,2.7964,2.7917,2.7917,2.7917,2.788,2.7833,2.7809,2.7786,2.7655,2.7584,2.7513,2.7476,2.7333,2.732,2.7344,2.7344,2.732,2.732,2.732,2.732,2.732,2.732,2.732,2.732,2.732,2.732,2.7351,2.2428,2.274,2.3022,2.3408,2.3921,2.4005,2.4526,2.5312,2.5596,2.5907,2.6218,2.65,2.6736,2.7016,2.7296,2.7557,2.7906,2.8184,2.8264,2.8301,2.8301,2.8301,2.8301,2.8301,2.8301,2.8301,2.8262,2.7754,2.7257,2.7097,2.709,2.6835,2.7034,2.7225,2.7296,2.732,2.732,2.732,2.732,2.732,2.732,2.732,2.732,2.732,2.732,2.732,2.732,2.732,2.732,2.732,2.732,2.732,2.732,2.732,2.7367,2.7404,2.7523,2.7689,2.7726,2.7796,2.7867,2.8021,2.8186,2.8326,2.8477,2.871,2.8803,2.8734,2.8757,2.8757,2.8803,2.8757,2.8664,2.8547,2.8511,2.836,2.8256,2.8256,2.8269,2.835,2.835,2.8292,2.8233,2.8209,2.8186,2.8139,2.8139,2.8151,2.8151,2.8151,2.8198,2.8245,2.8139,2.8102,2.8068,2.8021,2.7914,2.7796,2.7726,2.7644,2.7584,2.7476,2.7428,2.7415,2.7357,2.732,2.732,2.732,2.732,2.732,2.732,2.732,2.732,2.732,2.7361,2.2711,2.2986,2.3332,2.3613,2.3921,2.4228,2.484,2.5596,2.5688,2.6026,2.65,2.6591,2.6745,2.7026,2.7287,2.7584,2.7933,2.8184,2.8264,2.8301,2.8301,2.8301,2.8301,2.8301,2.8301,2.8301,2.8281,2.7822,2.7249,2.7162,2.6953,2.6665,2.6853,2.7058,2.7214,2.7262,2.732,2.732,2.732,2.732,2.732,2.732,2.732,2.732,2.732,2.732,2.732,2.732,2.732,2.732,2.732,2.732,2.732,2.7333,2.7404,2.7523,2.7689,2.7901,2.809,2.8068,2.8126,2.836,2.8571,2.8723,2.8816,2.8803,2.8827,2.8896,2.8943,2.8896,2.8873,2.8803,2.8803,2.878,2.8721,2.864,2.8571,2.8617,2.8664,2.8734,2.8676,2.856,2.856,2.8513,2.8443,2.8396,2.8477,2.849,2.8536,2.856,2.8617,2.8617,2.8454,2.836,2.8337,2.8267,2.8139,2.8068,2.7985,2.7951,2.7904,2.7796,2.7618,2.756,2.756,2.7428,2.7333,2.7381,2.7404,2.7333,2.732,2.732,2.732,2.732,2.7351,2.2768,2.3042,2.3548,2.3809,2.3949,2.4256,2.4896,2.5596,2.5706,2.6053,2.6618,2.6646,2.6845,2.7188,2.7341,2.7674,2.8094,2.8237,2.8291,2.8301,2.8301,2.8301,2.8301,2.8301,2.8301,2.8291,2.8252,2.7851,2.71,2.71,2.6754,2.6563,2.6671,2.69,2.7058,2.7214,2.7296,2.732,2.732,2.732,2.732,2.732,2.732,2.732,2.732,2.732,2.732,2.732,2.732,2.732,2.732,2.732,2.7333,2.7404,2.7523,2.7689,2.7878,2.8184,2.8348,2.8337,2.843,2.8757,2.8932,2.9024,2.914,2.9209,2.9232,2.9232,2.9186,2.9163,2.9209,2.9082,2.8966,2.8943,2.8896,2.885,2.8803,2.8803,2.8803,2.878,2.878,2.8757,2.8757,2.878,2.871,2.8653,2.8757,2.8803,2.8803,2.8803,2.8803,2.8803,2.8651,2.8605,2.8571,2.849,2.8396,2.8326,2.8243,2.8209,2.8162,2.7998,2.7857,2.7809,2.7762,2.7691,2.7631,2.756,2.7489,2.7404,2.7333,2.732,2.732,2.732,2.74,2.2816,2.307,2.3641,2.3893,2.3977,2.4415,2.5034,2.5624,2.5798,2.6081,2.6618,2.6691,2.6954,2.7323,2.7539,2.7782,2.8184,2.8291,2.8291,2.8301,2.8301,2.8301,2.8301,2.8301,2.8291,2.8271,2.8103,2.7666,2.7015,2.6904,2.6486,2.6284,2.6424,2.6651,2.6972,2.7143,2.732,2.732,2.732,2.732,2.732,2.732,2.732,2.732,2.732,2.732,2.732,2.732,2.732,2.732,2.732,2.7333,2.7404,2.7523,2.7689,2.7901,2.816,2.843,2.8571,2.864,2.8803,2.9128,2.922,2.9336,2.9451,2.9508,2.9439,2.9462,2.9485,2.9508,2.9508,2.9301,2.9128,2.9082,2.9012,2.8943,2.885,2.8803,2.8803,2.8803,2.8803,2.8803,2.8803,2.8803,2.878,2.8734,2.878,2.8803,2.8803,2.8803,2.8803,2.8803,2.878,2.878,2.878,2.8687,2.8583,2.8594,2.8501,2.8454,2.8384,2.8209,2.8115,2.8102,2.8045,2.8011,2.7917,2.7786,2.7597,2.7441,2.7404,2.7357,2.732,2.734,2.7534,2.2994,2.3078,2.3661,2.3893,2.3996,2.4814,2.5367,2.5706,2.599,2.6282,2.6618,2.6845,2.7098,2.7422,2.7664,2.7996,2.8211,2.8301,2.8301,2.8301,2.8301,2.8301,2.8301,2.8301,2.8291,2.8193,2.7976,2.7539,2.6986,2.668,2.6226,2.5967,2.611,2.6448,2.6877,2.7167,2.7286,2.732,2.7296,2.732,2.732,2.732,2.732,2.732,2.732,2.732,2.732,2.732,2.732,2.732,2.732,2.7381,2.7547,2.7607,2.7844,2.8254,2.8371,2.864,2.9012,2.9082,2.9243,2.9428,2.9497,2.9542,2.9542,2.9554,2.96,2.9692,2.9623,2.9577,2.9531,2.9485,2.9359,2.9243,2.9174,2.9012,2.8919,2.8803,2.8803,2.8803,2.8803,2.8803,2.8803,2.8803,2.8803,2.8803,2.8803,2.8803,2.8803,2.8803,2.8803,2.8803,2.8803,2.8803,2.8803,2.8803,2.878,2.8791,2.8745,2.864,2.8594,2.8477,2.8407,2.8371,2.8337,2.8269,2.8128,2.7998,2.7833,2.7668,2.7489,2.7428,2.7357,2.7392,2.7634,2.3014,2.307,2.3661,2.3893,2.4024,2.4842,2.5395,2.577,2.619,2.65,2.6636,2.689,2.7161,2.7449,2.7745,2.804,2.8237,2.8301,2.8301,2.8301,2.8301,2.8301,2.8301,2.8301,2.8281,2.82,2.7888,2.7438,2.7012,2.6543,2.6118,2.5864,2.5941,2.6269,2.6592,2.689,2.7034,2.7081,2.7201,2.732,2.732,2.732,2.732,2.732,2.732,2.732,2.732,2.732,2.732,2.7309,2.7309,2.7428,2.7641,2.7726,2.8055,2.8441,2.8628,2.9116,2.9462,2.9634,2.968,2.9771,2.9783,2.984,2.9954,2.9943,2.9966,2.9966,2.9966,2.9966,2.9966,2.9829,2.9703,2.9577,2.9439,2.9151,2.8989,2.8873,2.8803,2.8803,2.8803,2.8803,2.8803,2.8803,2.8803,2.8803,2.8803,2.8803,2.8803,2.8803,2.8803,2.8803,2.8803,2.8803,2.8803,2.8803,2.8803,2.8803,2.8803,2.8757,2.871,2.8664,2.8664,2.8594,2.8571,2.8513,2.842,2.8303,2.8115,2.7951,2.7844,2.7655,2.757,2.7635,2.7793,2.3014,2.307,2.3661,2.3893,2.4024,2.4842,2.545,2.588,2.6364,2.6618,2.6664,2.689,2.7152,2.7458,2.7745,2.804,2.8264,2.8301,2.8301,2.8301,2.8301,2.8301,2.8301,2.8271,2.8164,2.8054,2.7673,2.7223,2.6748,2.6357,2.5991,2.5815,2.5868,2.6014,2.6289,2.6506,2.6842,2.6914,2.7081,2.7201,2.7272,2.732,2.732,2.732,2.732,2.732,2.732,2.732,2.732,2.7309,2.737,2.7489,2.7726,2.7985,2.829,2.8664,2.9116,2.9542,2.9783,3.0102,3.0114,3.0159,3.0148,3.0261,3.0431,3.0488,3.0476,3.0476,3.0442,3.0397,3.0318,3.0148,3.0034,2.992,2.968,2.9393,2.9105,2.8966,2.8873,2.885,2.8803,2.8803,2.8803,2.8803,2.8803,2.8803,2.8803,2.8803,2.8803,2.8803,2.8803,2.8803,2.8803,2.8803,2.8803,2.8803,2.8803,2.8803,2.8803,2.8803,2.8803,2.8734,2.878,2.8803,2.8734,2.8687,2.871,2.8617,2.8443,2.835,2.8326,2.8102,2.782,2.7923,2.8124,2.3014,2.3098,2.3632,2.3876,2.4027,2.4775,2.548,2.609,2.6473,2.6618,2.6636,2.6899,2.7161,2.7431,2.7772,2.804,2.8228,2.8291,2.8301,2.8301,2.8301,2.8301,2.8301,2.8281,2.8112,2.7712,2.7321,2.6943,2.6416,2.603,2.5796,2.5718,2.5757,2.583,2.5975,2.6193,2.653,2.6675,2.689,2.7058,2.7177,2.7286,2.732,2.732,2.732,2.732,2.732,2.732,2.732,2.7357,2.7465,2.7726,2.7985,2.8243,2.864,2.9082,2.9588,2.9806,3.0045,3.0352,3.0555,3.0578,3.0623,3.0769,3.0826,3.0849,3.0815,3.0838,3.0815,3.0724,3.0623,3.0499,3.0341,3.0148,2.9931,2.9623,2.9266,2.9105,2.8989,2.8919,2.8827,2.8803,2.8803,2.8803,2.8803,2.8803,2.8803,2.8803,2.8803,2.8803,2.8803,2.8803,2.8803,2.8803,2.8803,2.8803,2.8803,2.8803,2.8803,2.8803,2.8803,2.8803,2.8803,2.8803,2.8803,2.8803,2.878,2.878,2.8757,2.8687,2.8617,2.843,2.8102,2.8402,2.8683,2.3014,2.307,2.3632,2.3736,2.3629,2.4344,2.5227,2.6082,2.6473,2.6609,2.6618,2.6863,2.7087,2.7422,2.7745,2.8023,2.8211,2.8301,2.8301,2.8301,2.8301,2.8301,2.8281,2.8242,2.8044,2.7653,2.7197,2.6748,2.6367,2.5913,2.5693,2.5708,2.5708,2.5708,2.5757,2.5854,2.611,2.6376,2.6651,2.6866,2.7034,2.7201,2.7248,2.7272,2.7286,2.7309,2.732,2.732,2.732,2.7333,2.7489,2.7726,2.7998,2.8267,2.864,2.9336,2.9714,3.0,3.0341,3.0532,3.0735,3.0982,3.1049,3.0994,3.1039,3.1051,3.1051,3.1096,3.1096,3.1005,3.0881,3.0747,3.0589,3.0386,3.0148,2.9852,2.952,2.9266,2.9151,2.8943,2.885,2.8803,2.8803,2.8803,2.8803,2.8803,2.8803,2.8803,2.8803,2.8803,2.8803,2.8803,2.8803,2.8803,2.8803,2.8803,2.8803,2.8803,2.8803,2.8803,2.8803,2.8803,2.8803,2.8803,2.8803,2.8803,2.8803,2.8827,2.8873,2.8838,2.8745,2.8571,2.8504,2.8864,2.9174,2.2593,2.2676,2.3118,2.3288,2.3444,2.4166,2.4889,2.5478,2.5935,2.6132,2.615,2.6458,2.681,2.7177,2.7542,2.7889,2.8264,2.8301,2.8301,2.8301,2.8301,2.8301,2.8281,2.8122,2.7754,2.7393,2.6973,2.6504,2.6182,2.5913,2.5708,2.5708,2.5708,2.5708,2.5708,2.5732,2.5805,2.6038,2.6304,2.6578,2.6794,2.702,2.7105,2.7177,2.7214,2.7286,2.732,2.732,2.732,2.7381,2.756,2.7809,2.8162,2.8501,2.8896,2.9542,2.9977,3.0273,3.0555,3.0814,3.1026,3.1227,3.1395,3.1395,3.134,3.1352,3.1352,3.134,3.1307,3.1241,3.1117,3.0983,3.0792,3.06,3.0363,3.0102,2.9806,2.9508,2.9243,2.9012,2.8896,2.8827,2.8803,2.8803,2.8803,2.8803,2.8803,2.8803,2.8803,2.8803,2.8803,2.8803,2.8803,2.8803,2.8803,2.8803,2.8803,2.8803,2.8803,2.8803,2.8803,2.8803,2.8827,2.8827,2.8803,2.885,2.8943,2.8943,2.8955,2.8976,2.9153,2.9213,2.9247,2.9443,2.9735,2.2019,2.2035,2.2274,2.2763,2.3323,2.4001,2.4358,2.4472,2.5011,2.5326,2.5489,2.5792,2.6257,2.6658,2.7041,2.7571,2.7919,2.8108,2.8213,2.8271,2.8301,2.8262,2.8093,2.7878,2.748,2.7012,2.6611,2.6299,2.5874,2.5708,2.5708,2.5708,2.5708,2.5708,2.5708,2.5708,2.5732,2.583,2.6014,2.6221,2.6472,2.6699,2.6877,2.6962,2.7105,2.7262,2.7296,2.732,2.732,2.7452,2.7678,2.7951,2.8443,2.8885,2.9324,2.9715,3.0182,3.0499,3.0747,3.0994,3.1217,3.1417,3.1562,3.1594,3.1584,3.1562,3.154,3.154,3.1496,3.1473,3.135,3.1206,3.1016,3.0825,3.0578,3.0363,3.0114,2.9749,2.9312,2.9082,2.8873,2.8827,2.8803,2.8803,2.8803,2.8803,2.8803,2.8803,2.8803,2.8803,2.8803,2.8803,2.8803,2.8803,2.8803,2.8803,2.8803,2.8803,2.8803,2.8803,2.8803,2.8827,2.885,2.8896,2.8966,2.9035,2.9105,2.9128,2.9275,2.9534,2.9711,2.9929,3.0065,3.0218,3.0264,2.2011,2.2033,2.2236,2.2541,2.2873,2.3219,2.3513,2.3681,2.4009,2.465,2.5298,2.5506,2.5718,2.6078,2.6451,2.6938,2.7448,2.777,2.8018,2.8125,2.8193,2.7978,2.7878,2.7614,2.7197,2.6728,2.6357,2.6108,2.5806,2.5708,2.5708,2.5708,2.5708,2.5708,2.5708,2.5708,2.5708,2.5708,2.5805,2.5955,2.6197,2.6448,2.6675,2.6818,2.6986,2.7129,2.7201,2.7286,2.7309,2.7381,2.7762,2.8256,2.8827,2.9289,2.9588,2.9852,3.0295,3.0657,3.0916,3.1139,3.1373,3.155,3.1661,3.1683,3.1705,3.1705,3.1705,3.1705,3.1683,3.1639,3.1572,3.1417,3.1261,3.1038,3.0825,3.0612,3.0408,2.9909,2.9405,2.9128,2.8896,2.8827,2.8827,2.8803,2.8803,2.8803,2.8803,2.8803,2.8803,2.8803,2.8803,2.8803,2.8803,2.8803,2.8803,2.8803,2.8803,2.8803,2.8803,2.8803,2.8827,2.8943,2.9058,2.9117,2.9163,2.93,2.9391,2.9427,2.9608,3.006,3.0362,3.0614,3.0968,3.118,3.1034,2.1497,2.1552,2.1888,2.2116,2.2331,2.2781,2.3172,2.3422,2.368,2.4199,2.4831,2.5065,2.5286,2.5598,2.601,2.6384,2.6955,2.7244,2.7445,2.7656,2.7764,2.7568,2.7428,2.7252,2.69,2.6426,2.6162,2.5903,2.5728,2.5708,2.5708,2.5708,2.5708,2.5708,2.5708,2.5708,2.5708,2.5708,2.5708,2.5795,2.598,2.6183,2.6376,2.652,2.677,2.6938,2.7081,2.719,2.7309,2.7428,2.7762,2.8373,2.8908,2.9324,2.9634,2.9988,3.0397,3.0848,3.1039,3.1273,3.1506,3.1661,3.1705,3.1705,3.1705,3.1705,3.1705,3.1705,3.1705,3.1661,3.1661,3.155,3.1395,3.1217,3.0938,3.0703,3.0364,2.9909,2.9485,2.9151,2.8966,2.8919,2.8873,2.8803,2.8803,2.8803,2.8803,2.8803,2.8803,2.8803,2.8803,2.8847,2.8869,2.8825,2.8803,2.8803,2.8803,2.8803,2.8803,2.8896,2.8966,2.9174,2.9312,2.9403,2.9528,2.9676,2.9757,2.9974,3.0406,3.0932,3.1142,3.1315,3.1707,3.2032,3.1886,2.0923,2.0968,2.1487,2.1708,2.1827,2.2569,2.3122,2.3406,2.3646,2.392,2.4278,2.4599,2.4842,2.5219,2.5685,2.611,2.6455,2.6704,2.6871,2.71,2.7119,2.707,2.6894,2.6631,2.6426,2.6221,2.5923,2.5815,2.5708,2.5708,2.5708,2.5708,2.5708,2.5708,2.5708,2.5708,2.5708,2.5708,2.5708,2.5708,2.5795,2.5917,2.6052,2.6279,2.6554,2.6853,2.6972,2.7129,2.7296,2.7499,2.7762,2.8443,2.8978,2.9393,2.968,3.0023,3.059,3.0883,3.1096,3.1407,3.1584,3.1705,3.1705,3.1705,3.1705,3.1705,3.1705,3.1705,3.1705,3.1705,3.1683,3.1661,3.1506,3.135,3.1084,3.0804,3.0364,2.9954,2.96,2.9243,2.9151,2.9082,2.8943,2.8873,2.885,2.8827,2.8827,2.8803,2.8803,2.8803,2.8803,2.8913,2.8977,2.8946,2.8847,2.8903,2.8925,2.8827,2.8873,2.8966,2.9128,2.9382,2.9599,2.9779,2.9905,3.0283,3.0638,3.0926,3.1375,3.1826,3.2021,3.2201,3.2419,3.2689,3.2635,2.0899,2.095,2.1479,2.17,2.1801,2.2409,2.2946,2.3356,2.3447,2.3746,2.413,2.4248,2.4371,2.4421,2.4666,2.5145,2.5856,2.6093,2.659,2.6957,2.6811,2.6709,2.6553,2.6338,2.6162,2.5942,2.5776,2.5737,2.5708,2.5708,2.5708,2.5708,2.5708,2.5708,2.5708,2.5708,2.5708,2.5708,2.5708,2.5708,2.5708,2.5795,2.5893,2.6135,2.64,2.6675,2.689,2.7143,2.7262,2.7452,2.7796,2.849,2.9059,2.9485,2.9715,3.0114,3.0668,3.0917,3.1163,3.1473,3.1639,3.1705,3.1705,3.1705,3.1705,3.1705,3.1705,3.1705,3.1705,3.1705,3.1705,3.1705,3.1594,3.1439,3.1229,3.0916,3.0533,3.0193,2.984,2.9646,2.9497,2.9336,2.9094,2.9024,2.9001,2.8966,2.8919,2.8919,2.893,2.8884,2.8894,2.9081,2.9246,2.9022,2.8913,2.9058,2.9103,2.8972,2.9088,2.9509,2.9718,2.9668,2.9885,3.0363,3.0812,3.124,3.1564,3.1842,3.2297,3.2707,3.2921,3.3118,3.3259,3.3281,3.3224]},{"header":{"parameterUnit":"m.s-1","parameterCategory":1,"la1":31.0,"la2":29.5877,"lo1":-88.7671,"lo2":-86.6584,"dy":0.0162,"dx":0.0185,"nx":115,"ny":88,"refTime":"2024-02-14T06:00:00:Z","depth":0,"parameterNumber":3,"parameterNumberName":"V-component_of_WINDS"},"data":[0.0,0.0,0.0,0.0,0.0,0.0,0.0,0.0,0.0,0.0,0.0,0.0,0.0,0.0,0.0,0.0,0.0,0.0,0.0,0.0,0.0,0.0,0.0,0.0,0.0,0.0,0.0,0.0,0.0,0.0,0.0,0.0,0.0,0.0,0.0,0.0,0.0,0.0,0.0,0.0,0.0,0.0,0.0,0.0,0.0,0.0,0.0,0.0,0.0,0.0,0.0,0.0,0.0,0.0,0.0,0.0,0.0,0.0,0.0,0.0,0.0,0.0,0.0,0.0,0.0,0.0,0.0,0.0,0.0,0.0,0.0,0.0,0.0,0.0,0.0,0.0,0.0,0.0,0.0,0.0,0.0,0.0,0.0,0.0,0.0,0.0,0.0,0.0,0.0,0.0,0.0,0.0,0.0,0.0,0.0,0.0,0.0,0.0,0.0,0.0,0.0,0.0,0.0,0.0,0.0,0.0,0.0,0.0,0.0,0.0,0.0,0.0,0.0,0.0,0.0,0.0,0.0,0.0,0.0,0.0,0.0,0.0,0.0,0.0,0.0,0.0,0.0,0.0,0.0,0.0,0.0,0.0,0.0,0.0,0.0,0.0,0.0,0.0,0.0,0.0,0.0,0.0,0.0,0.0,0.0,0.0,0.0,0.0,0.0,0.0,0.0,0.0,0.0,0.0,0.0,0.0,0.0,0.0,0.0,0.0,0.0,0.0,0.0,0.0,0.0,0.0,0.0,0.0,0.0,0.0,0.0,0.0,0.0,0.0,0.0,0.0,0.0,0.0,0.0,0.0,0.0,0.0,0.0,0.0,0.0,0.0,0.0,0.0,0.0,0.0,0.0,0.0,0.0,0.0,0.0,0.0,0.0,0.0,0.0,0.0,0.0,0.0,0.0,0.0,0.0,0.0,0.0,0.0,0.0,0.0,0.0,0.0,0.0,0.0,0.0,0.0,0.0,0.0,0.0,0.0,0.0,0.0,0.0,0.0,0.0,0.0,0.0,0.0,0.0,0.0,0.0,0.0,0.0,0.0,0.0,0.0,0.0,0.0,0.0,0.0,0.0,0.0,0.0,0.0,0.0,0.0,0.0,0.0,0.0,0.0,0.0,0.0,0.0,0.0,0.0,0.0,0.0,0.0,0.0,0.0,0.0,0.0,0.0,0.0,0.0,0.0,0.0,0.0,0.0,0.0,0.0,0.0,0.0,0.0,0.0,0.0,0.0,0.0,0.0,0.0,0.0,0.0,0.0,0.0,0.0,0.0,0.0,0.0,0.0,0.0,0.0,0.0,0.0,0.0,0.0,0.0,0.0,0.0,0.0,0.0,0.0,0.0,0.0,0.0,0.0,0.0,0.0,0.0,0.0,0.0,0.0,0.0,0.0,0.0,0.0,0.0,0.0,0.0,0.0,0.0,0.0,0.0,0.0,0.0,0.0,0.0,0.0,0.0,0.0,0.0,0.0,0.0,0.0,0.0,0.0,0.0,0.0,0.0,0.0,0.0,0.0,0.0,0.0,0.0,0.0,0.0,0.0,0.0,0.0,0.0,0.0,0.0,0.0,0.0,0.0,0.0,0.0,0.0,0.0,0.0,0.0,0.0,0.0,0.0,0.0,0.0,0.0,0.0,0.0,0.0,0.0,0.0,0.0,0.0,0.0,0.0,0.0,0.0,0.0,0.0,0.0,0.0,0.0,0.0,0.0,0.0,0.0,0.0,0.0,0.0,0.0,0.0,0.0,0.0,0.0,0.0,0.0,0.0,0.0,0.0,0.0,0.0,0.0,0.0,0.0,0.0,0.0,0.0,0.0,0.0,0.0,0.0,0.0,0.0,0.0,0.0,0.0,0.0,0.0,0.0,0.0,0.0,0.0,0.0,0.0,0.0,0.0,0.0,0.0,0.0,0.0,0.0,0.0,0.0,0.0,0.0,0.0,0.0,0.0,0.0,0.0,0.0,0.0,0.0,0.0,0.0,0.0,0.0,0.0,0.0,0.0,0.0,0.0,0.0,0.0,0.0,0.0,0.0,0.0,0.0,0.0,0.0,0.0,0.0,0.0,0.0,0.0,0.0,0.0,0.0,0.0,0.0,0.0,0.0,0.0,0.0,0.0,0.0,0.0,0.0,0.0,0.0,0.0,0.0,0.0,0.0,0.0,0.0,0.0,0.0,0.0,0.0,0.0,0.0,0.0,0.0,0.0,0.0,0.0,0.0,0.0,0.0,0.0,0.0,0.0,0.0,0.0,0.0,0.0,0.0,0.0,0.0,0.0,0.0,0.0,0.0,0.0,0.0,0.0,0.0,0.0,0.0,0.0,0.0,0.0,0.0,0.0,0.0,0.0,0.0,0.0,0.0,0.0,0.0,0.0,0.0,0.0,0.0,0.0,0.0,0.0,0.0,0.0,0.0,0.0,0.0,0.0,0.0,0.0,0.0,0.0,0.0,0.0,0.0,0.0,0.0,0.0,0.0,0.0,0.0,0.0,0.0,0.0,0.0,0.0,0.0,0.0,0.0,0.0,0.0,0.0,0.0,0.0,0.0,0.0,0.0,0.0,0.0,0.0,0.0,0.0,0.0,0.0,0.0,0.0,0.0,0.0,0.0,0.0,0.0,0.0,0.0,0.0,0.0,0.0,0.0,0.0,0.0,0.0,0.0,0.0,0.0,0.0,0.0,0.0,0.0,0.0,0.0,0.0,0.0,0.0,0.0,0.0,0.0,0.0,0.0,0.0,0.0,0.0,0.0,0.0,0.0,0.0,0.0,0.0,0.0,0.0,0.0,0.0,0.0,0.0,0.0,0.0,0.0,0.0,0.0,0.0,0.0,0.0,0.0,0.0,0.0,0.0,0.0,0.0,0.0,0.0,0.0,0.0,0.0,0.0,0.0,0.0,0.0,0.0,0.0,0.0,0.0,0.0,0.0,0.0,0.0,0.0,0.0,0.0,0.0,0.0,0.0,0.0,0.0,0.0,0.0,0.0,0.0,0.0,0.0,0.0,0.0,0.0,0.0,0.0,0.0,0.0,0.0,0.0,0.0,0.0,0.0,0.0,0.0,0.0,0.0,0.0,0.0,0.0,0.0,0.0,0.0,0.0,0.0,0.0,0.0,0.0,0.0,0.0,0.0,0.0,0.0,0.0,0.0,0.0,0.0,0.0,0.0,0.0,0.0,0.0,0.0,0.0,0.0,0.0,0.0,0.0,0.0,0.0,0.0,0.0,0.0,0.0,0.0,0.0,0.0,0.0,0.0,0.0,0.0,0.0,0.0,0.0,0.0,0.0,0.0,0.0,0.0,0.0,0.0,0.0,0.0,0.0,0.0,0.0,0.0,0.0,0.0,0.0,0.0,0.0,0.0,0.0,0.0,0.0,0.0,0.0,0.0,0.0,0.0,0.0,0.0,0.0,0.0,0.0,0.0,0.0,0.0,0.0,0.0,0.0,0.0,0.0,0.0,0.0,0.0,0.0,0.0,0.0,0.0,0.0,0.0,0.0,0.0,0.0,0.0,0.0,0.0,0.0,0.0,0.0,0.0,0.0,0.0,0.0,0.0,0.0,0.0,0.0,0.0,0.0,0.0,0.0,0.0,0.0,0.0,0.0,0.0,0.0,0.0,0.0,0.0,0.0,0.0,0.0,0.0,0.0,0.0,0.0,0.0,0.0,0.0,0.0,0.0,0.0,0.0,0.0,0.0,0.0,0.0,0.0,0.0,0.0,0.0,0.0,0.0,0.0,0.0,0.0,0.0,0.0,0.0,0.0,0.0,0.0,0.0,0.0,0.0,0.0,0.0,0.0,0.0,0.0,0.0,0.0,0.0,0.0,0.0,0.0,0.0,0.0,0.0,0.0,0.0,0.0,0.0,0.0,0.0,0.0,0.0,0.0,0.0,0.0,0.0,0.0,0.0,0.0,0.0,0.0,0.0,0.0,0.0,0.0,0.0,0.0,0.0,0.0,0.0,0.0,0.0,0.0,0.0,0.0,0.0,0.0,0.0,0.0,0.0,0.0,0.0,0.0,0.0,0.0,0.0,0.0,0.0,0.0,0.0,0.0,0.0,0.0,0.0,0.0,0.0,0.0,0.0,0.0,0.0,0.0,0.0,0.0,0.0,0.0,0.0,0.0,0.0,0.0,0.0,0.0,0.0,0.0,0.0,0.0,0.0,0.0,0.0,0.0,0.0,0.0,0.0,0.0,0.0,0.0,0.0,0.0,0.0,0.0,0.0,0.0,0.0,0.0,0.0,0.0,0.0,0.0,0.0,0.0,0.0,0.0,0.0,1.2687,0.0,0.0,0.0,0.0,0.0,0.0,0.0,0.0,0.0,0.0,0.0,0.0,0.0,0.0,0.0,0.0,0.0,0.0,0.0,0.0,0.0,0.0,0.0,0.0,0.0,0.0,0.0,0.0,0.0,0.0,0.0,0.0,0.0,0.0,0.0,0.0,0.0,0.0,0.0,0.0,0.0,0.0,0.0,0.0,0.0,0.0,0.0,0.0,0.0,0.0,0.0,0.0,0.0,0.0,0.0,0.0,0.0,0.0,0.0,0.0,0.0,0.0,0.0,0.0,0.0,0.0,0.0,0.0,0.0,0.0,0.0,0.0,0.0,0.0,0.0,0.0,0.0,0.0,0.0,0.0,0.0,0.0,0.0,0.0,0.0,0.0,0.0,0.0,0.0,0.0,0.0,0.0,0.0,0.0,0.0,0.0,0.0,0.0,0.0,0.0,0.0,0.0,0.0,0.0,0.0,0.0,0.0,0.0,0.0,0.0,1.4026,1.3373,1.3352,1.3172,1.2842,0.0,0.0,0.0,0.0,0.0,0.0,0.0,0.0,0.0,0.0,0.0,0.0,0.0,0.0,0.0,0.0,0.0,0.0,0.0,0.0,0.0,0.0,0.0,0.0,0.0,0.0,0.0,0.0,0.0,0.0,0.0,0.0,0.0,0.0,0.0,0.0,0.0,0.0,0.0,0.0,0.0,0.0,0.0,0.0,0.0,0.0,0.0,0.0,0.0,0.0,0.0,0.0,0.0,0.0,0.0,0.0,0.0,0.0,0.0,0.0,0.0,0.0,0.0,0.0,0.0,0.0,0.0,0.0,0.0,0.0,0.0,0.0,0.0,0.0,0.0,0.0,0.0,0.0,0.0,0.0,0.0,0.0,0.0,0.0,0.0,0.0,0.0,0.0,0.0,0.0,0.0,0.0,0.0,0.0,0.0,0.0,0.0,0.0,0.0,0.0,0.0,0.0,0.0,0.0,0.0,0.0,0.0,0.0,0.0,0.0,0.0,0.0,1.3797,1.3702,1.3527,0.0,0.0,0.0,0.0,0.0,0.0,0.0,0.0,0.0,0.0,0.0,0.0,0.0,0.0,0.0,0.0,0.0,0.0,0.0,0.0,0.0,0.0,0.0,0.0,0.0,0.0,0.0,0.0,0.0,0.0,0.0,0.0,0.0,0.0,0.0,0.0,0.0,0.0,0.0,0.0,0.0,0.0,0.0,0.0,0.0,0.0,0.0,0.0,0.0,0.0,0.0,0.0,0.0,0.0,0.0,0.0,0.0,0.0,0.0,0.0,0.0,0.0,0.0,0.0,0.0,0.0,0.0,0.0,0.0,0.0,0.0,0.0,0.0,0.0,0.0,0.0,0.0,0.0,0.0,0.0,0.0,0.0,0.0,0.0,0.0,0.0,0.0,0.0,0.0,0.0,0.0,0.0,0.0,0.0,0.0,0.0,0.0,0.0,0.0,0.0,0.0,0.0,0.0,0.0,0.0,0.0,0.0,0.0,0.0,0.0,1.3238,1.3782,1.3797,0.0,1.5434,0.0,0.0,0.0,0.0,0.0,0.0,0.0,0.0,0.0,0.0,0.0,0.0,0.0,0.0,0.0,0.0,0.0,0.0,0.0,0.0,0.0,0.0,0.0,0.0,0.0,0.0,0.0,0.0,0.0,0.0,0.0,0.0,0.0,0.0,0.0,0.0,0.0,0.0,0.0,0.0,0.0,0.0,0.0,0.0,0.0,0.0,0.0,0.0,0.0,0.0,0.0,0.0,0.0,0.0,0.0,0.0,0.0,0.0,0.0,0.0,0.0,0.0,0.0,0.0,0.0,0.0,0.0,0.0,0.0,0.0,0.0,0.0,0.0,0.0,0.0,0.0,0.0,0.0,0.0,0.0,0.0,0.0,0.0,0.0,0.0,0.0,0.0,0.0,0.0,0.0,0.0,0.0,0.0,0.0,0.0,0.0,0.0,0.0,0.0,0.0,0.0,0.0,0.0,0.0,0.0,0.0,0.0,0.0,0.0,0.0,1.318,1.3495,1.3691,1.4449,0.0,0.0,0.0,0.0,0.0,0.0,0.0,0.0,0.0,0.0,0.0,0.0,0.0,0.0,0.0,0.0,0.0,0.0,0.0,0.0,0.0,0.0,0.0,0.0,0.0,0.0,0.0,0.0,0.0,0.0,0.0,0.0,0.0,0.0,0.0,0.0,0.0,0.0,0.0,0.0,0.0,0.0,0.0,0.0,0.0,0.0,0.0,0.0,0.0,0.0,0.0,0.0,0.0,0.0,0.0,0.0,0.0,0.0,0.0,0.0,0.0,0.0,0.0,0.0,0.0,0.0,0.0,0.0,0.0,0.0,0.0,0.0,0.0,0.0,0.0,0.0,0.0,0.0,0.0,0.0,0.0,0.0,0.0,0.0,0.0,0.0,0.0,0.0,0.0,0.0,0.0,0.0,0.0,0.0,0.0,0.0,0.0,0.0,0.0,0.0,0.0,0.0,0.0,0.0,0.0,0.0,0.0,0.0,0.0,0.0,1.2814,1.3327,1.3598,1.3551,1.4231,1.5755,0.0,0.0,0.0,0.0,0.0,0.0,0.0,0.0,0.0,0.0,0.0,0.0,0.0,0.0,0.0,0.0,0.0,0.0,0.0,0.0,0.0,0.0,0.0,0.0,0.0,0.0,0.0,0.0,0.0,0.0,0.0,0.0,0.0,0.0,0.0,0.0,0.0,0.0,0.0,0.0,0.0,0.0,0.0,0.0,0.0,0.0,0.0,0.0,0.0,0.0,0.0,0.0,0.0,0.0,0.0,0.0,0.0,0.0,0.0,0.0,0.0,0.0,0.0,0.0,0.0,0.0,0.0,0.0,0.0,0.0,0.0,0.0,0.0,0.0,0.0,0.0,0.0,0.0,0.0,0.0,0.0,0.0,0.0,0.0,0.0,0.0,0.0,0.0,0.0,0.0,0.0,0.0,0.0,0.0,0.0,0.0,0.0,0.0,0.0,0.0,0.0,0.0,0.0,0.0,0.0,0.0,0.0,0.0,1.3832,1.3439,1.3563,1.4258,1.3377,1.3778,0.0,0.0,0.0,0.0,0.0,0.0,0.0,0.0,0.0,0.0,0.0,0.0,0.0,0.0,0.0,0.0,0.0,0.0,0.0,0.0,0.0,0.0,0.0,0.0,0.0,0.0,0.0,0.0,0.0,0.0,0.0,0.0,0.0,0.0,0.0,0.0,0.0,0.0,0.0,0.0,0.0,0.0,0.0,0.0,0.0,0.0,0.0,0.0,0.0,0.0,0.0,0.0,0.0,0.0,0.0,0.0,0.0,0.0,0.0,0.0,0.0,0.0,0.0,0.0,0.0,0.0,0.0,0.0,0.0,0.0,0.0,0.0,0.0,0.0,0.0,0.0,0.0,0.0,0.0,0.0,0.0,0.0,0.0,0.0,0.0,0.0,0.0,0.0,0.0,0.0,0.0,0.0,0.0,0.0,0.0,0.0,0.0,0.0,0.0,0.0,0.0,0.0,0.0,0.0,0.0,0.0,0.0,0.0,0.0,1.2033,1.2256,1.2881,1.387,1.321,1.393,0.0,0.0,0.0,0.0,0.0,0.0,0.0,0.0,0.0,0.0,0.0,0.0,0.0,0.0,0.0,0.0,0.0,0.0,0.0,0.0,0.0,0.0,0.0,0.0,0.0,0.0,0.0,0.0,0.0,0.0,0.0,0.0,0.0,0.0,0.0,0.0,0.0,0.0,0.0,0.0,0.0,0.0,0.0,0.0,0.0,0.0,0.0,0.0,0.0,0.0,0.0,0.0,0.0,0.0,0.0,0.0,0.0,0.0,0.0,0.0,0.0,0.0,0.0,0.0,0.0,0.0,0.0,0.0,0.0,0.0,0.0,0.0,0.0,0.0,0.0,0.0,0.0,0.0,0.0,0.0,0.0,0.0,0.0,0.0,0.0,0.0,0.0,0.0,0.0,0.0,0.0,0.0,0.0,0.0,0.0,0.0,0.0,0.0,0.0,0.0,0.0,0.0,0.0,0.0,0.0,0.0,0.0,0.0,0.0,1.1439,0.0,1.2775,1.3445,1.3255,1.4087,0.0,0.0,0.0,0.0,0.0,0.0,0.0,0.0,0.0,0.0,0.0,0.0,0.0,0.0,0.0,0.0,0.0,0.0,0.0,0.0,0.0,0.0,0.0,0.0,0.0,0.0,0.0,0.0,0.0,0.0,0.0,0.0,0.0,0.0,0.0,0.0,0.0,0.0,0.0,0.0,0.0,0.0,0.0,0.0,0.0,0.0,0.0,0.0,0.0,0.0,0.0,0.0,0.0,0.0,0.0,0.0,0.0,0.0,0.0,0.0,0.0,0.0,0.0,0.0,0.0,0.0,0.0,0.0,0.0,0.0,0.0,0.0,0.0,0.0,0.0,0.0,0.0,0.0,0.0,0.0,0.0,0.0,0.0,0.0,0.0,0.0,0.0,0.0,0.0,0.0,0.0,0.0,0.0,0.0,0.0,0.0,0.0,0.0,0.0,0.0,0.0,0.0,0.0,0.0,0.0,0.0,0.0,0.0,1.1724,1.247,1.3079,1.3288,1.3133,1.3531,1.4117,0.0,0.0,0.0,0.0,0.0,0.0,0.0,0.0,0.0,0.0,0.0,0.0,0.0,0.0,0.0,0.0,0.0,0.0,0.0,0.0,0.0,0.0,0.0,0.0,0.0,0.0,0.0,0.0,0.0,0.0,0.0,0.0,0.0,0.0,0.0,0.0,0.0,0.0,0.0,0.0,0.0,0.0,0.0,0.0,0.0,0.0,0.0,0.0,0.0,0.0,0.0,0.0,0.0,0.0,0.0,0.0,0.0,0.0,0.0,0.0,0.0,0.0,0.0,0.0,0.0,0.0,0.0,0.0,0.0,0.0,0.0,0.0,0.0,0.0,0.0,0.0,0.0,0.0,0.0,0.0,0.0,0.0,0.0,0.0,0.0,0.0,0.0,0.0,0.0,0.0,0.0,0.0,0.0,0.0,0.0,0.0,0.0,0.0,0.0,0.0,0.0,0.0,0.0,0.0,0.0,0.0,0.0,0.0,0.0,1.2362,1.23,1.2692,1.3594,1.3437,1.4205,0.0,0.0,0.0,0.0,0.0,0.0,0.0,0.0,0.0,0.0,0.0,0.0,0.0,0.0,0.0,0.0,0.0,0.0,0.0,0.0,0.0,0.0,0.0,0.0,0.0,0.0,0.0,0.0,0.0,0.0,0.0,0.0,0.0,0.0,0.0,0.0,0.0,0.0,0.0,0.0,0.0,0.0,0.0,0.0,0.0,0.0,0.0,0.0,0.0,0.0,0.0,0.0,0.0,0.0,0.0,0.0,0.0,0.0,0.0,0.0,0.0,0.0,0.0,0.0,0.0,0.0,0.0,0.0,0.0,0.0,0.0,0.0,0.0,0.0,0.0,0.0,0.0,0.0,0.0,0.0,0.0,0.0,0.0,0.0,0.0,0.0,0.0,0.0,0.0,0.0,0.0,0.0,0.0,0.0,0.0,0.0,0.0,0.0,0.0,0.0,0.0,0.0,0.0,0.0,0.0,0.0,0.0,0.0,0.0,1.3474,1.3027,1.3178,1.3991,1.3816,1.4556,1.6319,0.0,0.0,0.0,0.0,0.0,0.0,0.0,0.0,0.0,0.0,0.0,0.0,0.0,0.0,0.0,0.0,0.0,0.0,0.0,0.0,0.0,0.0,0.0,0.0,0.0,0.0,0.0,0.0,0.0,0.0,0.0,0.0,0.0,0.0,0.0,0.0,0.0,0.0,0.0,0.0,0.0,0.0,0.0,0.0,0.0,0.0,0.0,0.0,0.0,0.0,0.0,0.0,0.0,0.0,0.0,0.0,0.0,0.0,0.0,0.0,0.0,0.0,0.0,0.0,0.0,0.0,0.0,0.0,0.0,0.0,0.0,0.0,0.0,0.0,0.0,0.0,0.0,0.0,0.0,0.0,0.0,0.0,0.0,0.0,0.0,0.0,0.0,0.0,0.0,0.0,0.0,0.0,0.0,0.0,0.0,0.0,0.0,0.0,0.0,0.0,0.0,0.0,0.0,0.0,0.0,0.0,0.0,0.0,1.5494,1.5001,1.4636,1.4429,1.4653,1.5126,0.0,0.0,0.0,0.0,0.0,0.0,0.0,0.0,0.0,0.0,0.0,0.0,0.0,0.0,0.0,0.0,0.0,0.0,0.0,0.0,0.0,0.0,0.0,0.0,0.0,0.0,0.0,0.0,0.0,0.0,0.0,0.0,0.0,0.0,0.0,0.0,0.0,0.0,0.0,0.0,0.0,0.0,0.0,0.0,0.0,0.0,0.0,0.0,0.0,0.0,0.0,0.0,0.0,0.0,0.0,0.0,0.0,0.0,0.0,0.0,0.0,0.0,0.0,0.0,0.0,0.0,0.0,0.0,0.0,0.0,0.0,0.0,0.0,0.0,0.0,0.0,0.0,0.0,0.0,0.0,0.0,0.0,0.0,0.0,0.0,0.0,0.0,0.0,0.0,0.0,0.0,0.0,0.0,0.0,0.0,0.0,0.0,0.0,0.0,0.0,0.0,0.0,0.0,0.0,0.0,0.0,0.0,0.0,0.0,1.5746,1.6249,1.6547,1.6556,1.6024,1.6241,0.0,0.0,0.0,0.0,0.0,0.0,0.0,0.0,0.0,0.0,0.0,0.0,0.0,0.0,0.0,0.0,0.0,0.0,0.0,0.0,0.0,0.0,0.0,0.0,0.0,0.0,0.0,0.0,0.0,0.0,0.0,0.0,0.0,0.0,0.0,0.0,0.0,0.0,0.0,0.0,0.0,0.0,0.0,0.0,0.0,0.0,0.0,0.0,0.0,0.0,0.0,0.0,0.0,0.0,0.0,0.0,0.0,0.0,0.0,0.0,0.0,0.0,0.0,0.0,0.0,0.0,0.0,0.0,0.0,0.0,0.0,0.0,0.0,0.0,0.0,0.0,0.0,0.0,0.0,0.0,0.0,0.0,0.0,0.0,0.0,0.0,0.0,0.0,0.0,0.0,0.0,0.0,0.0,0.0,0.0,0.0,0.0,0.0,0.0,0.0,0.0,0.0,0.0,0.0,0.0,0.0,0.0,0.0,1.6261,1.638,1.7565,1.8307,1.8542,1.7899,1.7808,0.0,0.0,0.0,0.0,0.0,0.0,0.0,0.0,0.0,0.0,0.0,0.0,0.0,0.0,0.0,0.0,0.0,0.0,0.0,0.0,0.0,0.0,0.0,0.0,0.0,0.0,0.0,0.0,0.0,0.0,0.0,0.0,0.0,0.0,0.0,0.0,0.0,0.0,0.0,0.0,0.0,0.0,0.0,0.0,0.0,0.0,0.0,0.0,0.0,0.0,0.0,0.0,0.0,0.0,0.0,0.0,0.0,0.0,0.0,0.0,0.0,0.0,0.0,0.0,0.0,0.0,0.0,0.0,0.0,0.0,0.0,0.0,0.0,0.0,0.0,0.0,0.0,0.0,0.0,0.0,0.0,0.0,0.0,0.0,0.0,0.0,0.0,0.0,0.0,0.0,0.0,0.0,0.0,0.0,0.0,0.0,0.0,0.0,0.0,0.0,0.0,0.0,0.0,0.0,0.0,0.0,0.0,0.0,1.6694,1.7436,1.8901,1.9837,2.0218,1.975,1.9443,0.0,0.0,0.0,0.0,0.0,0.0,0.0,0.0,0.0,0.0,0.0,0.0,0.0,0.0,0.0,0.0,0.0,0.0,0.0,0.0,0.0,0.0,0.0,0.0,0.0,0.0,0.0,0.0,0.0,0.0,0.0,0.0,0.0,0.0,0.0,0.0,0.0,0.0,0.0,0.0,0.0,0.0,0.0,0.0,0.0,0.0,0.0,0.0,0.0,0.0,0.0,0.0,0.0,0.0,0.0,0.0,0.0,0.0,0.0,0.0,0.0,0.0,0.0,0.0,0.0,0.0,0.0,0.0,0.0,0.0,0.0,0.0,0.0,0.0,0.0,0.0,0.0,0.0,0.0,0.0,0.0,0.0,0.0,0.0,0.0,0.0,0.0,0.0,0.0,0.0,0.0,0.0,0.0,0.0,0.0,0.0,0.0,0.0,0.0,0.0,0.0,0.0,0.0,0.0,0.0,0.0,0.0,0.0,1.7865,1.898,2.0101,2.0859,2.1191,2.009,1.9711,0.0,0.0,0.0,0.0,0.0,0.0,0.0,0.0,0.0,0.0,0.0,0.0,0.0,0.0,0.0,0.0,0.0,0.0,0.0,0.0,0.0,0.0,0.0,0.0,0.0,0.0,0.0,0.0,0.0,0.0,0.0,0.0,0.0,0.0,0.0,0.0,0.0,0.0,0.0,0.0,0.0,0.0,0.0,0.0,0.0,0.0,0.0,0.0,1.5844,0.0,0.0,0.0,0.0,0.0,0.0,0.0,0.0,0.0,0.0,0.0,0.0,0.0,0.0,0.0,0.0,0.0,0.0,0.0,0.0,0.0,0.0,0.0,0.0,0.0,0.0,0.0,0.0,0.0,0.0,0.0,0.0,0.0,0.0,0.0,0.0,0.0,0.0,0.0,0.0,0.0,0.0,0.0,0.0,0.0,0.0,0.0,0.0,0.0,0.0,0.0,0.0,0.0,0.0,0.0,0.0,0.0,0.0,0.0,1.931,1.9699,2.095,2.176,2.2005,2.1252,2.087,0.0,0.0,0.0,0.0,0.0,0.0,0.0,0.0,0.0,0.0,0.0,0.0,0.0,0.0,0.0,0.0,0.0,0.0,0.0,0.0,0.0,0.0,0.0,0.0,0.0,0.0,0.0,0.0,0.0,0.0,0.0,0.0,0.0,0.0,0.0,0.0,0.0,0.0,0.0,0.0,0.0,0.0,0.0,0.0,0.0,0.0,0.0,0.0,0.0,0.0,0.0,0.0,0.0,0.0,0.0,0.0,0.0,0.0,0.0,0.0,0.0,0.0,0.0,0.0,0.0,0.0,0.0,0.0,0.0,0.0,0.0,0.0,0.0,0.0,0.0,0.0,0.0,0.0,0.0,0.0,0.0,0.0,0.0,0.0,0.0,0.0,0.0,0.0,0.0,0.0,0.0,0.0,0.0,0.0,0.0,0.0,0.0,0.0,0.0,0.0,0.0,0.0,0.0,0.0,0.0,0.0,0.0,1.9576,2.0551,2.0488,2.1774,2.2633,2.2924,2.2763,2.2427,2.1897,0.0,0.0,0.0,0.0,0.0,0.0,0.0,0.0,0.0,0.0,0.0,0.0,0.0,0.0,0.0,0.0,0.0,0.0,0.0,0.0,0.0,0.0,0.0,0.0,0.0,0.0,0.0,0.0,0.0,0.0,0.0,0.0,0.0,0.0,0.0,0.0,0.0,0.0,1.5705,1.6845,0.0,0.0,0.0,0.0,0.0,0.0,0.0,0.0,1.687,0.0,0.0,0.0,0.0,0.0,0.0,0.0,0.0,0.0,0.0,0.0,0.0,0.0,0.0,0.0,0.0,0.0,0.0,0.0,0.0,0.0,0.0,0.0,0.0,0.0,0.0,0.0,0.0,0.0,0.0,0.0,0.0,0.0,0.0,0.0,0.0,0.0,0.0,0.0,0.0,0.0,0.0,0.0,0.0,0.0,0.0,0.0,0.0,0.0,0.0,0.0,0.0,0.0,0.0,0.0,0.0,2.0374,1.9658,2.0357,2.2664,2.3169,2.3566,2.3945,2.4234,2.3893,2.2811,0.0,0.0,0.0,0.0,0.0,0.0,0.0,0.0,0.0,0.0,0.0,0.0,0.0,0.0,0.0,0.0,0.0,0.0,0.0,0.0,0.0,0.0,0.0,0.0,0.0,0.0,0.0,0.0,0.0,0.0,0.0,0.0,0.0,0.0,0.0,0.0,0.0,0.0,0.0,1.8654,1.9409,0.0,0.0,0.0,0.0,0.0,0.0,0.0,0.0,1.7204,0.0,0.0,0.0,0.0,0.0,0.0,0.0,0.0,0.0,0.0,0.0,0.0,0.0,0.0,0.0,0.0,0.0,0.0,0.0,0.0,0.0,0.0,0.0,0.0,0.0,0.0,0.0,0.0,0.0,0.0,0.0,0.0,0.0,0.0,0.0,0.0,0.0,0.0,0.0,0.0,0.0,0.0,0.0,0.0,0.0,0.0,0.0,0.0,0.0,0.0,0.0,0.0,0.0,0.0,0.0,2.0102,2.0857,2.1897,2.3265,2.3973,2.4464,2.4748,2.4415,2.4016,0.0,0.0,0.0,0.0,0.0,0.0,0.0,0.0,0.0,0.0,0.0,0.0,0.0,0.0,0.0,0.0,0.0,0.0,0.0,0.0,0.0,0.0,0.0,0.0,0.0,0.0,0.0,0.0,0.0,0.0,0.0,0.0,0.0,0.0,0.0,0.0,0.0,0.0,0.0,0.0,1.9039,1.9467,1.9725,0.0,0.0,0.0,0.0,0.0,0.0,1.7748,1.7562,0.0,0.0,0.0,0.0,0.0,0.0,0.0,0.0,0.0,0.0,0.0,0.0,0.0,0.0,0.0,0.0,0.0,0.0,0.0,0.0,0.0,0.0,0.0,0.0,0.0,0.0,0.0,0.0,0.0,0.0,0.0,0.0,0.0,0.0,0.0,0.0,0.0,0.0,0.0,0.0,0.0,0.0,0.0,0.0,0.0,0.0,0.0,0.0,0.0,0.0,0.0,0.0,0.0,0.0,0.0,1.9625,2.1851,2.3243,2.3611,2.4534,2.5123,2.533,2.4451,2.4017,0.0,0.0,0.0,0.0,0.0,0.0,0.0,0.0,0.0,0.0,0.0,0.0,0.0,0.0,0.0,0.0,0.0,0.0,0.0,0.0,0.0,0.0,0.0,0.0,0.0,0.0,0.0,0.0,0.0,0.0,0.0,0.0,0.0,0.0,0.0,0.0,0.0,0.0,0.0,0.0,0.0,1.9836,2.0306,2.0685,0.0,0.0,0.0,0.0,1.9818,1.8888,0.0,0.0,0.0,0.0,0.0,0.0,0.0,0.0,0.0,0.0,0.0,0.0,0.0,0.0,0.0,0.0,0.0,0.0,0.0,0.0,0.0,0.0,0.0,0.0,0.0,0.0,0.0,0.0,0.0,0.0,0.0,0.0,0.0,0.0,0.0,0.0,0.0,0.0,0.0,0.0,0.0,0.0,0.0,0.0,0.0,0.0,0.0,0.0,0.0,0.0,0.0,0.0,0.0,0.0,0.0,0.0,2.0415,2.1342,2.2742,2.4527,2.4928,2.5233,2.5543,2.5112,2.4655,0.0,0.0,0.0,0.0,0.0,0.0,0.0,0.0,0.0,0.0,0.0,0.0,0.0,0.0,0.0,0.0,0.0,0.0,0.0,0.0,0.0,0.0,0.0,0.0,0.0,0.0,0.0,0.0,0.0,0.0,0.0,0.0,0.0,0.0,0.0,0.0,0.0,0.0,0.0,0.0,0.0,2.2289,2.2354,2.1924,2.153,0.0,0.0,2.0503,2.0578,1.9944,0.0,0.0,0.0,0.0,0.0,0.0,0.0,0.0,0.0,0.0,0.0,0.0,0.0,0.0,0.0,0.0,0.0,0.0,0.0,0.0,0.0,0.0,0.0,0.0,0.0,0.0,0.0,0.0,0.0,0.0,0.0,0.0,0.0,0.0,0.0,0.0,0.0,0.0,0.0,0.0,0.0,0.0,0.0,0.0,0.0,0.0,0.0,0.0,0.0,0.0,0.0,0.0,0.0,0.0,0.0,1.9498,2.1451,2.2179,2.3504,2.5496,2.5383,2.559,2.6243,2.5058,2.4315,0.0,0.0,0.0,0.0,0.0,0.0,0.0,0.0,0.0,0.0,0.0,0.0,0.0,0.0,0.0,0.0,0.0,0.0,0.0,0.0,0.0,0.0,0.0,0.0,0.0,0.0,0.0,0.0,0.0,0.0,0.0,0.0,0.0,0.0,0.0,0.0,0.0,0.0,0.0,0.0,0.0,0.0,2.2583,2.2752,0.0,0.0,0.0,2.2094,2.2796,0.0,0.0,0.0,0.0,0.0,0.0,0.0,0.0,0.0,0.0,0.0,0.0,0.0,0.0,0.0,0.0,0.0,0.0,0.0,0.0,0.0,0.0,0.0,0.0,0.0,0.0,0.0,0.0,0.0,0.0,0.0,0.0,0.0,0.0,0.0,0.0,0.0,0.0,0.0,0.0,0.0,0.0,0.0,0.0,0.0,0.0,0.0,0.0,0.0,0.0,0.0,0.0,0.0,0.0,0.0,0.0,0.0,2.2213,2.3272,2.4596,2.6142,2.6042,2.6231,2.6762,2.5074,0.0,0.0,0.0,0.0,0.0,0.0,0.0,0.0,0.0,0.0,0.0,0.0,0.0,0.0,0.0,0.0,0.0,0.0,0.0,0.0,0.0,0.0,0.0,0.0,0.0,0.0,0.0,1.3833,0.0,0.0,0.0,0.0,0.0,0.0,0.0,0.0,0.0,0.0,0.0,0.0,0.0,0.0,2.1919,2.3246,2.3804,2.4088,0.0,0.0,2.3684,2.447,2.324,2.2124,0.0,0.0,0.0,0.0,0.0,0.0,0.0,0.0,0.0,0.0,0.0,0.0,0.0,0.0,0.0,0.0,0.0,0.0,0.0,0.0,0.0,0.0,0.0,0.0,0.0,0.0,0.0,0.0,0.0,0.0,0.0,0.0,0.0,0.0,0.0,0.0,0.0,0.0,0.0,0.0,0.0,0.0,0.0,0.0,0.0,0.0,0.0,0.0,0.0,0.0,0.0,0.0,0.0,0.0,0.0,2.241,2.4416,2.5718,2.6296,2.7059,2.7254,2.6801,2.5513,2.4645,0.0,0.0,0.0,0.0,0.0,0.0,0.0,0.0,0.0,0.0,0.0,0.0,0.0,0.0,0.0,0.0,0.0,0.0,0.0,0.0,0.0,0.0,0.0,0.0,0.0,0.0,0.0,0.0,0.0,0.0,0.0,0.0,0.0,0.0,0.0,0.0,0.0,0.0,0.0,0.0,0.0,2.3894,2.5214,2.5438,2.5465,0.0,0.0,2.5229,2.4694,2.3962,2.3302,2.2743,0.0,0.0,0.0,0.0,0.0,0.0,0.0,0.0,0.0,0.0,0.0,0.0,0.0,0.0,0.0,0.0,0.0,0.0,0.0,0.0,0.0,0.0,0.0,0.0,0.0,0.0,0.0,0.0,0.0,0.0,0.0,0.0,0.0,0.0,0.0,0.0,0.0,0.0,0.0,0.0,0.0,0.0,0.0,0.0,0.0,0.0,0.0,0.0,0.0,0.0,0.0,0.0,0.0,2.182,2.4099,2.512,2.6393,2.7873,2.7777,2.7626,2.7532,2.6262,2.5141,0.0,0.0,0.0,0.0,0.0,0.0,0.0,0.0,0.0,0.0,0.0,0.0,0.0,0.0,0.0,0.0,0.0,0.0,0.0,0.0,0.0,0.0,0.0,0.0,0.0,0.0,0.0,0.0,1.4721,1.501,1.5422,0.0,0.0,0.0,0.0,0.0,0.0,0.0,0.0,0.0,0.0,2.4209,2.5533,2.5798,0.0,0.0,2.5999,2.5738,2.5836,2.5051,2.4184,2.3383,2.2687,0.0,0.0,0.0,0.0,0.0,0.0,0.0,0.0,0.0,0.0,0.0,0.0,0.0,0.0,0.0,0.0,0.0,0.0,0.0,0.0,0.0,0.0,0.0,0.0,0.0,0.0,0.0,0.0,0.0,0.0,0.0,0.0,0.0,0.0,0.0,0.0,0.0,0.0,0.0,0.0,0.0,0.0,0.0,0.0,0.0,0.0,0.0,0.0,0.0,0.0,0.0,0.0,2.2831,2.5504,2.6102,2.7228,2.8958,2.8598,2.8357,2.8295,2.7045,2.5867,0.0,0.0,0.0,0.0,0.0,0.0,0.0,0.0,0.0,0.0,0.0,0.0,0.0,0.0,0.0,0.0,0.0,0.0,0.0,0.0,0.0,0.0,0.0,0.0,0.0,0.0,0.0,0.0,1.513,1.5289,1.5739,0.0,0.0,0.0,0.0,0.0,0.0,0.0,0.0,0.0,0.0,2.5142,2.6279,2.6745,2.7069,2.7412,2.7061,2.679,2.6878,2.6346,2.5516,2.4428,0.0,0.0,0.0,0.0,0.0,0.0,0.0,0.0,0.0,0.0,0.0,0.0,0.0,0.0,0.0,0.0,0.0,0.0,0.0,0.0,0.0,0.0,0.0,0.0,0.0,0.0,0.0,0.0,0.0,0.0,1.7901,0.0,0.0,0.0,0.0,0.0,0.0,0.0,0.0,0.0,0.0,0.0,0.0,0.0,0.0,0.0,0.0,0.0,0.0,0.0,0.0,0.0,0.0,2.4113,2.6251,2.7375,2.8294,2.9017,2.9604,2.9652,2.9059,2.7787,2.6825,2.6243,0.0,0.0,0.0,0.0,0.0,0.0,0.0,0.0,0.0,0.0,0.0,0.0,0.0,0.0,0.0,0.0,0.0,0.0,0.0,0.0,0.0,0.0,0.0,0.0,0.0,0.0,1.5754,1.5784,1.5784,0.0,0.0,0.0,0.0,0.0,0.0,0.0,0.0,0.0,0.0,2.5401,2.7013,2.7831,2.8631,2.9022,2.8958,2.8928,2.8609,2.7738,2.7747,2.7446,0.0,0.0,0.0,0.0,0.0,0.0,0.0,0.0,0.0,0.0,0.0,0.0,0.0,0.0,0.0,0.0,0.0,0.0,0.0,0.0,0.0,0.0,0.0,0.0,0.0,0.0,0.0,1.9517,1.9551,0.0,0.0,0.0,0.0,0.0,0.0,0.0,0.0,0.0,0.0,0.0,2.4024,2.4173,0.0,0.0,0.0,0.0,0.0,0.0,0.0,0.0,0.0,0.0,0.0,0.0,2.4912,2.7032,2.8262,2.9217,2.9902,3.0063,2.9851,2.9249,2.8813,2.784,2.6327,0.0,0.0,0.0,0.0,0.0,0.0,0.0,0.0,0.0,0.0,0.0,0.0,0.0,0.0,0.0,0.0,0.0,0.0,0.0,0.0,0.0,0.0,0.0,0.0,0.0,1.5806,0.0,0.0,0.0,0.0,0.0,0.0,0.0,0.0,0.0,0.0,0.0,2.3422,2.5342,2.6303,2.7288,2.8618,2.9309,2.9777,0.0,0.0,0.0,0.0,0.0,0.0,0.0,0.0,0.0,0.0,0.0,0.0,0.0,0.0,2.7878,2.3755,2.2658,2.2483,2.2881,0.0,0.0,0.0,0.0,0.0,0.0,0.0,0.0,0.0,0.0,0.0,0.0,0.0,0.0,0.0,0.0,2.0982,0.0,0.0,0.0,0.0,0.0,0.0,0.0,0.0,2.5312,2.5738,2.5874,2.5773,2.5394,0.0,2.5185,2.4219,0.0,0.0,0.0,0.0,0.0,0.0,0.0,0.0,2.5991,2.7836,2.9095,3.0071,3.0753,3.0936,3.0695,3.0079,2.9572,2.8374,2.6351,2.4529,2.3228,0.0,0.0,0.0,0.0,0.0,0.0,0.0,0.0,0.0,0.0,0.0,0.0,0.0,0.0,0.0,0.0,0.0,0.0,0.0,0.0,0.0,0.0,0.0,1.6114,0.0,0.0,0.0,0.0,0.0,0.0,0.0,0.0,0.0,2.308,2.3895,2.5142,2.6907,2.7645,2.8416,2.9587,0.0,0.0,0.0,0.0,0.0,0.0,0.0,2.8782,2.9388,2.9334,2.923,2.9277,2.9595,2.987,2.9885,0.0,0.0,2.6479,2.5402,2.5222,2.5611,2.5495,2.548,2.5902,2.6527,2.7111,0.0,0.0,0.0,0.0,0.0,0.0,0.0,0.0,2.3712,2.3771,0.0,2.3037,0.0,0.0,0.0,0.0,0.0,2.5372,0.0,0.0,2.757,2.8224,2.8732,2.8805,2.8123,2.6938,2.7862,2.738,2.5563,2.4708,0.0,0.0,0.0,0.0,0.0,0.0,2.731,2.8665,2.9912,3.0871,3.1539,3.216,3.2177,3.1479,3.0144,2.8468,2.6517,2.6293,2.5304,2.3272,2.2487,0.0,0.0,0.0,0.0,0.0,0.0,0.0,0.0,0.0,0.0,0.0,0.0,0.0,0.0,0.0,0.0,0.0,0.0,0.0,0.0,1.6793,0.0,0.0,0.0,0.0,0.0,0.0,0.0,0.0,0.0,0.0,2.4234,2.624,2.7943,2.8259,0.0,0.0,0.0,0.0,3.2087,3.1912,3.194,3.1877,3.1539,3.1588,3.1411,3.0693,0.0,0.0,3.0635,3.026,3.0242,3.0167,3.1282,3.1958,3.1552,3.034,2.9633,2.9605,2.9079,2.8723,2.8783,2.9229,2.9708,2.9204,0.0,0.0,0.0,0.0,2.6177,2.6236,2.669,2.5908,2.5723,2.5941,2.561,0.0,0.0,0.0,0.0,0.0,0.0,2.8425,2.9151,2.9879,3.0249,3.0282,3.0301,2.9952,2.9364,2.9655,2.956,2.909,2.8328,2.6806,2.4638,0.0,0.0,0.0,0.0,2.8292,3.0085,3.0991,3.1734,3.2348,3.2547,3.2304,3.1599,3.0164,2.8887,2.7824,2.6832,2.5778,2.4646,2.342,0.0,0.0,0.0,0.0,0.0,0.0,0.0,0.0,0.0,0.0,0.0,0.0,0.0,0.0,0.0,0.0,0.0,0.0,0.0,1.8042,1.8559,1.9023,0.0,0.0,0.0,0.0,0.0,0.0,0.0,0.0,0.0,2.9215,2.8704,2.8706,0.0,0.0,3.0644,3.1475,3.2446,3.3181,3.341,3.3623,0.0,0.0,3.273,3.259,3.346,3.4287,3.4523,3.3712,3.3375,3.3162,3.3002,3.3237,3.3394,3.3274,3.2624,3.2049,3.1974,3.1474,3.1215,3.164,3.1912,3.214,3.2655,3.0352,2.9025,2.8738,2.9065,2.8517,2.8557,2.8971,2.8506,2.8473,2.8788,2.8575,2.8645,2.8899,2.8628,0.0,0.0,0.0,3.055,3.1014,3.1715,3.2158,3.2282,3.2226,3.2244,3.2232,3.1967,3.1867,3.1926,3.1312,2.9962,2.7911,0.0,0.0,2.7613,2.8295,2.9383,3.0851,3.1813,3.2584,3.3195,3.2862,3.2492,3.2023,3.0599,2.9383,2.8435,2.7585,2.6524,2.5228,2.4315,2.3395,0.0,0.0,0.0,0.0,0.0,0.0,0.0,0.0,0.0,0.0,0.0,1.748,0.0,0.0,0.0,0.0,1.781,1.8439,1.9755,2.0019,0.0,0.0,0.0,0.0,0.0,0.0,0.0,2.7607,2.899,3.0378,3.1902,3.1332,3.1112,3.2114,3.2197,3.2448,3.3195,0.0,3.4329,3.4579,3.4757,3.4811,3.4628,3.4025,3.3983,3.5143,3.5321,3.543,3.5378,3.4967,3.4744,3.4857,3.4845,3.4878,3.5139,3.4847,3.4283,3.3558,3.3088,3.2951,3.3332,3.3408,3.3529,3.6039,3.4573,3.2588,3.1606,3.1376,3.1237,3.118,3.1197,3.119,3.1628,3.2245,3.1641,3.1759,3.2344,3.1691,0.0,3.1488,3.2242,3.2598,3.2672,3.3423,3.408,3.4656,3.4538,3.477,3.5278,3.4606,3.4301,3.4262,3.3727,3.3113,3.2349,3.0234,2.9203,2.9288,2.9939,3.0608,3.1291,3.2494,3.3428,3.4073,3.3211,3.2724,3.2724,3.1243,2.9791,2.8504,2.8345,2.7367,2.5325,2.5135,2.405,2.1854,0.0,0.0,0.0,0.0,0.0,0.0,0.0,0.0,0.0,0.0,0.0,0.0,0.0,0.0,0.0,1.919,0.0,2.1744,2.138,0.0,0.0,0.0,2.2879,2.4262,2.6172,2.7553,2.7961,0.0,0.0,3.299,3.3891,3.4437,3.4362,3.4709,3.5066,3.5365,3.5408,3.5502,3.553,3.5579,3.5626,3.5672,3.5513,3.5588,3.6085,3.5575,3.5496,3.5951,3.5609,3.5437,3.5924,3.6141,3.6328,3.6968,3.7016,3.6614,3.4866,3.4349,3.4227,3.4303,3.4273,3.4303,3.7432,3.706,3.6535,3.4996,3.2899,3.2844,3.2834,3.2834,3.2834,3.2942,3.3104,3.2956,3.2983,3.3136,3.2966,3.3186,3.3755,3.4489,3.5148,3.5763,3.6473,3.6854,3.6917,3.6898,3.6882,3.6924,3.6757,3.6721,3.6767,3.557,3.4914,3.4688,3.31,3.205,3.1549,3.1691,3.2357,3.3506,3.3827,3.4315,3.4939,3.3701,3.2994,3.3005,3.0987,2.9478,2.8655,2.8035,2.7197,2.6069,2.5419,2.4487,2.3169,2.2671,0.0,0.0,0.0,0.0,0.0,0.0,0.0,0.0,0.0,1.965,1.9338,0.0,1.9761,0.0,2.1598,2.2445,2.3223,2.371,0.0,0.0,2.5788,2.6378,2.7783,2.8511,2.9586,3.1436,3.2342,3.35,3.5331,3.5734,3.6107,3.6598,3.586,3.5351,3.5534,3.6021,3.6381,3.6527,3.694,3.7309,3.723,3.728,3.7252,3.743,3.7185,3.7051,3.706,3.6847,3.6681,3.6795,3.7202,3.7561,3.7763,3.8216,3.8418,3.7903,3.6925,3.606,3.606,3.5999,3.5891,3.8684,3.8396,3.8396,3.7217,3.5402,3.5391,3.5391,3.5391,3.5408,3.5391,3.5402,3.5391,3.5391,3.5408,3.5391,3.5639,3.6045,3.6439,3.6874,3.7308,3.7719,3.8022,3.8282,3.8209,3.8332,3.8556,3.8224,3.8127,3.8121,3.7099,3.6584,3.6591,3.5487,3.4703,3.429,3.3298,3.3324,3.4368,3.4684,3.4981,3.5252,3.3851,3.3115,3.3054,3.0895,2.9388,2.8714,2.7932,2.716,2.6432,2.5904,2.5227,2.4363,2.3528,2.2594,0.0,0.0,0.0,0.0,0.0,0.0,0.0,0.0,0.0,0.0,0.0,2.1781,2.3069,2.3574,2.4206,2.5134,2.5682,2.6535,2.7923,2.8133,2.8784,3.0238,3.0781,3.1696,3.3363,3.422,3.5164,3.6449,3.6878,3.7196,3.7639,3.7004,3.6525,3.6556,3.6901,3.7226,3.7359,3.7663,3.7905,3.7905,3.7905,3.7905,3.7921,3.8118,3.8236,3.8131,3.8326,3.8457,3.8413,3.8682,3.8934,3.8966,3.9219,3.9503,3.9298,3.867,3.8013,3.781,3.77,3.7669,3.996,3.9288,3.9276,3.8853,3.8176,3.8176,3.8079,3.791,3.791,3.791,3.791,3.791,3.791,3.791,3.791,3.7944,3.8041,3.8029,3.8096,3.8176,3.8181,3.8514,3.9123,3.9016,3.932,3.9889,3.9274,3.8971,3.8937,3.8352,3.8046,3.8007,3.7308,3.6931,3.6851,3.4962,3.419,3.4641,3.5217,3.5469,3.5332,3.3885,3.3091,3.2923,3.0801,2.9293,2.8608,2.7818,2.7121,2.6561,2.6391,2.5971,2.5221,2.4459,2.3551,0.0,2.2474,0.0,0.0,0.0,0.0,0.0,0.0,0.0,0.0,2.2702,2.3988,2.5191,2.5446,2.6047,2.7228,2.7531,2.8227,2.9546,2.9959,3.07,3.205,3.2934,3.3747,3.4623,3.583,3.672,3.7009,3.7551,3.7905,3.7906,3.7983,3.7953,3.7899,3.7892,3.7931,3.8075,3.8185,3.8439,3.8407,3.8328,3.8328,3.836,3.8778,3.9147,3.9147,3.9629,4.0044,4.0045,4.0062,4.019,4.0236,4.0285,4.0335,4.0196,4.0023,3.9708,3.9171,3.8949,3.909,4.1457,4.0785,4.0768,4.0358,3.9694,3.969,3.8988,3.791,3.791,3.791,3.791,3.791,3.791,3.791,3.791,3.8232,3.8797,3.8814,3.9119,3.9677,3.9694,3.9774,3.988,3.9872,3.991,4.0045,3.9927,3.9859,3.9825,3.914,3.8785,3.8768,3.8058,3.7686,3.7669,0.0,0.0,0.0,3.5538,3.5554,3.5493,3.4103,3.3056,3.2435,3.0297,0.0,2.799,2.7265,2.6767,2.6589,2.6571,0.0,0.0,0.0,0.0,0.0,0.0,0.0,0.0,0.0,0.0,0.0,2.485,2.4698,2.4301,2.5477,2.6401,2.6761,2.7851,2.8728,2.9156,2.9754,3.0479,3.134,3.2034,3.284,3.3837,3.4637,3.547,3.6328,3.6676,3.7057,3.7615,3.7825,3.7919,3.7998,3.8515,3.8925,3.8912,3.8492,3.845,3.9051,3.9537,3.994,4.0019,3.9954,3.9859,4.0037,3.9981,4.0065,4.0082,4.0102,4.0139,4.0187,4.054,4.0924,4.0924,4.1341,4.1645,4.1646,4.1614,4.1135,3.9629,3.9186,3.909,4.2328,0.0,4.2001,4.1724,0.0,4.1299,4.0824,4.002,3.9305,3.8971,3.8983,3.8988,3.8971,3.8971,3.8983,3.9186,3.9525,3.9542,3.9948,4.0629,4.0658,4.0844,4.12,4.1183,4.1183,4.1183,4.1166,4.1166,4.1149,4.0443,4.0087,4.007,3.8988,3.8447,3.843,3.8079,3.7347,3.6197,3.5797,3.5628,3.5566,3.4506,3.3603,3.2824,0.0,0.0,0.0,0.0,0.0,0.0,0.0,0.0,0.0,0.0,0.0,2.6005,2.5785,2.5806,2.6106,2.6229,2.6595,2.7319,2.7997,2.803,2.724,2.7893,2.8528,2.8949,2.9996,3.0842,3.1342,3.21,3.288,3.3619,3.4134,3.475,3.5502,3.6001,3.6578,3.7345,3.7548,3.7707,3.8101,3.8135,3.8311,3.8647,3.9058,3.9487,3.9746,3.9568,3.9548,3.993,4.0221,4.0541,4.0633,4.0648,4.0692,4.0736,4.0983,4.1166,4.1184,4.1399,4.155,4.1521,4.1781,4.1975,4.1881,4.2124,4.2317,4.227,4.2238,4.1965,4.0865,4.061,4.0593,4.3112,4.2979,4.3009,4.2808,4.2563,4.255,4.2471,4.2255,0.0,0.0,0.0,4.0485,4.0485,4.0502,4.0502,4.0485,4.0489,4.0502,4.0811,4.139,4.1407,4.1711,4.2286,4.2303,4.2303,4.2303,4.2303,4.2303,4.2269,4.1677,4.139,4.1288,4.0155,3.9525,3.9343,3.8531,3.7804,3.719,3.6405,3.5938,3.5814,3.5081,3.4258,3.3423,3.2087,3.0978,3.0087,2.948,2.9092,2.8929,2.8938,2.8957,2.8928,2.8425,2.814,2.8119,2.811,2.8135,2.8245,2.8743,2.9446,3.0372,3.1061,3.096,2.9753,3.0046,3.056,3.1192,3.2027,3.284,3.3526,3.42,3.4972,3.575,3.5964,3.6364,3.704,3.7209,3.7532,3.8165,3.8288,3.8414,3.8642,3.8703,3.8947,3.9579,3.9966,4.0195,4.0748,4.083,4.0717,4.081,4.1036,4.1115,4.1173,4.1283,4.126,4.1463,4.1902,4.226,4.2342,4.272,4.3003,4.2815,4.2946,4.2836,4.2711,4.268,4.2649,4.2523,4.2523,4.2476,4.2317,4.2254,4.2142,4.4338,4.3761,4.3744,4.3355,4.2761,4.2761,4.2649,4.2438,4.2132,4.1995,4.1995,4.1995,4.1995,4.1978,4.1982,4.1995,4.1995,4.1995,4.2063,0.0,4.2147,4.2185,4.2286,4.2303,4.2303,4.2303,4.2303,4.2303,4.2286,4.2215,4.2147,4.2117,4.1944,4.1491,4.0832,3.9529,3.8797,3.8667,3.7956,3.728,3.6631,3.5864,3.4782,3.3446,3.2621,3.1431,2.9984,2.9849,2.9422,2.8721,2.9247,2.956,2.9502,2.9716,3.0027,3.0365,3.0179,3.0216,3.0649,3.0795,3.1407,3.2692,3.3586,3.3098,3.0869,3.186,3.2709,3.2982,3.4193,3.5154,3.5418,3.5525,3.5952,3.662,3.6952,3.7379,3.8074,3.8335,3.849,3.865,3.8708,3.9002,3.9476,3.9654,3.9932,4.0664,4.1223,4.1907,4.2287,4.2082,4.1741,4.1909,4.2381,4.2692,4.2609,4.2755,4.2672,4.2786,4.2817,4.2914,4.2913,4.3029,4.3128,4.3082,4.3082,4.3052,4.3021,4.3036,4.299,4.2943,4.2944,4.2928,4.2881,4.2805,4.2618,4.5018,4.4726,4.4709,4.4481,4.4119,4.4023,4.394,4.3856,4.3789,4.3192,4.2333,4.2303,4.2303,4.2303,4.2303,4.2303,4.2303,4.2303,4.2536,4.2865,4.2912,4.3132,4.3518,4.3552,4.3535,4.3552,4.3552,4.3535,4.3518,4.3115,4.2912,4.2878,4.2489,4.213,4.1779,4.1132,4.0595,4.0155,3.8684,3.7724,3.7398,3.6973,3.6032,3.4582,3.41,3.3149,3.1653,3.1576,3.1377,3.1008,3.1281,3.1423,3.1403,3.1429,3.1652,3.2113,3.2309,3.2632,3.3119,3.3488,3.3953,3.4619,3.5008,3.4789,3.3623,3.4138,3.4584,3.4685,3.5678,3.6394,3.6614,3.6966,3.7409,3.7883,3.8037,3.8253,3.8546,3.8708,3.8791,3.8838,3.9149,3.9526,3.9867,4.023,4.077,4.1506,4.221,4.2799,4.3185,4.2943,4.2636,4.2669,4.2916,4.3094,4.3235,4.3266,4.3296,4.334,4.3355,4.3372,4.3372,4.3372,4.3342,4.3281,4.3265,4.3219,4.3127,4.3096,4.3096,4.3096,4.3096,4.3096,4.3081,4.3052,4.2851,4.5463,4.5472,4.5489,4.5423,4.5287,4.5167,4.51,4.5046,4.5029,4.4231,4.303,4.2891,4.2851,4.2824,4.2824,4.2824,4.2824,4.2824,4.3115,4.3623,4.3676,4.4012,4.4533,4.4584,4.4584,4.4584,4.4584,4.4584,4.4516,4.3961,4.366,4.3589,4.2929,4.2557,4.254,4.2371,4.2016,4.1334,3.9547,3.8449,3.8116,3.7961,3.7278,3.6068,3.5812,3.5094,3.3829,3.3718,3.3623,3.3456,3.3545,3.36,3.3588,3.3522,3.3641,3.4023,3.4442,3.4842,3.5226,3.5876,3.6246,3.6262,3.6407,3.6458,3.6472,3.6472,3.635,3.6261,3.6865,3.7439,3.7651,3.8114,3.8572,3.8764,3.8832,3.8898,3.9073,3.9133,3.9229,3.9393,3.9902,4.0294,4.0541,4.0984,4.1623,4.2362,4.2907,4.3264,4.3402,4.3432,4.3372,4.3265,4.3204,4.328,4.3417,4.3432,4.3477,4.3598,4.36,4.3568,4.3583,4.3598,4.3568,4.3447,4.3432,4.3387,4.325,4.3235,4.3235,4.325,4.325,4.3219,4.3204,4.3189,4.3067,4.5658,4.5761,4.5761,4.5697,4.5567,4.5537,4.5393,4.519,4.5177,4.5031,4.466,4.4623,4.4452,4.4395,4.4361,4.431,4.4313,4.4364,4.4381,4.4432,4.4482,4.4516,4.4584,4.4584,4.4584,4.4584,4.4584,4.4584,4.4584,4.4499,4.4465,4.4398,4.3676,4.3288,4.3237,4.2658,4.2233,4.2014,4.1156,4.0061,3.8794,3.8581,3.815,3.7338,3.7276,3.6847,3.5866,3.5904,3.5523,3.4864,3.5337,3.569,3.5727,3.6183,3.6474,3.6498,3.6468,3.6489,3.6561,3.7212,3.7594,3.7654,3.8104,3.8417,3.8431,3.8463,3.8106,3.7567,3.8079,3.8531,3.8652,3.875,3.8859,3.8931,3.9059,3.9229,3.9852,4.0155,4.0486,4.1101,4.1125,4.1501,4.1954,4.2218,4.2613,4.321,4.3393,4.3509,4.3553,4.3585,4.3553,4.3539,4.3553,4.3539,4.3568,4.3583,4.3583,4.3615,4.3615,4.3615,4.3615,4.3615,4.3583,4.3568,4.3568,4.3539,4.3539,4.3553,4.3539,4.3477,4.3477,4.3492,4.3402,4.3357,4.3266,4.5744,4.5812,4.5812,4.577,4.5718,4.5736,4.5615,4.5446,4.5432,4.531,4.5127,4.5059,4.4927,4.4723,4.4723,4.4682,4.4615,4.4584,4.4584,4.4584,4.4584,4.4584,4.4584,4.4584,4.4584,4.4584,4.4584,4.4584,4.4584,4.4584,4.4584,4.4581,4.4245,4.4096,4.4079,4.3822,4.3368,4.2748,4.2377,4.164,4.0562,3.9606,3.8779,3.8128,3.794,3.7544,3.6829,3.673,3.6572,3.6257,3.6493,3.6655,3.6655,3.6902,3.7173,3.7508,3.7804,3.7937,3.7966,3.8229,3.8379,3.8395,3.8625,3.8791,3.8805,3.8857,3.889,3.8971,3.8889,3.8832,3.8964,3.9309,3.9627,3.9759,4.0142,4.0519,4.08,4.0936,4.1143,4.1394,4.1792,4.2139,4.2504,4.2886,4.3234,4.3565,4.3615,4.3615,4.3615,4.3615,4.3615,4.3615,4.3615,4.3615,4.3615,4.3615,4.3615,4.3615,4.3615,4.3615,4.3615,4.3615,4.3615,4.3615,4.3615,4.3615,4.36,4.3615,4.3615,4.3615,4.3615,4.3583,4.3524,4.3524,4.3462,4.5972,4.5993,4.5968,4.5947,4.5905,4.5871,4.577,4.5654,4.5602,4.5485,4.5314,4.5257,4.5127,4.491,4.4831,4.4751,4.4668,4.4612,4.4584,4.4584,4.4584,4.4584,4.4584,4.4584,4.4584,4.4584,4.4584,4.4584,4.4584,4.4584,4.4584,4.4584,4.4584,4.4584,4.4584,4.4556,4.4159,4.3482,4.3138,4.2631,4.1843,4.0682,3.9668,3.8999,3.8645,3.8245,3.7731,3.7698,3.7698,3.7698,3.7698,3.7698,3.7711,3.7698,3.7908,3.8315,3.8716,3.8928,3.8944,3.8928,3.8944,3.8944,3.9092,3.924,3.927,3.9501,3.9888,4.0287,3.9871,3.9624,3.971,4.0136,4.0488,4.0682,4.1143,4.1444,4.1659,4.1709,4.1808,4.1993,4.2537,4.2804,4.2853,4.3234,4.3582,4.3598,4.3615,4.3615,4.3615,4.3615,4.3615,4.3615,4.3615,4.3615,4.3615,4.3615,4.3615,4.3615,4.3615,4.3615,4.3615,4.3615,4.3615,4.3615,4.3615,4.3615,4.3615,4.3615,4.3615,4.3615,4.3615,4.3615,4.36,4.3598,4.3598,4.632,4.6518,4.6417,4.6284,4.6191,4.6043,4.5922,4.5778,4.5684,4.5589,4.5537,4.5432,4.5314,4.5167,4.494,4.4789,4.4779,4.4668,4.4598,4.4584,4.4584,4.4584,4.4584,4.4584,4.4584,4.4584,4.4584,4.4584,4.4584,4.4584,4.4584,4.4584,4.4584,4.4584,4.4556,4.4395,4.4236,4.3944,4.3265,4.2724,4.2417,4.1707,4.0959,4.034,3.9613,3.9216,3.9133,3.9183,3.9153,3.9166,3.9116,3.9149,3.9166,3.9149,3.9136,3.9206,3.9239,3.9288,3.9292,3.9311,3.9341,3.9407,3.9943,4.0318,4.0307,4.0754,4.1134,4.1331,4.1236,4.1187,4.1267,4.1269,4.1316,4.1361,4.1428,4.1808,4.2373,4.2454,4.2787,4.3218,4.34,4.3433,4.3482,4.3549,4.3598,4.3615,4.3615,4.3615,4.3615,4.3615,4.3615,4.3615,4.3615,4.3615,4.3615,4.3615,4.3615,4.3615,4.3615,4.3615,4.3615,4.3615,4.3615,4.3615,4.3615,4.3615,4.3615,4.3615,4.3615,4.3615,4.3615,4.3615,4.3615,4.3615,4.3615,4.6518,4.6602,4.6554,4.6489,4.6459,4.6326,4.6179,4.6055,4.5922,4.5761,4.5619,4.5554,4.5446,4.5314,4.514,4.4951,4.4803,4.4765,4.4682,4.4598,4.4584,4.4584,4.4584,4.4584,4.4584,4.4584,4.4584,4.4584,4.4584,4.4584,4.4584,4.4584,4.4584,4.4559,4.4426,4.4321,4.4198,4.3981,4.3644,4.3408,4.3148,4.2487,4.1974,4.169,4.0611,3.9796,3.9315,3.9315,3.9315,3.9315,3.9315,3.9315,3.9315,3.9315,3.9315,3.9315,3.9315,3.9497,3.9915,3.9995,4.021,4.063,4.0878,4.103,4.1077,4.1278,4.1577,4.1974,4.2092,4.2272,4.262,4.2404,4.2106,4.2156,4.2537,4.2837,4.3118,4.3201,4.3332,4.3549,4.3615,4.3615,4.3615,4.3615,4.3615,4.3615,4.3615,4.3615,4.3615,4.3615,4.3615,4.3615,4.3615,4.3615,4.3615,4.3615,4.3615,4.3615,4.3615,4.3615,4.3615,4.3615,4.3615,4.3615,4.3615,4.3615,4.3615,4.3615,4.3615,4.3615,4.3615,4.3615,4.3615,4.3615,4.3615,4.6737,4.6737,4.6672,4.6678,4.6649,4.653,4.6381,4.63,4.6397,4.6331,4.6174,4.6265,4.6277,4.6136,4.584,4.5504,4.5196,4.4953,4.4723,4.4612,4.4584,4.4584,4.4584,4.4584,4.4584,4.4584,4.4584,4.4584,4.4584,4.4584,4.4584,4.4584,4.4542,4.444,4.431,4.4193,4.4085,4.3927,4.3837,4.3734,4.3547,4.3116,4.2719,4.2404,4.1558,4.0611,3.9713,3.9663,3.9517,3.9348,3.9315,3.9398,3.963,3.9663,3.9763,3.9931,3.9998,4.018,4.0613,4.0727,4.0928,4.1361,4.1643,4.1759,4.1775,4.1957,4.2355,4.2721,4.2853,4.3116,4.3365,4.3133,4.2853,4.2918,4.3315,4.3598,4.3615,4.3598,4.3582,4.3598,4.3615,4.3615,4.3615,4.3615,4.3615,4.3615,4.3615,4.3615,4.3615,4.3615,4.3615,4.3615,4.3615,4.3615,4.3615,4.3615,4.3615,4.3615,4.3615,4.3615,4.3615,4.3615,4.3615,4.3615,4.3615,4.3615,4.3615,4.3615,4.3615,4.3615,4.3615,4.3615,4.3615,4.3615,4.3615,4.7051,4.7111,4.69,4.6967,4.6997,4.6891,4.6636,4.668,4.7161,4.7321,4.7217,4.7599,4.7656,4.7615,4.6878,4.6433,4.6014,4.5397,4.4887,4.4632,4.4584,4.4584,4.4584,4.4584,4.4584,4.4584,4.4584,4.4584,4.4584,4.457,4.457,4.4556,4.4381,4.4281,4.4296,4.4056,4.3912,4.3853,4.3719,4.3613,4.3598,4.3532,4.3201,4.2653,4.2471,4.1808,4.0511,4.0412,4.0114,3.9547,3.9448,3.9696,4.0296,4.0395,4.0677,4.1127,4.1312,4.1345,4.1394,4.1428,4.1428,4.1726,4.2156,4.2504,4.2587,4.3019,4.34,4.3449,4.3482,4.3582,4.3582,4.3532,4.3497,4.3582,4.3582,4.3598,4.3615,4.3615,4.3615,4.3615,4.3615,4.3615,4.3615,4.3615,4.3615,4.3615,4.3615,4.3615,4.3615,4.3615,4.3615,4.3615,4.3615,4.3615,4.3615,4.3615,4.3615,4.3615,4.3615,4.3615,4.3615,4.3615,4.3615,4.3615,4.3615,4.3615,4.3615,4.3615,4.3615,4.3615,4.3615,4.3615,4.3615,4.3615,4.3615,4.8633,4.8703,4.8574,4.8514,4.8514,4.843,4.8292,4.8121,4.8315,4.8213,4.8015,4.8023,4.7993,4.7854,4.751,4.7262,4.7029,4.6601,4.5807,4.4795,4.4615,4.4601,4.4584,4.4584,4.4584,4.4584,4.4584,4.4584,4.457,4.4468,4.4381,4.4369,4.4241,4.4112,4.4025,4.3942,4.3853,4.3704,4.3628,4.3615,4.3615,4.3615,4.3482,4.3284,4.3251,4.2802,4.1891,4.1359,4.0994,4.0713,4.0746,4.0862,4.1044,4.1094,4.121,4.1378,4.1411,4.1659,4.209,4.2173,4.2371,4.2818,4.3135,4.3249,4.3265,4.3433,4.3615,4.3615,4.3615,4.3615,4.3615,4.3615,4.3615,4.3615,4.3615,4.3615,4.3615,4.3615,4.3615,4.3615,4.3615,4.3615,4.3615,4.3615,4.3615,4.3615,4.3615,4.3615,4.3615,4.3615,4.3615,4.3615,4.3615,4.3615,4.3615,4.3615,4.3615,4.3615,4.3615,4.3615,4.3615,4.3615,4.3615,4.3615,4.3615,4.3615,4.3615,4.3615,4.3615,4.3615,4.3615,4.3615,4.3615,4.3615,4.3615,4.9495,4.9547,4.9436,4.9377,4.9365,4.9281,4.9141,4.9059,4.9218,4.9115,4.8929,4.8957,4.8912,4.8737,4.8335,4.805,4.7857,4.7444,4.6578,4.5546,4.5106,4.4888,4.4635,4.4584,4.4584,4.4584,4.4584,4.4556,4.4483,4.4367,4.4281,4.421,4.4097,4.3983,4.3881,4.3824,4.3719,4.3613,4.3615,4.3615,4.3615,4.3615,4.3615,4.3598,4.3615,4.3365,4.2886,4.2454,4.1957,4.1527,4.1411,4.151,4.1759,4.1825,4.1924,4.2173,4.2241,4.2456,4.2837,4.2918,4.3083,4.3515,4.3615,4.3598,4.3598,4.3615,4.3615,4.3615,4.3615,4.3615,4.3615,4.3615,4.3615,4.3615,4.3615,4.3615,4.3615,4.3615,4.3615,4.3615,4.3615,4.3615,4.3615,4.3615,4.3615,4.3615,4.3615,4.3615,4.3615,4.3615,4.3615,4.3615,4.3615,4.3615,4.3615,4.3615,4.3615,4.3615,4.3615,4.3615,4.3615,4.3615,4.3615,4.3615,4.3615,4.3615,4.3615,4.3615,4.3615,4.3615,4.3615,4.3615,4.3615,4.3615,4.3615,4.9855,4.9825,4.9709,4.9746,4.9734,4.9621,4.9547,4.9472,4.9902,5.0068,5.0013,5.0076,5.0258,5.007,4.9245,4.8822,4.8558,4.7905,4.74,4.6867,4.6264,4.5568,4.4871,4.4668,4.4584,4.4584,4.4584,4.4514,4.4352,4.4296,4.4241,4.4083,4.3954,4.3883,4.3839,4.3687,4.363,4.3598,4.3615,4.3615,4.3615,4.3615,4.3615,4.3615,4.3598,4.3565,4.3482,4.3383,4.2837,4.1775,4.1726,4.2007,4.2438,4.2553,4.2837,4.335,4.3549,4.3482,4.3565,4.3482,4.3515,4.3582,4.3615,4.3615,4.3615,4.3615,4.3615,4.3615,4.3615,4.3615,4.3615,4.3615,4.3615,4.3615,4.3615,4.3615,4.3615,4.3615,4.3615,4.3615,4.3615,4.3615,4.3615,4.3615,4.3615,4.3615,4.3615,4.3615,4.3615,4.3615,4.3615,4.3615,4.3615,4.3615,4.3615,4.3615,4.3615,4.3615,4.3615,4.3615,4.3615,4.3615,4.3615,4.3615,4.3615,4.3615,4.3615,4.3615,4.3615,4.3615,4.3615,4.3615,4.3615,4.3615,4.3615,5.152,5.1579,5.1365,5.128,5.1256,5.1115,5.0928,5.0774,5.0882,5.0796,5.0654,5.0449,5.0383,5.0321,4.9898,4.9654,4.9432,4.9059,4.8548,4.8002,4.7581,4.6583,4.5483,4.4855,4.4601,4.4615,4.457,4.4499,4.431,4.4212,4.4083,4.3939,4.3793,4.3673,4.3674,4.3628,4.3598,4.3615,4.3615,4.3615,4.3615,4.3615,4.3615,4.3615,4.3615,4.3615,4.3615,4.3615,4.3497,4.3102,4.3017,4.3069,4.3218,4.3267,4.335,4.3532,4.3615,4.3615,4.3615,4.3615,4.3615,4.3615,4.3615,4.3615,4.3615,4.3615,4.3615,4.3615,4.3615,4.3615,4.3615,4.3615,4.3615,4.3615,4.3615,4.3615,4.3615,4.3615,4.3615,4.3615,4.3615,4.3615,4.3615,4.3615,4.3615,4.3615,4.3615,4.3615,4.3615,4.3615,4.3615,4.3615,4.3615,4.3615,4.3615,4.3615,4.3615,4.3615,4.3615,4.3615,4.3615,4.3615,4.3615,4.3615,4.3615,4.3615,4.3615,4.3615,4.3615,4.3615,4.3615,4.3615,4.3615,4.3615,4.3615,5.2269,5.2275,5.2096,5.1944,5.1882,5.1771,5.1577,5.1402,5.1307,5.1198,5.0927,5.0568,5.0383,5.0355,5.0106,4.9979,4.995,4.9637,4.9263,4.8828,4.8173,4.7056,4.5889,4.5196,4.4905,4.4601,4.4528,4.4384,4.4227,4.4099,4.3956,4.3778,4.3658,4.3615,4.363,4.3615,4.3615,4.3615,4.3615,4.3615,4.3615,4.3615,4.3615,4.3615,4.3615,4.3615,4.3615,4.3615,4.3598,4.3582,4.3598,4.3615,4.3615,4.3615,4.3615,4.3615,4.3615,4.3615,4.3615,4.3615,4.3615,4.3615,4.3615,4.3615,4.3615,4.3615,4.3615,4.3615,4.3615,4.3615,4.3615,4.3615,4.3615,4.3615,4.3615,4.3615,4.3615,4.3615,4.3615,4.3615,4.3615,4.3615,4.3615,4.3615,4.3615,4.3615,4.3615,4.3615,4.3615,4.3615,4.3615,4.3615,4.3615,4.3615,4.3615,4.3615,4.3615,4.3615,4.3615,4.3615,4.3615,4.3615,4.3615,4.3615,4.3615,4.3615,4.3615,4.3615,4.3615,4.3615,4.3615,4.3615,4.3615,4.3615,4.3615,5.2428,5.2287,5.215,5.2011,5.19,5.1753,5.1589,5.1467,5.135,5.1193,5.0954,5.0582,5.0383,5.0355,5.0109,4.9996,4.9964,4.9654,4.9488,4.9082,4.8446,4.7396,4.628,4.5739,4.5314,4.484,4.4479,4.4253,4.4126,4.3969,4.3807,4.3673,4.3613,4.3598,4.3615,4.3615,4.3615,4.3615,4.3615,4.3615,4.3615,4.3615,4.3615,4.3615,4.3615,4.3615,4.3615,4.3615,4.3615,4.3615,4.3615,4.3615,4.3615,4.3615,4.3615,4.3615,4.3615,4.3615,4.3615,4.3615,4.3615,4.3615,4.3615,4.3615,4.3615,4.3615,4.3615,4.3615,4.3615,4.3615,4.3615,4.3615,4.3615,4.3615,4.3615,4.3615,4.3615,4.3615,4.3615,4.3615,4.3615,4.3615,4.3615,4.3615,4.3615,4.3615,4.3615,4.3615,4.3615,4.3615,4.3615,4.3615,4.3615,4.3615,4.3615,4.3615,4.3615,4.3615,4.3615,4.3615,4.3615,4.3615,4.3615,4.3615,4.3615,4.3615,4.3615,4.3615,4.3615,4.3615,4.3615,4.3615,4.3615,4.3615,4.3615,5.2428,5.2287,5.2162,5.2029,5.1882,5.1753,5.1551,5.135,5.1307,5.1083,5.0725,5.0481,5.0359,5.0231,5.0094,4.9996,4.995,4.9654,4.9367,4.906,4.8929,4.8276,4.7278,4.6382,4.5669,4.5285,4.4634,4.4255,4.4097,4.3939,4.3809,4.3628,4.3615,4.3615,4.3615,4.3615,4.3615,4.3615,4.3615,4.3615,4.3615,4.3615,4.3615,4.3615,4.3615,4.3615,4.3615,4.3615,4.3615,4.3615,4.3615,4.3615,4.3615,4.3615,4.3615,4.3615,4.3615,4.3615,4.3615,4.3615,4.3615,4.3615,4.3615,4.3615,4.3615,4.3615,4.3615,4.3615,4.3615,4.3615,4.3615,4.3615,4.3615,4.3615,4.3615,4.3615,4.3615,4.3615,4.3615,4.3615,4.3615,4.3615,4.3615,4.3615,4.3615,4.3615,4.3615,4.3615,4.3615,4.3615,4.3615,4.3615,4.3615,4.3615,4.3615,4.3615,4.3615,4.3615,4.3615,4.3615,4.3615,4.3615,4.3615,4.3615,4.3615,4.3615,4.3615,4.3615,4.3615,4.3615,4.3615,4.3615,4.3615,4.3615,4.3615,5.2335,5.2204,5.2066,5.1932,5.179,5.1658,5.1492,5.1294,5.1233,5.099,5.0643,5.0467,5.0331,5.0189,5.0066,4.9996,4.9921,4.9637,4.9322,4.9078,4.8984,4.8798,4.8343,4.7278,4.645,4.5742,4.468,4.4203,4.4054,4.3896,4.3687,4.3613,4.3615,4.3615,4.3615,4.3615,4.3615,4.3615,4.3615,4.3615,4.3615,4.3615,4.3615,4.3615,4.3615,4.3615,4.3615,4.3615,4.3615,4.3615,4.3615,4.3615,4.3615,4.3615,4.3615,4.3615,4.3615,4.3615,4.3615,4.3615,4.3615,4.3615,4.3615,4.3615,4.3615,4.3615,4.3615,4.3615,4.3615,4.3615,4.3615,4.3615,4.3615,4.3615,4.3615,4.3615,4.3615,4.3615,4.3615,4.3615,4.3615,4.3615,4.3615,4.3615,4.3615,4.3615,4.3615,4.3615,4.3615,4.3615,4.3615,4.3615,4.3615,4.3615,4.3615,4.3615,4.3615,4.3615,4.3615,4.3615,4.3615,4.3615,4.3615,4.3615,4.3615,4.3615,4.3615,4.3615,4.3615,4.3615,4.3615,4.3615,4.3615,4.3615,4.3615,5.2228,5.2084,5.1956,5.1833,5.1678,5.1556,5.1428,5.1298,5.1114,5.0869,5.0588,5.0425,5.0274,5.0163,5.0051,4.9979,4.9816,4.9592,4.9262,4.9032,4.9018,4.8968,4.8697,4.8022,4.7196,4.5981,4.4954,4.4406,4.4058,4.3804,4.3673,4.363,4.3615,4.3615,4.3615,4.3615,4.3615,4.3615,4.3615,4.3615,4.3615,4.3615,4.3615,4.3615,4.3615,4.3615,4.3615,4.3615,4.3615,4.3615,4.3615,4.3615,4.3615,4.3615,4.3615,4.3615,4.3615,4.3615,4.3615,4.3615,4.3615,4.3615,4.3615,4.3615,4.3615,4.3615,4.3615,4.3615,4.3615,4.3615,4.3615,4.3615,4.3615,4.3615,4.3615,4.3615,4.3615,4.3615,4.3615,4.3615,4.3615,4.3615,4.3615,4.3615,4.3615,4.3615,4.3615,4.3615,4.3615,4.3615,4.3615,4.3615,4.3615,4.3615,4.3615,4.3615,4.3615,4.3615,4.3615,4.3615,4.3615,4.3615,4.3615,4.3615,4.3615,4.3615,4.3615,4.3615,4.3615,4.3615,4.3615,4.3615,4.3615,4.3615,4.3615,5.2228,5.2084,5.1956,5.182,5.1708,5.1556,5.1415,5.1255,5.0986,5.0684,5.0457,5.0285,5.0178,5.0066,5.0008,4.9862,4.9639,4.9398,4.9185,4.9017,4.9018,4.9018,4.8866,4.836,4.7768,4.72,4.6039,4.4982,4.4284,4.3925,4.3732,4.3645,4.3615,4.3615,4.3615,4.3615,4.3615,4.3615,4.3615,4.3615,4.3615,4.3615,4.3615,4.3615,4.3615,4.3615,4.3615,4.3615,4.3615,4.3615,4.3615,4.3615,4.3615,4.3615,4.3615,4.3615,4.3615,4.3615,4.3615,4.3615,4.3615,4.3615,4.3615,4.3598,4.3598,4.36,4.3568,4.3553,4.3568,4.3583,4.3615,4.3553,4.3583,4.3583,4.3583,4.3598,4.3615,4.3615,4.3615,4.3615,4.3615,4.3615,4.3615,4.3615,4.3615,4.3615,4.3615,4.3615,4.3615,4.3615,4.3615,4.3615,4.3615,4.3615,4.3615,4.3615,4.3615,4.3615,4.3615,4.3615,4.3615,4.3615,4.3615,4.3615,4.3615,4.3615,4.3615,4.3615,4.3615,4.3615,4.3615,4.3615,4.3615,4.3615,4.3615,5.2162,5.2072,5.1877,5.1703,5.1594,5.1454,5.1324,5.1154,5.0851,5.0588,5.0397,5.026,5.0117,5.0022,4.9996,4.9818,4.9518,4.929,4.9123,4.9032,4.9018,4.9018,4.9018,4.8578,4.8225,4.7804,4.6986,4.5894,4.4731,4.4136,4.3843,4.3659,4.3615,4.3615,4.3615,4.3615,4.3615,4.3615,4.3615,4.3615,4.3615,4.3615,4.3615,4.3615,4.3615,4.3615,4.3615,4.3615,4.3615,4.3615,4.3615,4.3615,4.3615,4.3615,4.3615,4.3615,4.3615,4.3615,4.3615,4.3615,4.3615,4.3615,4.3615,4.3568,4.3507,4.3477,4.3462,4.3387,4.3342,4.3342,4.3342,4.3357,4.3387,4.3494,4.3492,4.3507,4.3568,4.36,4.3583,4.3568,4.3583,4.3583,4.3615,4.3615,4.3615,4.3615,4.3615,4.36,4.3568,4.3553,4.3539,4.3553,4.3553,4.3568,4.3583,4.3615,4.3615,4.3615,4.3615,4.3615,4.3615,4.3615,4.3615,4.3615,4.3615,4.3615,4.3615,4.3615,4.3615,4.3615,4.3615,4.3615,4.3615,4.3615,4.3615,5.209,5.2041,5.1808,5.1632,5.1492,5.1346,5.1207,5.1008,5.0702,5.0495,5.0359,5.0217,5.0092,4.9993,4.9891,4.9728,4.9456,4.9275,4.9092,4.9032,4.9018,4.9018,4.9018,4.8951,4.8697,4.8276,4.7787,4.6975,4.5356,4.4593,4.4068,4.3752,4.3659,4.3615,4.3615,4.3615,4.3615,4.3615,4.3615,4.3615,4.3615,4.3615,4.3615,4.3615,4.3615,4.3615,4.3615,4.3615,4.3615,4.3615,4.3615,4.3615,4.3615,4.3615,4.3615,4.3615,4.3615,4.3615,4.3615,4.3615,4.36,4.3539,4.3553,4.3494,4.3387,4.3327,4.3296,4.3127,4.3112,4.3127,4.3142,4.3112,4.3189,4.3281,4.3325,4.3355,4.3432,4.3447,4.3432,4.3447,4.3507,4.3553,4.3553,4.3539,4.3524,4.3464,4.3447,4.3387,4.3387,4.3402,4.3417,4.3464,4.3494,4.3507,4.3553,4.3583,4.3583,4.3615,4.3615,4.3615,4.3615,4.3615,4.3615,4.3615,4.3615,4.3615,4.3615,4.3615,4.3615,4.3615,4.3615,4.3615,4.3615,4.3615,4.3615,5.2041,5.1907,5.1753,5.1632,5.1497,5.1363,5.1105,5.082,5.0551,5.0341,5.0231,5.0077,5.0025,4.9952,4.9698,4.9562,4.9413,4.9201,4.9032,4.9001,4.9018,4.9018,4.9018,4.9018,4.8951,4.8663,4.8208,4.6984,4.5742,4.5161,4.4547,4.397,4.3689,4.3615,4.3615,4.3615,4.3615,4.3615,4.3615,4.3615,4.3615,4.3615,4.3615,4.3615,4.3615,4.3615,4.3615,4.3615,4.3615,4.3615,4.3615,4.3615,4.3615,4.3615,4.3615,4.3615,4.3615,4.3615,4.3583,4.3583,4.3524,4.3432,4.3417,4.3327,4.3205,4.3144,4.3098,4.3112,4.3081,4.3051,4.3036,4.3066,4.3096,4.3128,4.316,4.3159,4.3204,4.3295,4.328,4.3265,4.3295,4.3417,4.3477,4.3464,4.3419,4.3357,4.328,4.3235,4.3219,4.325,4.3265,4.3312,4.3357,4.3387,4.3402,4.3447,4.3524,4.3553,4.3568,4.3583,4.3615,4.3615,4.3615,4.3615,4.3615,4.3615,4.3615,4.3615,4.3615,4.3615,4.3615,4.3615,4.3615,4.3615,4.3615,5.2029,5.1882,5.1758,5.1577,5.1389,5.1337,5.1066,5.0712,5.0495,5.0313,5.0189,5.0066,4.9935,4.9816,4.9592,4.9426,4.9305,4.9109,4.9018,4.9018,4.9018,4.9018,4.9018,4.9018,4.9018,4.8917,4.8563,4.7768,4.6486,4.5436,4.4758,4.3997,4.3719,4.3615,4.3615,4.3615,4.3615,4.3615,4.3615,4.3615,4.3615,4.3615,4.3615,4.3615,4.3615,4.3615,4.3615,4.3615,4.3615,4.3615,4.3615,4.3615,4.3615,4.3615,4.3615,4.3598,4.3507,4.3477,4.3462,4.3462,4.3387,4.3265,4.3236,4.316,4.299,4.2882,4.282,4.2805,4.2804,4.282,4.2852,4.282,4.2899,4.2945,4.2976,4.3021,4.3052,4.3081,4.3127,4.3112,4.3096,4.3189,4.3265,4.3251,4.3221,4.3205,4.3159,4.3128,4.3112,4.3142,4.3142,4.3142,4.3189,4.3219,4.3235,4.325,4.3357,4.3402,4.3447,4.3494,4.3583,4.3615,4.36,4.36,4.3615,4.3615,4.3615,4.3615,4.3615,4.3615,4.3615,4.3615,4.3615,4.3615,4.3664,5.1968,5.1833,5.1708,5.1513,5.1298,5.1259,5.099,5.0561,5.0439,5.0302,5.0163,5.0037,4.9889,4.9693,4.9562,4.9396,4.9199,4.9063,4.9017,4.9018,4.9018,4.9018,4.9018,4.9018,4.9018,4.9018,4.8951,4.8071,4.6914,4.5944,4.5085,4.4006,4.3793,4.3674,4.363,4.3615,4.3615,4.3615,4.3615,4.3615,4.3615,4.3615,4.3615,4.3615,4.3615,4.3615,4.3615,4.3615,4.3615,4.3615,4.3615,4.3615,4.3615,4.3615,4.3585,4.3539,4.3464,4.3358,4.3312,4.3266,4.3221,4.3098,4.299,4.2898,4.2821,4.2665,4.2602,4.2649,4.2634,4.2634,4.2602,4.2634,4.2696,4.2774,4.2822,4.2899,4.2944,4.2944,4.2912,4.2882,4.2882,4.2897,4.2959,4.2975,4.299,4.3021,4.3021,4.2989,4.2989,4.2989,4.2959,4.2928,4.3021,4.3068,4.3067,4.3098,4.319,4.3266,4.3312,4.334,4.3402,4.3494,4.3524,4.3555,4.3568,4.3615,4.3615,4.3615,4.3615,4.3615,4.3615,4.3615,4.3615,4.3615,4.3681,5.1845,5.1703,5.1569,5.1441,5.1298,5.1154,5.0859,5.0439,5.0415,5.0263,5.0037,5.0011,4.9906,4.971,4.9545,4.9381,4.9184,4.9063,4.9017,4.9018,4.9018,4.9018,4.9018,4.9018,4.9018,4.9018,4.8984,4.8189,4.7077,4.6517,4.5417,4.4269,4.3927,4.3778,4.3658,4.3628,4.3615,4.3615,4.3615,4.3615,4.3615,4.3615,4.3615,4.3615,4.3615,4.3615,4.3615,4.3615,4.3615,4.3615,4.3615,4.3615,4.3615,4.3583,4.3539,4.3464,4.3358,4.3222,4.31,4.3067,4.3053,4.2899,4.2759,4.2633,4.2571,4.2602,4.2587,4.2539,4.2508,4.2539,4.2555,4.2602,4.2602,4.2618,4.2681,4.2712,4.2759,4.2728,4.2696,4.2649,4.2665,4.2743,4.2743,4.2774,4.282,4.2851,4.2821,4.2789,4.2758,4.2743,4.2728,4.2728,4.2837,4.2899,4.2914,4.296,4.3021,4.3067,4.3144,4.3143,4.3174,4.3266,4.3404,4.3417,4.3417,4.3524,4.3583,4.3553,4.3539,4.3583,4.3615,4.3615,4.3615,4.3615,4.3664,5.182,5.1678,5.1449,5.135,5.1285,5.1141,5.0832,5.0439,5.0383,5.0249,4.9996,4.9982,4.983,4.9622,4.9515,4.9352,4.9092,4.9032,4.9001,4.9018,4.9018,4.9018,4.9018,4.9018,4.9018,4.9001,4.8934,4.824,4.6938,4.6644,4.5647,4.4649,4.406,4.3898,4.3778,4.3658,4.363,4.3615,4.3615,4.3615,4.3615,4.3615,4.3615,4.3615,4.3615,4.3615,4.3615,4.3615,4.3615,4.3615,4.3615,4.3615,4.3583,4.3539,4.3464,4.3358,4.3237,4.3038,4.293,4.2914,4.2852,4.2634,4.2492,4.2429,4.2349,4.2302,4.2286,4.2286,4.2317,4.2333,4.2302,4.2413,4.2492,4.2508,4.2539,4.2571,4.2602,4.2602,4.2602,4.2618,4.2618,4.2634,4.2634,4.2618,4.2665,4.268,4.2634,4.2602,4.2602,4.2602,4.2602,4.2602,4.2728,4.276,4.2759,4.2789,4.2851,4.2898,4.2976,4.2975,4.3006,4.3113,4.3204,4.3235,4.3265,4.331,4.3372,4.3417,4.3462,4.3539,4.3583,4.3615,4.3615,4.3615,4.3795,5.1778,5.1665,5.1428,5.1311,5.1272,5.1043,5.0764,5.0425,5.0359,5.0235,4.9996,4.9935,4.9772,4.9547,4.9428,4.9292,4.9063,4.9001,4.9001,4.9018,4.9018,4.9018,4.9018,4.9018,4.9001,4.8968,4.8614,4.7919,4.6851,4.6599,4.5645,4.4678,4.414,4.4027,4.3853,4.3702,4.3615,4.3615,4.3615,4.3615,4.3615,4.3615,4.3615,4.3615,4.3615,4.3615,4.3615,4.3615,4.3615,4.3615,4.3615,4.3583,4.3539,4.3464,4.3358,4.3222,4.3054,4.2852,4.2759,4.2712,4.2602,4.2381,4.2318,4.2238,4.2158,4.2093,4.2142,4.2126,4.2109,4.2093,4.2093,4.2238,4.2381,4.2413,4.2461,4.2508,4.2571,4.2602,4.2602,4.2602,4.2602,4.2602,4.2602,4.2602,4.2618,4.2649,4.2618,4.2602,4.2602,4.2602,4.2602,4.2602,4.2618,4.2618,4.2618,4.2681,4.2727,4.2743,4.2806,4.2837,4.2883,4.2975,4.3036,4.3068,4.3082,4.3081,4.3142,4.325,4.3371,4.3492,4.3539,4.3568,4.3615,4.3648,4.4011,5.1721,5.1683,5.1397,5.1311,5.1241,5.0807,5.0533,5.0383,5.026,5.0152,4.9996,4.983,4.9649,4.9471,4.9335,4.917,4.9048,4.9018,4.9018,4.9018,4.9018,4.9018,4.9018,4.9018,4.9001,4.8832,4.8394,4.7699,4.68,4.621,4.5367,4.475,4.4327,4.4126,4.3912,4.3687,4.3613,4.3615,4.363,4.3615,4.3615,4.3615,4.3615,4.3615,4.3615,4.3615,4.3615,4.3615,4.3615,4.3615,4.3615,4.3553,4.3449,4.3387,4.3236,4.2992,4.2915,4.2712,4.2461,4.2413,4.2302,4.2174,4.2125,4.2093,4.2093,4.2061,4.2029,4.1964,4.2013,4.2045,4.2077,4.2109,4.2222,4.2302,4.2349,4.2461,4.2524,4.2602,4.2602,4.2602,4.2602,4.2602,4.2602,4.2602,4.2602,4.2602,4.2602,4.2602,4.2602,4.2602,4.2602,4.2602,4.2602,4.2602,4.2602,4.2602,4.2618,4.2634,4.2666,4.2712,4.2743,4.2821,4.2868,4.2915,4.2914,4.2912,4.3005,4.3113,4.3219,4.3325,4.3462,4.3524,4.3568,4.3731,4.4063,5.169,5.1665,5.1397,5.1311,5.1228,5.0793,5.0519,5.0373,5.0178,5.0037,4.9964,4.9784,4.9637,4.9456,4.929,4.9123,4.9032,4.9018,4.9018,4.9018,4.9018,4.9018,4.9018,4.9018,4.8984,4.8783,4.8242,4.7464,4.6786,4.5974,4.5294,4.4742,4.4426,4.421,4.4039,4.3881,4.3793,4.3763,4.3689,4.3615,4.3615,4.3615,4.3615,4.3615,4.3615,4.3615,4.3615,4.3615,4.3615,4.3598,4.3598,4.3524,4.3388,4.3312,4.3099,4.2868,4.2744,4.2413,4.2174,4.2077,4.2044,4.198,4.1947,4.1883,4.1801,4.1785,4.1769,4.1769,4.1769,4.1769,4.1769,4.1915,4.2028,4.2093,4.219,4.2365,4.2476,4.2555,4.2602,4.2602,4.2602,4.2602,4.2602,4.2602,4.2602,4.2602,4.2602,4.2602,4.2602,4.2602,4.2602,4.2602,4.2602,4.2602,4.2602,4.2602,4.2602,4.2602,4.2602,4.2634,4.2665,4.2696,4.2696,4.2743,4.2759,4.2774,4.2836,4.2913,4.3036,4.3143,4.3236,4.3357,4.3434,4.3693,4.4102,5.169,5.1665,5.1397,5.1311,5.1228,5.0793,5.0492,5.0316,5.0109,4.9996,4.995,4.9784,4.9619,4.9473,4.929,4.9123,4.9017,4.9018,4.9018,4.9018,4.9018,4.9018,4.9018,4.8968,4.8781,4.8529,4.787,4.7092,4.6329,4.5652,4.5074,4.4657,4.4468,4.4384,4.4243,4.4114,4.391,4.3866,4.3763,4.3689,4.3645,4.3615,4.3615,4.3615,4.3615,4.3615,4.3615,4.3615,4.3615,4.3598,4.3537,4.3462,4.3312,4.3144,4.2945,4.2696,4.2413,4.2141,4.1996,4.1719,4.1687,4.1654,4.1686,4.1604,4.1455,4.1438,4.1422,4.1422,4.1423,4.1456,4.1538,4.1686,4.1768,4.185,4.2044,4.2222,4.2397,4.2492,4.2555,4.2571,4.2602,4.2602,4.2602,4.2602,4.2602,4.2602,4.2602,4.2602,4.2602,4.2602,4.2602,4.2602,4.2602,4.2602,4.2602,4.2602,4.2602,4.2602,4.2602,4.2602,4.2602,4.2649,4.2618,4.2602,4.2649,4.2681,4.2665,4.2728,4.282,4.2882,4.2898,4.3068,4.3251,4.3672,4.4146,5.169,5.1652,5.141,5.1276,5.1162,5.0587,5.0279,5.0186,5.0051,4.9996,4.9964,4.9801,4.9637,4.9488,4.9275,4.9123,4.9015,4.9001,4.9018,4.9018,4.9018,4.9018,4.9018,4.8984,4.8631,4.7938,4.7261,4.6667,4.5754,4.5142,4.4736,4.4601,4.4556,4.4514,4.4429,4.4301,4.4099,4.4012,4.3881,4.3778,4.3704,4.3613,4.3615,4.3615,4.3615,4.3615,4.3615,4.3615,4.3615,4.3568,4.3477,4.3312,4.3144,4.2976,4.2712,4.2413,4.2109,4.1979,4.1784,4.1489,4.134,4.1323,4.129,4.1205,4.1187,4.1218,4.122,4.1203,4.122,4.1239,4.129,4.1406,4.1522,4.1686,4.1866,4.2061,4.2286,4.2397,4.2476,4.2524,4.2587,4.2602,4.2602,4.2602,4.2602,4.2602,4.2602,4.2602,4.2602,4.2602,4.2602,4.2602,4.2602,4.2602,4.2602,4.2602,4.2602,4.2602,4.2602,4.2602,4.2602,4.2602,4.2602,4.2602,4.2602,4.2602,4.2618,4.2618,4.2634,4.2681,4.2728,4.2852,4.3068,4.3735,4.4274,5.169,5.1665,5.141,5.0975,5.0314,4.9297,4.9312,5.0102,5.0051,4.9979,4.9996,4.9799,4.9566,4.9471,4.929,4.9155,4.9048,4.9018,4.9018,4.9018,4.9018,4.9018,4.8984,4.8917,4.8512,4.7836,4.7107,4.6329,4.5669,4.4939,4.4615,4.4584,4.4584,4.4584,4.4556,4.4499,4.4327,4.4169,4.4027,4.3896,4.3793,4.3689,4.3659,4.3645,4.3613,4.3598,4.3615,4.3615,4.3615,4.3583,4.3462,4.3312,4.3113,4.296,4.2712,4.2238,4.1996,4.1817,4.1522,4.1357,4.1206,4.1021,4.097,4.1037,4.1051,4.1066,4.1066,4.1033,4.1033,4.1052,4.1121,4.1222,4.1339,4.1489,4.1686,4.1899,4.2109,4.2286,4.2365,4.2508,4.2571,4.2602,4.2602,4.2602,4.2602,4.2602,4.2602,4.2602,4.2602,4.2602,4.2602,4.2602,4.2602,4.2602,4.2602,4.2602,4.2602,4.2602,4.2602,4.2602,4.2602,4.2602,4.2602,4.2602,4.2602,4.2602,4.2602,4.2587,4.2555,4.2603,4.2666,4.2759,4.3014,4.3713,4.4444,5.0744,5.0707,5.0508,5.0085,4.9429,4.8535,4.8651,4.9271,4.9164,4.9082,4.9117,4.924,4.925,4.9092,4.918,4.9231,4.9017,4.9018,4.9018,4.9018,4.9018,4.9018,4.8984,4.8648,4.8071,4.7445,4.6718,4.5906,4.5348,4.4939,4.4584,4.4584,4.4584,4.4584,4.4584,4.457,4.4528,4.4369,4.4212,4.407,4.3939,4.3824,4.3748,4.3704,4.3658,4.3613,4.3615,4.3615,4.3615,4.3553,4.3417,4.3235,4.3006,4.2806,4.2539,4.2093,4.1785,4.1571,4.134,4.1171,4.0987,4.0834,4.073,4.073,4.0797,4.0813,4.0813,4.0797,4.0847,4.0898,4.0967,4.1069,4.1188,4.1306,4.1505,4.1719,4.1931,4.2141,4.2302,4.2461,4.2539,4.2587,4.2602,4.2602,4.2602,4.2602,4.2602,4.2602,4.2602,4.2602,4.2602,4.2602,4.2602,4.2602,4.2602,4.2602,4.2602,4.2602,4.2602,4.2602,4.2602,4.2602,4.2587,4.2587,4.2602,4.2571,4.2508,4.2508,4.2476,4.2556,4.2766,4.3056,4.3411,4.3961,4.4659,4.9311,4.9347,4.9089,4.8886,4.8556,4.8072,4.787,4.79,4.7664,4.7631,4.7876,4.8444,4.855,4.8465,4.8721,4.8918,4.8787,4.8746,4.8866,4.8968,4.9018,4.8951,4.8597,4.8225,4.7597,4.6786,4.6092,4.5551,4.4871,4.4584,4.4584,4.4584,4.4584,4.4584,4.4584,4.4584,4.457,4.4514,4.4384,4.4239,4.4112,4.3998,4.3912,4.3837,4.3748,4.3628,4.363,4.3615,4.3615,4.3509,4.3342,4.3143,4.282,4.2523,4.2222,4.1948,4.1637,4.1406,4.1222,4.1037,4.0867,4.0713,4.0626,4.0576,4.0608,4.0626,4.0643,4.0643,4.0677,4.0694,4.0765,4.0899,4.102,4.1139,4.1323,4.1505,4.1687,4.1948,4.2254,4.2413,4.2555,4.2587,4.2602,4.2602,4.2602,4.2602,4.2602,4.2602,4.2602,4.2602,4.2602,4.2602,4.2602,4.2602,4.2602,4.2602,4.2602,4.2602,4.2602,4.2602,4.2602,4.2587,4.2571,4.2539,4.2492,4.2445,4.2397,4.2381,4.2446,4.2623,4.2928,4.3395,4.3847,4.4381,4.4868,4.9293,4.9198,4.8441,4.7998,4.7754,4.689,4.6459,4.6352,4.6183,4.6729,4.7579,4.7844,4.7864,4.778,4.7842,4.8041,4.8269,4.822,4.8528,4.8714,4.8832,4.846,4.8225,4.7768,4.7107,4.6295,4.5652,4.5277,4.4753,4.4584,4.4584,4.4584,4.4584,4.4584,4.4584,4.4584,4.4584,4.4584,4.4528,4.4395,4.4253,4.4126,4.4012,4.3925,4.3822,4.3734,4.3689,4.3613,4.3598,4.3553,4.3265,4.2944,4.2587,4.227,4.2061,4.1899,4.1555,4.1289,4.112,4.095,4.0747,4.061,4.0524,4.0507,4.0489,4.0489,4.0489,4.0489,4.0507,4.0541,4.0593,4.0713,4.0833,4.1003,4.1139,4.1322,4.1472,4.1834,4.219,4.2381,4.2539,4.2587,4.2587,4.2602,4.2602,4.2602,4.2602,4.2602,4.2602,4.2602,4.2602,4.2602,4.2602,4.2602,4.2602,4.2602,4.2602,4.2602,4.2602,4.2602,4.2587,4.2508,4.2429,4.2365,4.2333,4.2334,4.2318,4.2222,4.2334,4.2732,4.326,4.3823,4.4433,4.4999,4.5313,4.8282,4.8193,4.7547,4.7226,4.7017,4.6322,4.5909,4.5782,4.5671,4.5995,4.67,4.7017,4.7121,4.7085,4.7105,4.7232,4.7583,4.7486,4.7596,4.7902,4.8088,4.775,4.7447,4.7143,4.6534,4.5771,4.5314,4.4922,4.4618,4.4584,4.4584,4.4584,4.4584,4.4584,4.4584,4.4584,4.4584,4.4584,4.4584,4.4511,4.4381,4.4284,4.4169,4.4083,4.3954,4.3852,4.3763,4.3673,4.3598,4.3524,4.3265,4.2867,4.2508,4.2222,4.2029,4.1801,4.1504,4.117,4.1051,4.0848,4.0645,4.0524,4.0489,4.0489,4.0489,4.0489,4.0489,4.0489,4.0489,4.0524,4.0524,4.061,4.073,4.0867,4.1103,4.1303,4.1553,4.1882,4.2158,4.2365,4.2492,4.2524,4.2555,4.2602,4.2602,4.2602,4.2602,4.2602,4.2602,4.2602,4.2602,4.2667,4.2699,4.2635,4.2602,4.2602,4.2602,4.2602,4.2602,4.2539,4.2492,4.2349,4.2254,4.2286,4.2318,4.2333,4.2301,4.2363,4.2726,4.3215,4.3761,4.4309,4.4917,4.5429,4.5697,4.7062,4.6957,4.6743,4.6619,4.6542,4.6209,4.5935,4.5812,4.5667,4.5524,4.56,4.6203,4.6295,4.6447,4.6637,4.6803,4.6878,4.6782,4.6777,4.6938,4.6972,4.6887,4.6583,4.6126,4.5771,4.5415,4.4956,4.477,4.4584,4.4584,4.4584,4.4584,4.4584,4.4584,4.4584,4.4584,4.4584,4.4584,4.4584,4.4584,4.4511,4.444,4.4338,4.4227,4.4085,4.3927,4.3853,4.3734,4.363,4.3479,4.3265,4.282,4.246,4.2174,4.1996,4.1752,4.1387,4.1169,4.1033,4.0746,4.0608,4.0489,4.0489,4.0489,4.0489,4.0489,4.0489,4.0489,4.0489,4.0489,4.0507,4.0524,4.0645,4.0765,4.1017,4.1252,4.1553,4.1849,4.2077,4.2302,4.2365,4.2413,4.2508,4.2555,4.2571,4.2587,4.2587,4.2602,4.2602,4.2602,4.2602,4.2764,4.2909,4.2813,4.2667,4.27,4.2732,4.2587,4.2555,4.2492,4.2381,4.2206,4.2173,4.2333,4.2364,4.2455,4.2657,4.2811,4.3233,4.3654,4.3922,4.4371,4.5033,4.5512,4.5911,4.7009,4.6986,4.6725,4.6602,4.6554,4.6265,4.6023,4.5838,4.577,4.5615,4.5501,4.5483,4.5595,4.5568,4.5547,4.5775,4.6229,4.6119,4.6465,4.675,4.6496,4.6261,4.5991,4.5618,4.5314,4.499,4.4702,4.4635,4.4584,4.4584,4.4584,4.4584,4.4584,4.4584,4.4584,4.4584,4.4584,4.4584,4.4584,4.4584,4.4584,4.4511,4.4454,4.4312,4.4155,4.4012,4.3881,4.3702,4.3628,4.3509,4.3266,4.2789,4.2381,4.2109,4.1948,4.1687,4.1304,4.1168,4.0982,4.0694,4.0541,4.0489,4.0489,4.0489,4.0489,4.0489,4.0489,4.0489,4.0489,4.0489,4.0489,4.0489,4.0576,4.0696,4.0882,4.112,4.1405,4.1653,4.1931,4.2045,4.2125,4.2238,4.2381,4.2429,4.2444,4.2492,4.2524,4.2524,4.254,4.2571,4.2636,4.2862,4.3105,4.2926,4.2764,4.2878,4.2895,4.2701,4.2622,4.2735,4.259,4.2077,4.2091,4.2518,4.2604,4.2655,4.2901,4.3279,4.3598,4.395,4.3986,4.4351,4.5049,4.5493,4.5728]}]]